     2              OBSERVATION DATA    GPS                 RINEX VERSION / TYPE
ASRINEXO V2.2.0 UX USGS 28-MAR-94 14:38                     PGM / RUN BY / DATE
                                                            COMMENT
Original Marker Name: rk45 Rock_1945_USGS                   COMMENT
Campaign Name: gorlock willow tie                           COMMENT
4-Character Station Name: RK45                              COMMENT
6-Character Antenna Code: ASHP12                            COMMENT
Vertical Measurement Point: EGP                             COMMENT
Vertical Offset to Rinex Ref. Point: 0.0593                 COMMENT
Radial Measurement Point: EGP                               COMMENT
Radial Offset to Rinex Ref. Point: 0.1425                   COMMENT
Antenna Height from Field Measurement: 0.6110 m             COMMENT
Additional Antenna Identification Info.:                    COMMENT
Ashtech L1/L2 Revision B                                    COMMENT
Original XYZ: -2523397.6200 -4636857.9200 3567962.5900      COMMENT
New XYZ position is based on association with SCEC monument COMMENT
E1F4B3L8+0011. Position of that monument is believed to be  COMMENT
valid to within 1 m horizontally; vertical accuracy         COMMENT
should be no worse than 3-times this value.                 COMMENT
                                                            COMMENT
Revised Rinex header created by UCSD GPS archive for        COMMENT
GSAC on 25-May-2001 (2001:145) 15:31:01 GMT                 COMMENT
For assistance contact dagnew@ucsd.edu or hjohnson@ucsd.edu COMMENT
                                                            COMMENT
RK45 ROCK_1945_USGS                                         MARKER NAME
                                                            MARKER NUMBER
WKG US GEOLOGICAL SURVEY                                    OBSERVER / AGENCY
104 ASHTECH L-XII 7A                                        REC # / TYPE / VERS
68 ASHTECH GEODETIC P                                       ANT # / TYPE
 -2396511.5024 -4615471.9119  3681719.1086                  APPROX POSITION XYZ
        0.5349        0.0000        0.0000                  ANTENNA: DELTA H/E/N
     1     2     0                                          WAVELENGTH FACT L1/2
     3    C1    L1    L2                                    # / TYPES OF OBSERV
    30                                                      INTERVAL
  1994     3    18    17    39    0.000000                  TIME OF FIRST OBS
  1994     3    19     0     0    0.000000                  TIME OF LAST OBS
                                                            END OF HEADER
 94  3 18 17 39  0.0000000  0  1 14
  21628702.651     -877258.42417    173612.598
 94  3 18 17 39 30.0000000  0  2 24 14
  25605618.839    15590472.02914    -22917.901
  21644219.758     -795721.948 7    237148.808
 94  3 18 17 40  0.0000000  0  4 18 19 14 22
  21183924.294    -7660217.70718   -118274.311
  22509282.168     1273536.06316   -154804.304 1
  21959569.586     -713978.028 7    300845.931 2
  22208478.570    16608064.13217    130163.523
 94  3 18 17 40 30.0000000  0  5 29 18 19 14 22
  20703166.616   -14271478.77718    -22561.259 1
  21172192.816    -7721861.473 8   -166308.432 4
  22495864.597     1203065.749 6   -209716.183 2
  21975187.364     -631900.750 7    364802.193 3
  22219775.380    16667440.888 7    176427.900 1
 94  3 18 17 41  0.0000000  0  6 29 18 19 28 14 22
  20701159.086   -14282031.638 8    -30780.528 3
  21160525.613    -7783169.412 8   -214080.845 5
  22482512.231     1132881.638 6   -264405.068 2
  24799098.252     1916296.18514   -183682.939
  21990889.924     -549386.294 7    429099.155 4
  22231174.958    16727352.259 7    223112.103 2
 94  3 18 17 41 30.0000000  0  6 29 18 19 28 14 22
  20699235.408   -14292149.601 8    -38664.685 6
  21148927.542    -7844118.306 8   -261573.491 6
  22469218.324     1063025.185 6   -318838.670 3
  24784372.656     1839067.597 4   -243861.027
  22006683.260     -466390.157 7    493771.398 4
  22242689.387    16787841.676 7    270246.663 4
 94  3 18 17 42  0.0000000  0  6 29 18 19 28 14 22
  20697397.380   -14301802.675 8    -46186.559 7
  21137404.839    -7904670.990 8   -308757.395 7
  22456000.534      993560.125 6   -372967.242 3
  24769735.619     1762146.486 4   -303799.462 1
  22022580.235     -382855.816 7    558863.073 5
  22254318.576    16848959.227 7    317870.709 4
 94  3 18 17 42 30.0000000  0  6 29 18 19 28 14 22
  20695653.008   -14310971.388 8    -53331.014 8
  21125962.391    -7964812.965 8   -355621.274 7
  22442856.254      924518.797 6   -426765.671 4
  24755193.856     1685547.875 4   -363486.603 1
  22038578.510     -298760.920 7    624391.511 5
  22266067.802    16910701.297 7    365981.377 5
 94  3 18 17 43  0.0000000  0  6 29 18 19 28 14 22
  20693999.562   -14319642.859 8    -60088.020 9
  21114594.440    -8024537.646 8   -402159.990 7
  22429813.513      855930.430 6   -480211.117 4
  24740676.736     1609298.977 4   -422901.208 1
  22054694.033     -214093.283 7    690366.246 5
  22277934.727    16973071.940 7    414581.818 5
 94  3 18 17 43 30.0000000  0  6 29 18 19 28 14 22
  20692451.554   -14327780.282 8    -66428.886 9
  21103314.060    -8083819.379 9   -448353.548 8
  22416849.048      787815.792 6   -533287.425 4
  24726236.243     1533412.241 4   -482033.693 1
  22070916.852     -128849.114 7    756790.240 5
  22289932.511    17036103.501 7    463697.301 6
 94  3 18 17 44  0.0000000  0  6 29 18 19 28 14 22
  20691008.173   -14335368.492 8    -72341.784 9
  21092120.349    -8142641.647 9   -494189.086 8
  22403980.727      720179.872 7   -585990.712 4
  24711866.381     1457900.787 4   -540873.700 1
  22087244.659      -43043.277 7    823651.870 5
  22302053.899    17099801.240 7    513331.860 6
 94  3 18 17 44 30.0000000  0  6 29 18 19 28 14 22
  20689666.782   -14342404.515 8    -77824.393 9
  21081016.126    -8200999.906 8   -539663.056 8
  22391198.836      653012.598 6   -638328.805 4
  24697558.336     1382787.367 4   -599403.576 1
  22103674.694       43301.387 7    890933.386 5
  22314293.676    17164147.350 7    563471.640 6
 94  3 18 17 45  0.0000000  0  6 29 18 19 28 14 22
  20688433.106   -14348899.003 8    -82885.050 9
  21069998.813    -8258895.598 8   -584776.582 8
  22378501.696      586299.209 7   -690313.249 5
  24683333.484     1308067.686 4   -657626.568 1
  22120204.681      130176.296 7    958628.080 5
  22326664.762    17229142.948 7    614117.535 6
 94  3 18 17 45 30.0000000  0  6 29 18 19 28 14 22
  20687303.128   -14354842.275 8    -87516.179 9
  21059070.389    -8316316.054 8   -629519.797 8
  22365890.566      520018.611 7   -741960.437 5
  24669199.858     1233742.346 4   -715542.371 1
  22136840.194      217586.541 7   1026739.920 5
  22339154.025    17294776.533 7    665260.552 6
 94  3 18 17 46  0.0000000  0  6 29 18 19 28 14 22
  20686273.251   -14360248.374 8    -91728.745 9
  21048234.930    -8373263.458 8   -673894.390 8
  22353355.524      454151.692 7   -793285.264 5
  24655131.228     1159805.879 4   -773155.081 1
  22153573.710      305531.669 7   1095268.562 5
  22351759.579    17361016.269 7    716875.913 6
 94  3 18 17 46 30.0000000  0  6 29 18 19 28 14 22
  20685349.291   -14365114.294 8    -95520.368 9
  21037487.820    -8429744.741 8   -717905.785 8
  22340897.439      388686.252 6   -844297.269 5
  24641133.978     1086245.847 4   -830474.475 1
  22170415.151      394020.298 7   1164220.714 5
  22364479.683    17427850.982 7    768954.872 6
 94  3 18 17 47  0.0000000  0  6 29 18 19 28 14 22
  20684529.178   -14369421.188 8    -98876.412 9
  21026831.338    -8485750.981 9   -761547.006 8
  22328514.391      323631.106 6   -894989.578 5
  24627191.170     1013053.561 4   -887507.344 1
  22187356.633      483056.846 7   1233599.806 5
  22377310.141    17495292.151 7    821506.382 6
 94  3 18 17 47 30.0000000  0  6 29 18 19 28 14 22
  20683815.492   -14373161.615 8   -101791.027 9
  21016264.583    -8541275.693 9   -804813.018 8
  22316217.084      258993.750 6   -945356.312 5
  24613344.326      940232.923 4   -944250.598 1
  22204401.842      572628.400 7   1303395.785 5
  22390259.346    17563336.870 7    874528.219 6
 94  3 18 17 48  0.0000000  0  7 27 29 18 19 28 14 22
  24749297.238     5005851.76014   -200701.764
  20683214.858   -14376340.305 8   -104267.941 9
  21005786.806    -8596322.497 9   -847706.632 8
  22303999.103      194796.353 6   -995380.228 5
  24599564.606      867789.062 4  -1000700.231 2
  22221546.374      662721.058 7   1373597.802 4
  22403328.978    17632000.009 7    928031.930 6
 94  3 18 17 48 30.0000000  0  7 27 29 18 19 28 14 22
  24732578.172     4918019.031 5   -269142.590 1
  20682711.267   -14378970.335 8   -106317.321 9
  20995406.702    -8650887.071 9   -890224.471 8
  22291868.271      131044.707 6  -1045056.805 5
  24585858.065      795738.508 5  -1056843.378 2
  22238784.830      753311.839 7   1444187.991 4
  22416510.793    17701293.884 7    982027.131 6
 94  3 18 17 49  0.0000000  0  7 27 29 18 19 28 14 22
  24715919.725     4830496.660 5   -337341.762 1
  20682306.787   -14381077.465 8   -107959.258 9
  20985112.849    -8704969.537 9   -932366.666 9
  22279822.130       67737.932 6  -1094386.738 5
  24572223.384      724090.213 5  -1112673.100 2
  22256114.632      844383.341 7   1515152.741 4
  22429816.301    17771216.062 7   1036511.907 6
 94  3 18 17 49 30.0000000  0  7 27 29 18 19 28 14 22
  24699337.185     4743269.010 5   -405311.307 1
  20682002.438   -14382692.258 8   -109217.542 9
  20974910.851    -8758584.696 9   -974144.699 9
  22267858.522        4857.305 7  -1143384.590 5
  24558658.674      652843.594 5  -1168189.816 2
  22273538.001      935931.773 7   1586489.147 4
  22443243.076    17841775.397 7   1091493.174 6
 94  3 18 17 50  0.0000000  0  7 27 29 18 19 28 14 22
  24682778.988     4656325.570 5   -473059.387 2
  20681789.525   -14383826.237 8   -110101.173 9
  20964793.725    -8811743.346 9  -1015567.021 9
  22255971.242      -57599.855 7  -1192052.489 5
  24545164.866      581998.978 4  -1223393.282 2
  22291048.608     1027957.338 7   1658197.331 4
  22456791.417    17912968.749 7   1146968.475 6
 94  3 18 17 50 30.0000000  0  7 27 29 18 19 28 14 22
  24666302.304     4569666.328 5   -540586.002 2
  20681664.482   -14384477.053 8   -110608.320 9
  20954764.019    -8864452.009 9  -1056638.716 9
  22244163.376     -119641.961 7  -1240396.959 5
  24531780.572      511548.985 5  -1278289.272 2
  22308650.982     1120462.813 7   1730279.484 4
  22470454.908    17984784.551 7   1202928.799 6
 94  3 18 17 51  0.0000000  0  7 27 29 18 19 28 14 22
  24649840.251     4483294.054 4   -607889.021 2
  20681630.725   -14384629.296 8   -110726.947 9
  20944815.616    -8916731.776 9  -1097376.180 9
  22232437.024     -181265.696 7  -1288415.431 5
  24518449.101      441481.397 5  -1332887.306 2
  22326347.731     1213460.188 7   1802744.924 4
  22484240.264    18057210.438 7   1259364.517 6
 94  3 18 17 51 30.0000000  0  7 27 29 18 19 28 14 22
  24633455.873     4397206.957 4   -674969.847 2
  20681701.836   -14384269.006 8   -110446.224 9
  20934949.506    -8968587.531 9  -1137783.264 9
  22220787.569     -242473.495 7  -1336109.797 5
  24505182.415      371791.074 5  -1387191.335 2
  22344139.124     1306950.141 7   1875594.184 4
  22498136.364    18130227.187 7   1316260.644 6
 94  3 18 17 52  0.0000000  0  7 27 29 18 19 28 14 22
  24617141.677     4311414.043 5   -741821.417 2
  20681870.139   -14383381.014 8   -109754.302 9
  20925161.072    -9020021.015 9  -1177861.310 9
  22209220.197     -303263.583 7  -1383478.661 5
  24492004.078      302490.456 5  -1441191.736 2
  22362021.774     1400927.100 7   1948822.938 4
  22512133.974    18203798.194 7   1373588.642 6
 94  3 18 17 52 30.0000000  0  7 27 29 18 19 28 14 22
  24600874.549     4225919.466 4   -808440.511 2
  20682144.060   -14381952.127 8   -108640.892 9
  20915457.180    -9071014.265 9  -1217596.299 9
  22197731.820     -363633.240 7  -1430519.933 5
  24478863.545      233589.192 5  -1494880.946 2
  22379997.090     1495393.123 7   2022432.756 4
  22526239.029    18277924.671 7   1431349.487 6
 94  3 18 17 53  0.0000000  0  7 27 29 18 19 28 14 22
  24584636.620     4140706.706 4   -874839.996 2
  20682515.682   -14379985.098 8   -107108.141 9
  20905838.909    -9121560.014 9  -1256982.593 9
  22186321.419     -423597.918 7  -1477245.640 5
  24465851.983      165095.109 5  -1548252.877 2
  22398065.552     1590338.691 7   2096416.267 4
  22540451.560    18352589.655 7   1489529.959 6
 94  3 18 17 53 30.0000000  0  7 27 29 18 19 28 14 22
  24568478.766     4055761.430 4   -941031.137 2
  20682990.314   -14377499.458 8   -105171.293 9
  20896306.378    -9171647.730 9  -1296011.982 9
  22174989.444     -483179.064 7  -1523672.498 5
  24452877.235       97006.835 4  -1601308.629 2
  22416223.411     1685748.981 7   2170761.885 4
  22554756.217    18427781.058 7   1548120.608 6
 94  3 18 17 54  0.0000000  0  7 27 29 18 19 28 14 22
  24552374.545     3971075.513 3  -1007020.146 2
  20683558.510   -14374516.705 8   -102847.090 9
  20886861.836    -9221275.584 9  -1334683.043 9
  22163713.710     -542388.881 7  -1569810.013 5
  24439992.965       29301.124 5  -1654066.253 2
  22434459.397     1781600.705 7   2245451.478 4
  22569163.523    18503486.621 7   1607111.914 6
 94  3 18 17 54 30.0000000  0  7 27 29 18 19 28 14 22
  24536306.658     3886629.919 5  -1072821.917 1
  20684219.253   -14371053.542 8   -100148.521 9
  20877508.731    -9270433.809 9  -1372988.143 9
  22152520.539     -601238.860 7  -1615667.124 5
  24427184.962      -38039.969 5  -1706539.743 2
  22452781.243     1877875.505 6   2320470.755 4
  22583668.921    18579704.733 7   1666502.618 6
 94  3 18 17 55  0.0000000  0  7 27 29 18 19 28 14 22
  24520281.372     3802433.643 5  -1138429.325 1
  20684965.646   -14367118.317 8    -97082.122 9
  20868241.157    -9319136.129 9  -1410938.005 9
  22141388.855     -659735.390 7  -1661248.817 5
  24414436.377     -105009.338 5  -1758723.593 2
  22471183.134     1974574.132 6   2395820.276 4
  22598266.476    18656431.081 7   1726289.333 6
 94  3 18 17 55 30.0000000  0  7 27 29 18 19 28 14 22
  24504302.614     3718491.617 4  -1203838.675 1
  20685801.078   -14362721.209 8    -93655.831 9
  20859057.435    -9367397.606 9  -1448544.349 9
  22130320.548     -717872.841 7  -1706550.738 5
  24401775.722     -171616.179 5  -1810625.009 2
  22489665.519     2071686.829 7   2471492.456 4
  22612964.161    18733665.416 7   1786471.875 6
 94  3 18 17 56  0.0000000  0  7 27 29 18 19 28 14 22
  24488382.795     3634782.928 5  -1269066.223 1
  20686729.265   -14357856.285 8    -89864.980 9
  20849954.507    -9415237.352 9  -1485822.076 9
  22119330.546     -775651.510 7  -1751573.048 5
  24389169.329     -237854.554 5  -1862239.281 2
  22508219.104     2169195.587 6   2547473.238 4
  22627760.837    18811398.983 7   1847043.454 6
 94  3 18 17 56 30.0000000  0  8 31 27 29 18 19 28 14 22
  24775530.727    20890969.49614   -736104.844 1
  24472489.838     3551298.312 5  -1334119.151 1
  20687746.641   -14352503.658 8    -85694.117 9
  20840925.867    -9462671.473 9  -1522783.719 9
  22108399.753     -833072.856 7  -1796316.946 5
  24376622.026     -303702.649 4  -1913549.395 2
  22526848.237     2267109.202 6   2623769.489 4
  22642647.152    18889647.142 7   1908016.017 6
 94  3 18 17 57  0.0000000  0  8 31 27 29 18 19 28 14 22
  24758724.272    20802752.829 3   -804844.926 1
  24456650.513     3468039.900 5  -1398995.825 1
  20688859.291   -14346656.151 8    -81137.630 9
  20831976.103    -9509712.525 9  -1559439.080 9
  22097546.157     -890127.521 7  -1840775.110 5
  24364174.403     -369167.927 5  -1964561.265 2
  22545560.114     2365415.086 6   2700371.426 4
  22657638.064    18968413.244 7   1969392.170 6
 94  3 18 17 57 30.0000000  0  8 31 27 29 18 19 28 14 22
  24741963.385    20714609.626 4   -873527.836 1
  24440879.181     3384994.414 5  -1463706.557 1
  20690069.583   -14340304.966 8    -76188.676 9
  20823100.478    -9556347.424 9  -1595777.966 9
  22086757.496     -946812.107 7  -1884944.895 5
  24351785.510     -434261.101 4  -2015283.161 2
  22564335.755     2464103.930 6   2777271.765 4
  22672727.367    19047703.439 7   2031176.704 6
 94  3 18 17 58  0.0000000  0  8 31 27 29 18 19 28 14 22
  24725218.867    20626557.466 5   -942139.807 1
  24425085.125     3302157.609 4  -1528254.683 1
  20691376.288   -14333448.896 8    -70846.301 9
  20814305.796    -9602564.147 9  -1631790.997 9
  22076042.314    -1003140.584 7  -1928837.215 5
  24339475.072     -498987.824 5  -2065719.559 2
  22583190.453     2563170.369 6   2854466.336 4
  22687912.125    19127512.184 7   2093365.297 6
 94  3 18 17 58 30.0000000  0  8 31 27 29 18 19 28 14 22
  24708470.961    20538600.269 4  -1010677.728 1
  24409364.938     3219539.770 4  -1592632.168 1
  20692769.364   -14326104.055 8    -65123.069 9
  20805590.080    -9648358.162 9  -1667474.640 9
  22065384.872    -1059123.216 7  -1972460.017 5
  24327225.192     -563376.640 5  -2115892.542 1
  22602109.575     2662607.471 6   2931949.745 4
  22703193.027    19207819.218 7   2155942.168 6
 94  3 18 17 59  0.0000000  0  8 31 27 29 18 19 28 14 22
  24691769.524    20450747.491 5  -1079134.286 1
  24393668.794     3137151.336 4  -1656830.923 1
  20694259.812   -14318285.949 8    -59031.048 9
  20796960.284    -9693717.818 9  -1702819.817 9
  22054797.611    -1114764.221 7  -2015816.629 5
  24315026.368     -627418.007 5  -2165794.875 2
  22621101.607     2762408.647 6   3009716.822 4
  22718564.375    19288600.929 7   2218888.904 6
 94  3 18 17 59 30.0000000  0  8 31 27 29 18 19 28 14 22
  24675073.962    20363011.905 4  -1147499.601 1
  24378067.985     3054996.674 4  -1720847.440 1
  20695836.900   -14309997.082 8    -52572.219 9
  20788410.503    -9738647.728 9  -1737830.139 9
  22044271.778    -1170083.863 7  -2058922.821 5
  24302914.243     -691094.409 5  -2215412.774 2
  22640168.737     2862590.237 6   3087780.328 4
  22734025.542    19369826.367 7   2282181.425 6
 94  3 18 18  0  0.0000000  0  8 31 27 29 18 19 28 14 22
  24658375.972    20275399.975 4  -1215768.575 1
  24362454.074     2973074.133 4  -1784683.168 1
  20697502.637   -14301242.914 8    -45750.809 9
  20779941.996    -9783161.643 9  -1772516.313 9
  22033802.186    -1225094.704 7  -2101788.416 5
  24290874.877     -754412.944 5  -2264751.840 2
  22659300.623     2963134.793 6   3166126.691 4
  22749560.997    19451465.229 6   2345796.075 6
 94  3 18 18  0 30.0000000  0  8 31 27 29 18 19 28 14 22
  24641745.944    20187891.992 4  -1283956.434 1
  24346935.018     2891377.383 4  -1848342.938 1
  20699258.522   -14292031.875 8    -38573.376 9
  20771546.098    -9827272.379 9  -1806888.304 9
  22023392.433    -1279795.629 7  -2144412.482 5
  24278888.755     -817366.297 5  -2313806.274 2
  22678501.970     3064038.118 6   3244752.592 4
  22765172.569    19533513.859 6   2409730.036 5
 94  3 18 18  1  0.0000000  0  8 31 27 29 18 19 28 14 22
  24625103.655    20100462.718 4  -1352082.979 1
  24331416.741     2809894.104 4  -1911836.317 2
  20701093.491   -14282376.706 8    -31049.899 9
  20763226.168    -9870998.764 9  -1840960.829 9
  22013038.980    -1334199.276 7  -2186804.925 5
  24266971.555     -879950.353 5  -2362572.988 2
  22697768.282     3165298.490 6   3323656.706 4
  22780862.627    19615973.998 6   2473984.633 5
 94  3 18 18  1 30.0000000  0  8 31 27 29 18 19 28 14 22
  24608477.705    20013102.407 4  -1420155.867 2
  24315944.212     2728607.416 4  -1975176.534 2
  20703012.043   -14272278.387 8    -23181.087 9
  20754977.828    -9914338.915 9  -1874732.367 9
  22002745.996    -1388295.867 7  -2228958.073 5
  24255124.747     -942188.394 5  -2411070.047 2
  22717107.054     3266902.587 6   3402828.673 4
  22796639.685    19698858.231 6   2538569.712 5
 94  3 18 18  2  0.0000000  0  8 31 27 29 18 19 28 14 22
  24591869.383    19925794.394 4  -1488187.987 1
  24300521.629     2647493.961 4  -2038381.788 2
  20705015.196   -14261761.829 8    -14986.373 9
  20746802.547    -9957294.079 9  -1908203.921 9
  21992511.951    -1442086.205 7  -2270872.606 5
  24243359.092    -1004098.404 5  -2459311.516 2
  22736496.731     3368820.581 6   3482245.226 4
  22812491.691    19782182.192 6   2603497.450 5
 94  3 18 18  2 30.0000000  0  8 31 27 29 18 19 28 14 22
  24575256.624    19838535.089 5  -1556182.153 1
  24285103.962     2566546.044 4  -2101458.005 2
  20707093.717   -14250842.903 8     -6478.151 9
  20738700.956    -9999867.999 9  -1941378.413 9
  21982331.089    -1495568.630 7  -2312547.207 5
  24231640.444    -1065666.612 5  -2507286.666 2
  22755954.940     3471051.409 6   3561905.538 4
  22828430.486    19865947.638 6   2668769.177 5
 94  3 18 18  3  0.0000000  0  8 31 27 29 18 19 28 14 22
  24558652.858    19751333.667 4  -1624131.130 1
  24269722.391     2485761.866 4  -2164406.683 2
  20709246.587   -14239516.636 8      2347.508 9
  20730674.073   -10042056.066 9  -1974252.230 9
  21972214.083    -1548743.279 7  -2353981.968 5
  24219991.679    -1126890.432 5  -2554993.406 2
  22775459.677     3573572.649 6   3641792.166 4
  22844455.383    19950142.865 6   2734375.817 5
 94  3 18 18  3 30.0000000  0  8 31 27 29 18 19 28 14 22
  24542071.637    19664215.277 4  -1692015.489 1
  24254395.621     2405140.893 4  -2227228.155 2
  20711482.229   -14227773.390 8     11498.065 9
  20722717.401   -10083855.442 9  -2006823.169 9
  21962153.587    -1601611.848 7  -2395178.237 5
  24208407.428    -1187765.367 5  -2602428.327 2
  22795024.283     3676367.791 6   3721892.188 4
  22860555.647    20034756.432 6   2800308.420 5
 94  3 18 18  4  0.0000000  0  8 31 27 29 18 19 28 14 22
  24525521.625    19577180.916 5  -1759834.329 1
  24239069.301     2324689.528 4  -2289917.493 2
  20713798.935   -14215612.422 8     20974.124 9
  20714835.558   -10125278.570 9  -2039100.933 9
  21952150.442    -1654192.633 7  -2436150.254 5
  24196885.355    -1248282.424 5  -2649584.413 2
  22814637.545     3779440.512 6   3802208.527 4
  22876728.041    20119765.048 6   2866548.890 5
 94  3 18 18  4 30.0000000  0  8 31 27 29 18 19 28 14 22
  24508974.850    19490231.938 5  -1827586.677 1
  24223790.019     2244416.655 4  -2352467.723 2
  20716194.127   -14203019.260 8     30786.968 9
  20707023.896   -10166328.885 9  -2071088.186 9
  21942197.603    -1706484.974 7  -2476897.527 5
  24185440.718    -1308437.096 5  -2696458.052 2
  22834305.939     3882787.794 6   3882738.808 4
  22892976.972    20205155.154 6   2933086.570 5
 94  3 18 18  5  0.0000000  0  8 31 27 29 18 19 28 14 22
  24492456.855    19403373.367 5  -1895268.539 1
  24208563.590     2164323.839 4  -2414877.663 2
  20718673.051   -14189990.927 8     40938.906 9
  20699286.492   -10206994.662 9  -2102775.797 9
  21932300.105    -1758490.750 7  -2517421.476 5
  24174071.628    -1368236.930 5  -2743055.257 2
  22854026.677     3986412.607 6   3963485.318 4
  22909303.309    20290929.036 6   2999923.320 5
 94  3 18 18  5 30.0000000  0  8 31 27 29 18 19 28 14 22
  24475924.230    19316606.510 5  -1962878.873 1
  24193368.400     2084409.225 5  -2477148.749 2
  20721235.767   -14176532.811 8     51425.732 9
  20691620.769   -10247281.457 9  -2134168.106 9
  21922457.768    -1810215.294 7  -2557726.291 5
  24162746.339    -1427688.511 5  -2789381.079 2
  22873798.049     4090332.936 6   4044462.121 4
  22925697.820    20377090.034 6   3067061.717 5
 94  3 18 18  6  0.0000000  0  8 31 27 29 18 19 28 14 22
  24459445.628    19229921.672 5  -2030425.370 1
  24178190.957     2004674.423 5  -2539279.661 2
  20723875.649   -14162648.486 8     62244.664 9
  20684026.187   -10287185.071 9  -2165261.840 9
  21912667.476    -1861654.269 7  -2597808.604 5
  24151497.556    -1486788.802 5  -2835433.219 2
  22893635.286     4194542.391 6   4125664.224 3
  22942170.366    20463635.245 6   3134499.501 5
 94  3 18 18  6 30.0000000  0  8 31 27 29 18 19 28 14 22
  24442956.293    19143325.608 5  -2097902.663 1
  24163036.718     1925110.194 5  -2601277.744 2
  20726595.457   -14148352.217 8     73384.590 9
  20676507.662   -10326705.129 9  -2196056.679 9
  21902934.084    -1912812.411 7  -2637672.070 5
  24140311.910    -1545540.029 5  -2881213.377 2
  22913508.378     4299022.510 6   4207077.212 3
  22958709.076    20550568.680 6   3202239.795 5
 94  3 18 18  7  0.0000000  0  8 31 27 29 18 19 28 14 22
  24426500.955    19056817.983 5  -2165311.034 1
  24147933.294     1845709.826 5  -2663148.077 2
  20729394.948   -14133643.594 8     84845.848 9
  20669059.048   -10365843.569 9  -2226554.177 9
  21893253.366    -1963699.868 7  -2677324.609 5
  24129212.694    -1603946.468 5  -2926724.834 2
  22933442.988     4403771.533 6   4288699.762 3
  22975325.403    20637877.653 6   3270272.703 5
 94  3 18 18  7 30.0000000  0  8 31 27 29 18 19 28 14 22
  24410045.797    18970390.626 5  -2232656.862 1
  24132852.444     1766472.100 5  -2724891.694 2
  20732273.196   -14118512.928 8     96635.953 9
  20661682.025   -10404610.651 9  -2256762.303 9
  21883613.839    -2014325.596 7  -2716773.214 5
  24118160.485    -1662003.121 5  -2971963.766 2
  22953424.935     4508779.770 6   4370524.271 3
  22992009.393    20725556.514 6   3338593.822 5
 94  3 18 18  8  0.0000000  0  8 31 27 29 18 19 28 14 22
  24393621.967    18884037.582 5  -2299944.818 1
  24117801.813     1687382.560 5  -2786519.865 2
  20735230.649   -14102962.492 8    108753.167 9
  20654375.963   -10443004.460 9  -2286679.548 9
  21874028.425    -2064697.705 7  -2756024.191 5
  24107176.149    -1719718.410 5  -3016936.739 2
  22973455.238     4614032.146 6   4452539.022 3
  23008763.594    20813591.930 6   3407192.805 5
 94  3 18 18  8 30.0000000  0  8 31 27 29 18 19 28 14 22
  24377198.407    18797759.360 5  -2367174.473 1
  24102770.399     1608424.542 5  -2848045.537 2
  20738271.383   -14086998.102 8    121192.938 9
  20647139.663   -10481024.480 9  -2316305.549 9
  21864492.867    -2114814.942 7  -2795076.575 5
  24096246.825    -1777098.162 5  -3061648.172 2
  22993533.838     4719532.923 6   4534747.369 3
  23025578.474    20901970.438 6   3476059.086 5
 94  3 18 18  9  0.0000000  0  8 31 27 29 18 19 28 14 22
  24360802.038    18711554.659 5  -2434346.824 1
  24087777.539     1529595.074 5  -2909471.030 2
  20741388.026   -14070611.110 8    133962.003 9
  20639974.293   -10518674.526 9  -2345643.253 9
  21855006.864    -2164670.604 7  -2833925.120 5
  24085406.330    -1834132.731 5  -3106090.655 2
  23013658.456     4825280.996 6   4617148.347 3
  23042464.134    20990688.729 6   3545190.159 5
 94  3 18 18  9 30.0000000  0  8 31 27 29 18 19 28 14 22
  24344402.011    18625442.286 5  -2501447.122 1
  24072797.809     1450897.941 5  -2970793.409 2
  20744585.103   -14053807.504 8    147055.719 9
  20632881.533   -10555952.152 9  -2374690.743 9
  21845571.286    -2214257.755 7  -2872564.427 6
  24074607.116    -1890814.302 5  -3150258.084 2
  23033823.636     4931268.572 6   4699736.017 3
  23059414.939    21079754.389 6   3614591.927 5
 94  3 18 18 10  0.0000000  0  8 31 27 29 18 19 28 14 22
  24328045.994    18539430.575 5  -2568469.209 1
  24057852.345     1372334.083 5  -3032011.940 2
  20747865.042   -14036593.883 8    160468.903 9
  20625857.906   -10592858.602 9  -2403449.029 9
  21836187.332    -2263572.217 7  -2910991.285 6
  24063898.140    -1947142.187 5  -3194149.914 2
  23054032.286     5037485.312 6   4782502.213 3
  23076422.585    21169150.841 6   3684251.419 5
 94  3 18 18 10 30.0000000  0  8 31 27 29 18 19 28 14 22
  24311695.523    18453517.841 5  -2635414.084 1
  24042935.302     1293916.958 5  -3093116.159 2
  20751215.283   -14018973.463 8    174199.095 9
  20618905.779   -10629396.587 9  -2431920.183 9
  21826853.534    -2312607.453 7  -2949200.536 6
  24053242.437    -2003102.077 5  -3237754.926 2
  23074290.761     5143917.191 6   4865436.069 3
  23093499.843    21258874.188 6   3754165.684 5
 94  3 18 18 11  0.0000000  0  8 31 27 29 18 19 28 14 22
  24295353.327    18367698.052 5  -2702286.544 1
  24028029.591     1215666.295 5  -3154090.641 2
  20754646.018   -14000933.682 8    188256.055 9
  20612026.591   -10665565.022 9  -2460103.383 9
  21817572.979    -2361385.618 7  -2987209.477 6
  24042653.917    -2058688.077 5  -3281068.587 2
  23094585.871     5250558.510 6   4948533.129 3
  23110634.721    21348928.883 6   3824338.093 5
 94  3 18 18 11 30.0000000  0  8 31 27 29 18 19 28 14 22
  24279043.148    18281972.183 5  -2769085.757 1
  24013196.490     1137590.494 5  -3214928.848 2
  20758160.305   -13982474.180 8    202640.078 9
  20605212.039   -10701355.707 9  -2487992.226 9
  21808339.910    -2409913.786 7  -3025023.612 6
  24032165.918    -2113914.453 5  -3324102.084 2
  23114918.455     5357414.226 6   5031797.225 3
  23127830.396    21439299.245 6   3894756.505 5
 94  3 18 18 12  0.0000000  0  8 31 27 29 18 19 28 14 22
  24262751.347    18196326.938 5  -2835822.238 1
  23998357.153     1059684.428 5  -3275634.832 2
  20761753.377   -13963600.948 8    217346.474 9
  20598472.374   -10736765.946 9  -2515584.628 9
  21799152.231    -2458191.319 7  -3062642.466 6
  24021720.249    -2168779.925 5  -3366854.367 2
  23135289.922     5464480.218 6   5115225.182 3
  23145085.341    21529974.496 6   3965412.496 4
 94  3 18 18 12 30.0000000  0  8 31 27 29 18 19 28 14 22
  24246467.040    18110772.098 5  -2902488.308 1
  23983560.716      981935.573 5  -3336218.308 2
  20765422.507   -13944316.992 8    232372.939 9
  20591810.087   -10771792.865 9  -2542878.325 9
  21790009.580    -2506225.215 7  -3100071.461 6
  24011349.499    -2223284.476 5  -3409325.329 2
  23155706.358     5571754.284 6   5198815.280 3
  23162399.974    21620960.354 6   4036310.511 4
 94  3 18 18 13  0.0000000  0  8 31 27 29 18 19 28 14 22
  24230210.105    18025333.324 5  -2969063.845 2
  23968787.214      904340.385 5  -3396681.979 2
  20769169.283   -13924617.826 8    247722.916 9
  20585213.543   -10806438.698 9  -2569875.077 9
  21780920.532    -2554015.087 7  -3137310.329 6
  24001049.109    -2277417.246 5  -3451506.671 2
  23176155.951     5679240.038 6   5282570.309 3
  23179773.157    21712261.014 6   4107453.825 4
 94  3 18 18 13 30.0000000  0  8 31 27 29 18 19 28 14 22
  24213965.880    17940026.146 4  -3035536.907 2
  23954054.003      826882.098 5  -3457039.052 2
  20772994.905   -13904518.035 8    263385.078 9
  20578694.376   -10840709.875 9  -2596579.893 9
  21771874.775    -2601535.699 7  -3174339.366 6
  23990815.424    -2331173.526 5  -3493394.603 2
  23196653.481     5786928.554 6   5366483.346 3
  23197208.337    21803871.622 6   4178838.668 5
 94  3 18 18 14  0.0000000  0  8 31 27 29 18 19 28 14 22
  24197778.676    17854851.707 5  -3101906.555 2
  23939340.789      749549.075 5  -3517298.490 2
  20776896.014   -13884024.422 8    279354.113 9
  20572244.761   -10874607.364 9  -2622993.520 9
  21762883.040    -2648777.768 7  -3211151.368 6
  23980656.597    -2384546.705 5  -3534984.035 2
  23217180.960     5894818.057 6   5450553.001 3
  23214701.437    21895788.330 6   4250462.026 5
 94  3 18 18 14 30.0000000  0  8 31 27 29 18 19 28 14 22
  24181570.577    17769809.795 4  -3168172.908 2
  23924648.800      672352.191 5  -3577451.855 2
  20780872.072   -13863125.842 8    295638.721 9
  20565863.169   -10908134.937 9  -2649118.888 9
  21753948.565    -2695748.468 7  -3247751.903 6
  23970574.037    -2437541.439 5  -3576278.627 2
  23237753.378     6002918.524 6   5534787.037 3
  23232244.902    21988003.788 6   4322318.173 5
 94  3 18 18 15  0.0000000  0  8 31 27 29 18 19 28 14 22
  24165417.610    17684882.049 4  -3234350.286 2
  23909978.396      595303.323 5  -3637489.907 2
  20784924.486   -13841828.983 8    312233.678 9
  20559554.756   -10941285.227 9  -2674950.282 9
  21745061.367    -2742442.689 7  -3284136.998 6
  23960550.986    -2490168.309 5  -3617286.528 2
  23258365.788     6111236.350 6   5619190.465 3
  23249846.586    22080503.734 6   4394396.013 5
 94  3 18 18 15 30.0000000  0  8 31 27 29 18 19 28 14 22
  24149263.952    17600043.527 4  -3300458.172 2
  23895352.482      518412.693 5  -3697404.600 2
  20789053.348   -13820136.092 8    329137.212 9
  20553322.401   -10974044.839 9  -2700477.254 9
  21736226.903    -2788862.180 8  -3320308.001 6
  23950620.690    -2542452.147 5  -3658027.144 2
  23279020.050     6219780.662 6   5703770.336 3
  23267505.111    22173288.078 6   4466695.434 5
 94  3 18 18 16  0.0000000  0  8 31 27 29 18 19 28 14 22
  24133145.521    17515292.170 4  -3366498.152 2
  23880746.683      441693.711 5  -3757185.572 2
  20793257.757   -13798033.872 8    346359.703 9
  20547163.884   -11006406.798 9  -2725694.357 9
  21727441.305    -2835032.685 7  -3356285.018 6
  23940739.951    -2594390.797 5  -3698498.796 2
  23299718.111     6328548.574 6   5788524.480 3
  23285219.608    22266372.115 6   4539228.405 5
 94  3 18 18 16 30.0000000  0  8 31 27 29 18 19 28 14 22
  24117017.796    17430621.288 4  -3432475.381 2
  23866191.160      365150.294 5  -3816829.762 2
  20797546.198   -13775514.451 8    363907.295 9
  20541077.828   -11038375.300 9  -2750604.870 9
  21718699.387    -2880977.107 7  -3392085.846 6
  23930926.964    -2645974.262 5  -3738693.728 2
  23320452.297     6437513.081 6   5873431.799 3
  23302993.253    22359768.365 6   4612004.664 5
 94  3 18 18 17  0.0000000  0  8 31 27 29 18 19 28 14 22
  24100933.811    17346056.291 4  -3498370.153 2
  23851659.230      288761.415 5  -3876353.536 2
  20801910.037   -13752573.177 8    381783.593 9
  20535072.175   -11069942.242 9  -2775202.479 9
  21709999.500    -2926687.809 7  -3427704.541 6
  23921166.201    -2697193.071 5  -3778604.454 2
  23341223.087     6546659.734 6   5958481.037 3
  23320822.151    22453485.165 6   4685030.680 5
 94  3 18 18 17 30.0000000  0  8 31 27 29 18 19 28 14 22
  24084876.897    17261624.810 4  -3564160.839 2
  23837146.127      212509.896 5  -3935770.251 2
  20806360.606   -13729189.022 8    400005.008 9
  20529141.621   -11101116.947 9  -2799494.464 9
  21701346.381    -2972175.484 7  -3463149.467 6
  23911486.682    -2748027.592 5  -3818215.745 2
  23362025.236     6655972.378 6   6043659.629 3
  23338721.799    22547526.301 6   4758309.473 5
 94  3 18 18 18  0.0000000  0  8 31 27 29 18 19 28 14 22
  24068843.816    17177338.427 5  -3629838.508 2
  23822648.614      136363.641 5  -3995104.963 2
  20810896.526   -13705352.541 8    418578.876 9
  20523282.117   -11131915.466 9  -2823493.298 9
  21692729.926    -3017446.491 7  -3498425.560 6
  23901894.583    -2798455.820 5  -3857510.470 2
  23382854.517     6765424.004 6   6128946.502 3
  23356675.170    22641872.867 6   4831826.192 5
 94  3 18 18 18 30.0000000  0  8 31 27 29 18 19 28 14 22
  24052823.926    17093206.455 5  -3695395.802 2
  23808184.557       60301.666 5  -4054374.029 2
  20815515.429   -13681075.439 8    437496.074 9
  20517492.436   -11162327.929 9  -2847191.327 9
  21684160.058    -3062484.172 8  -3533519.845 6
  23892382.408    -2848479.350 5  -3896489.811 2
  23403707.720     6875011.446 6   6214339.208 3
  23374682.954    22736500.021 6   4905561.571 5
 94  3 18 18 19  0.0000000  0  8 31 27 29 18 19 28 14 22
  24036848.196    17009243.387 5  -3760821.519 2
  23793716.183      -15677.791 5  -4113578.701 2
  20820217.733   -13656361.443 8    456753.730 9
  20511781.299   -11192342.893 9  -2870579.605 9
  21675636.509    -3107269.689 7  -3568417.632 6
  23882933.399    -2898095.794 5  -3935151.933 2
  23424592.432     6984748.912 6   6299848.843 3
  23392743.920    22831404.097 6   4979512.720 5
 94  3 18 18 19 30.0000000  0  8 31 27 29 18 19 28 14 22
  24020900.377    16925418.547 5  -3826139.517 2
  23779282.195      -91557.059 5  -4172705.366 2
  20825003.620   -13631228.794 8    476337.596 9
  20506143.702   -11221967.092 9  -2893663.394 9
  21667156.730    -3151818.828 7  -3603131.222 6
  23873568.542    -2947298.408 5  -3973491.661 2
  23445500.917     7094625.480 6   6385466.823 3
  23410852.824    22926573.855 6   5053670.927 5
 94  3 18 18 20  0.0000000  0  8 31 27 29 18 19 28 14 22
  24004990.181    16841724.972 5  -3891355.191 2
  23764861.908     -167313.519 5  -4231736.357 2
  20829859.868   -13605697.052 8    496232.459 9
  20500583.302   -11251187.728 9  -2916432.703 9
  21658729.234    -3196119.568 7  -3637651.254 6
  23864278.604    -2996087.322 5  -4011508.942 2
  23466430.268     7204645.156 6   6471196.375 3
  23429011.883    23022009.601 6   5128036.372 5
 94  3 18 18 20 30.0000000  0  8 31 27 29 18 19 28 14 22
  23989070.782    16758163.674 5  -3956467.814 2
  23750478.166     -242925.716 5  -4290654.897 2
  20834791.634   -13579786.728 8    516422.299 9
  20495100.697   -11279990.311 9  -2938876.285 9
  21650344.818    -3240178.049 7  -3671982.518 6
  23855077.883    -3044468.833 5  -4049208.839 2
  23487398.502     7314822.980 6   6557049.112 3
  23447222.745    23117706.900 6   5202605.630 5
 94  3 18 18 21  0.0000000  0  8 31 27 29 18 19 28 14 22
  23973195.452    16674737.992 5  -4021474.757 2
  23736119.606     -318369.065 5  -4349441.875 2
  20839792.352   -13553491.923 8    536911.747 9
  20489696.938   -11308392.998 9  -2961008.236 9
  21642008.130    -3283993.479 7  -3706124.396 6
  23845948.214    -3092435.298 5  -4086585.248 2
  23508402.532     7425172.711 6   6643035.836 3
  23465479.806    23213659.271 6   5277373.649 5
 94  3 18 18 21 30.0000000  0  8 31 27 29 18 19 28 14 22
  23957357.447    16591464.267 5  -4086363.273 2
  23721799.750     -393628.872 5  -4408085.820 2
  20844870.237   -13526811.086 8    557701.992 9
  20484366.118   -11336394.334 9  -2982827.464 9
  21633713.802    -3327563.647 7  -3740075.171 6
  23836932.555    -3139984.637 5  -4123636.680 2
  23529439.838     7535705.806 6   6729165.419 3
  23483787.172    23309857.034 6   5352332.857 5
 94  3 18 18 22  0.0000000  0  8 31 27 29 18 19 28 14 22
  23941530.263    16508370.431 5  -4151111.628 2
  23707515.389     -468711.283 5  -4466591.606 2
  20850023.099   -13499732.958 8    578801.818 9
  20479119.780   -11363987.694 9  -3004328.780 9
  21625472.687    -3370869.547 7  -3773820.017 6
  23827932.905    -3187122.237 5  -4160367.230 2
  23550501.067     7646435.303 6   6815448.030 3
  23502142.415    23406296.769 6   5427480.639 5
 94  3 18 18 22 30.0000000  0  8 31 27 29 18 19 28 14 22
  23925764.568    16425443.263 5  -4215730.070 2
  23693257.829     -543638.917 5  -4524976.683 2
  20855251.989   -13472267.808 8    600203.230 9
  20473940.746   -11391195.683 9  -3025529.797 9
  21617279.958    -3413934.296 7  -3807376.942 6
  23819063.815    -3233864.562 5  -4196789.788 2
  23571605.317     7757338.907 6   6901866.305 3
  23520533.274    23502949.933 6   5502794.735 5
 94  3 18 18 23  0.0000000  0  8 31 27 29 18 19 28 14 22
  23910017.459    16342684.957 5  -4280217.015 2
  23679029.409     -618413.771 5  -4583242.760 2
  20860550.671   -13444403.742 8    621915.486 9
  20468834.471   -11418022.531 9  -3046433.842 9
  21609136.216    -3456743.811 7  -3840735.000 6
  23810242.032    -3280209.292 5  -4232902.574 2
  23592748.870     7868402.279 6   6988409.090 3
  23538969.131    23599831.838 6   5578287.050 5
 94  3 18 18 23 30.0000000  0  8 31 27 29 18 19 28 14 22
  23894299.011    16260084.328 5  -4344581.032 2
  23664826.082     -693046.756 5  -4641398.317 2
  20865931.706   -13416139.455 8    643939.582 9
  20463805.452   -11444450.261 9  -3067026.878 9
  21601032.706    -3499306.256 7  -3873900.522 6
  23801469.116    -3326161.204 5  -4268709.217 2
  23613907.322     7979598.521 6   7075055.428 3
  23557448.068    23696962.193 6   5653973.005 5
 94  3 18 18 24  0.0000000  0  8 31 27 29 18 19 28 14 22
  23878600.349    16177632.875 5  -4408828.828 2
  23650644.310     -767545.083 5  -4699448.907 2
  20871387.029   -13387460.526 8    666286.788 9
  20458855.069   -11470474.999 9  -3087305.890 9
  21592983.878    -3541614.772 7  -3906868.186 6
  23792813.958    -3371709.434 5  -4304201.299 2
  23635088.769     8090904.388 6   7161787.167 3
  23575980.848    23794352.365 6   5729861.383 4
 94  3 18 18 24 30.0000000  0  8 31 27 29 18 19 28 14 22
  23862936.373    16095321.955 5  -4472967.145 2
  23636497.104     -841909.696 5  -4757395.325 2
  20876924.946   -13358358.933 8    688963.353 9
  20453977.896   -11496093.184 9  -3107268.119 9
  21584979.180    -3583679.905 7  -3939646.210 6
  23784219.028    -3416846.754 5  -4339373.228 2
  23656281.187     8202308.803 5   7248595.690 3
  23594566.601    23892011.179 6   5805959.085 4
 94  3 18 18 25  0.0000000  0  8 31 27 29 18 19 28 14 22
  23847301.806    16013155.643 5  -4536992.724 2
  23622368.125     -916152.289 5  -4815246.656 2
  20882545.185   -13328826.580 8    711975.559 9
  20449182.685   -11521299.434 9  -3126909.353 9
  21577019.270    -3625494.197 8  -3972228.779 6
  23775701.924    -3461575.434 5  -4374226.730 2
  23677506.973     8313808.739 5   7335478.665 2
  23613203.140    23989943.480 6   5882269.897 4
 94  3 18 18 25 30.0000000  0  8 31 27 29 18 19 28 14 22
  23831692.722    15931152.872 5  -4600890.924 2
  23608259.142     -990282.615 5  -4873010.486 2
  20888250.385   -13298860.325 8    735325.881 9
  20444462.483   -11546096.013 9  -3146231.359 9
  21569111.675    -3667060.733 7  -4004618.265 6
  23767280.784    -3505885.149 5  -4408753.727 2
  23698739.864     8425403.802 5   7422435.690 2
  23631892.231    24088132.355 6   5958780.644 4
 94  3 18 18 26  0.0000000  0  8 31 27 29 18 19 28 14 22
  23816141.498    15849340.505 5  -4664640.788 2
  23594177.891    -1064301.099 6  -4930687.165 2
  20894033.921   -13268452.477 8    759020.297 9
  20439824.124   -11570481.831 9  -3165233.300 9
  21561244.491    -3708375.911 7  -4036811.911 6
  23758927.457    -3549769.104 5  -4442949.010 2
  23719996.138     8537114.109 5   7509482.595 2
  23650620.146    24186561.148 6   6035478.356 4
 94  3 18 18 26 30.0000000  0  8 31 27 29 18 19 28 14 22
  23800605.654    15767721.669 5  -4728239.753 2
  23580110.639    -1138213.083 6  -4988280.878 2
  20899903.138   -13237618.285 8    783046.921 9
  20435261.553   -11594459.543 9  -3183917.223 9
  21553429.441    -3749462.425 8  -4068827.355 6
  23750653.755    -3593246.331 5  -4476827.334 2
  23741281.373     8648948.068 5   7596625.803 2
  23669395.369    24285218.178 6   6112353.874 4
 94  3 18 18 27  0.0000000  0  8 31 27 29 18 19 28 14 22
  23785104.375    15686309.248 5  -4791677.926 2
  23566068.930    -1212009.267 5  -5045784.347 2
  20905849.012   -13206368.011 8    807397.755 9
  20430774.139   -11618031.815 9  -3202285.235 9
  21545657.442    -3790314.959 8  -4100660.503 6
  23742454.641    -3636315.362 5  -4510387.545 2
  23762578.569     8760909.032 5   7683867.991 2
  23688211.303    24384100.840 6   6189405.234 4
 94  3 18 18 27 30.0000000  0  8 31 27 29 18 19 28 14 22
  23769653.731    15605104.561 5  -4854954.250 2
  23552051.624    -1285674.556 5  -5103185.829 2
  20911873.251   -13174709.693 8    832066.564 9
  20426364.342   -11641201.647 9  -3220339.647 9
  21537926.784    -3830937.419 7  -4132314.363 6
  23734337.250    -3678970.410 5  -4543625.215 2
  23783912.310     8873006.272 5   7771216.347 2
  23707069.118    24483205.999 6   6266629.947 4
 94  3 18 18 28  0.0000000  0  8 31 27 29 18 19 28 14 22
  23754237.504    15524088.887 5  -4918083.316 2
  23538066.006    -1359181.697 5  -5160464.054 3
  20917976.336   -13142646.154 8    857051.108 9
  20422035.669   -11663958.741 9  -3238072.444 9
  21530238.576    -3871334.725 8  -4163792.770 6
  23726303.562    -3721212.513 6  -4576541.112 2
  23805271.863     8985239.580 5   7858670.743 2
  23725970.582    24582538.598 6   6344031.913 4
 94  3 18 18 28 30.0000000  0  8 31 27 29 18 19 28 14 22
  23738857.851    15443247.944 5  -4981076.181 2
  23524102.932    -1432523.792 5  -5217613.716 3
  20924151.431   -13110191.153 8    882340.702 8
  20417783.772   -11686305.457 9  -3255485.484 9
  21522597.856    -3911499.432 8  -4195089.944 6
  23718351.177    -3763022.061 6  -4609119.925 2
  23826654.350     9097591.304 5   7946217.456 2
  23744920.703    24682095.426 6   6421608.608 4
 94  3 18 18 29  0.0000000  0  8 31 27 29 18 19 28 14 22
  23723507.218    15362592.661 5  -5043924.379 2
  23510183.179    -1505692.140 5  -5274627.963 3
  20930404.323   -13077334.246 8    907943.473 8
  20413608.383   -11708238.921 9  -3272576.503 9
  21515003.003    -3951410.592 8  -4226189.546 6
  23710485.073    -3804367.751 6  -4641337.323 2
  23848052.487     9210054.822 5   8033851.220 2
  23763901.703    24781861.427 6   6499348.314 4
 94  3 18 18 29 30.0000000  0  8 31 27 29 18 19 28 14 22
  23708197.177    15282132.129 5  -5106620.828 2
  23496295.713    -1578688.076 5  -5331507.840 3
  20936737.648   -13044055.192 8    933875.179 8
  20409516.486   -11729740.735 9  -3289331.161 9
  21507455.368    -3991067.704 8  -4257091.182 6
  23702700.692    -3845239.222 5  -4673185.153 2
  23869476.435     9322627.759 5   8121570.270 2
  23782932.948    24881839.078 6   6577252.896 4
 94  3 18 18 30  0.0000000  0  8 31 27 29 18 19 28 14 22
  23692919.183    15201869.307 5  -5169163.225 2
  23482429.053    -1651526.202 5  -5388264.784 3
  20943148.260   -13010348.855 8    960139.829 8
  20405510.749   -11750795.593 9  -3305737.556 9
  21499952.193    -4030480.626 8  -4287802.556 6
  23695017.701    -3885626.922 6  -4704656.042 2
  23890909.438     9435291.230 5   8209359.850 2
  23801997.770    24982027.078 5   6655321.410 4
 94  3 18 18 30 30.0000000  0  8 31 27 29 18 19 28 14 22
  23677684.450    15121816.998 5  -5231541.575 2
  23468595.699    -1724235.448 5  -5444921.281 3
  20949647.011   -12976206.518 8    986744.231 8
  20401588.025   -11771399.943 9  -3321792.898 9
  21492502.560    -4069651.851 8  -4318325.588 6
  23687411.306    -3925537.259 6  -4735754.959 2
  23912378.745     9548052.003 5   8297225.287 2
  23821098.447    25082430.504 5   6733557.751 3
 94  3 18 18 31  0.0000000  0  8 31 27 29 18 19 28 14 22
  23662500.262    15041974.694 5  -5293756.268 2
  23454780.783    -1796820.225 5  -5501480.829 3
  20956228.325   -12941618.765 8   1013695.706 8
  20397756.047   -11791545.807 9  -3337490.972 9
  21485090.132    -4108600.437 8  -4348675.113 6
  23679907.291    -3964998.118 6  -4766503.638 2
  23933841.966     9660912.400 5   8385168.309 2
  23840258.033    25183055.839 5   6811967.046 3
 94  3 18 18 31 30.0000000  0  8 31 27 29 18 19 28 14 22
  23647334.181    14962334.952 5  -5355813.172 2
  23440994.107    -1869274.237 5  -5557938.442 3
  20962895.799   -12906589.517 8   1040991.203 8
  20394011.130   -11811222.218 9  -3352823.255 9
  21477716.736    -4147341.985 8  -4378863.341 6
  23672482.871    -4004030.263 6  -4796918.238 3
  23955340.113     9773870.188 5   8473187.269 2
  23859433.778    25283921.168 5   6890563.340 3
 94  3 18 18 32  0.0000000  0  8 31 27 29 18 19 28 14 22
  23632222.932    14882896.058 5  -5417713.489 2
  23427232.524    -1941586.804 5  -5614285.846 3
  20969642.389   -12871131.533 8   1068620.788 8
  20390356.120   -11830437.447 9  -3367796.159 9
  21470385.222    -4185875.135 8  -4408889.148 6
  23665128.393    -4042634.141 6  -4826999.128 3
  23976861.104     9886925.524 5   8561282.166 2
  23878672.869    25385020.646 5   6969342.109 3
 94  3 18 18 32 30.0000000  0  8 31 27 29 18 19 28 14 22
  23617146.460    14803662.068 5  -5479454.237 2
  23413502.569    -2013740.222 5  -5670509.254 3
  20976471.511   -12835245.617 8   1096583.812 8
  20386786.731   -11849197.252 9  -3382414.198 9
  21463091.031    -4224196.391 8  -4438749.860 6
  23657860.404    -4080814.838 5  -4856750.329 3
  23998391.779    10000085.951 5   8649459.017 2
  23897954.111    25486340.308 5   7048292.403 3
 94  3 18 18 33  0.0000000  0  8 31 27 29 18 19 28 14 22
  23602112.138    14724636.779 5  -5541032.278 2
  23399803.253    -2085723.341 5  -5726599.970 3
  20983379.179   -12798942.330 8   1124872.068 8
  20383299.425   -11867513.482 9  -3396686.591 9
  21455841.870    -4262294.602 8  -4468436.781 6
  23650681.514    -4118552.331 5  -4886156.092 3
  24019951.474    10113337.720 5   8737707.043 2
  23917276.334    25587864.058 5   7127401.760 3
 94  3 18 18 33 30.0000000  0  8 31 27 29 18 19 28 14 22
  23587115.710    14645847.881 5  -5602426.169 2
  23386139.103    -2157542.009 6  -5782562.531 2
  20990370.429   -12762214.957 8   1153490.788 9
  20379895.222   -11885394.439 9  -3410619.803 9
  21448636.808    -4300142.359 8  -4497928.513 6
  23643595.739    -4155819.305 6  -4915195.257 3
  24041512.098    10226676.292 5   8826022.619 2
  23936640.948    25689588.278 5   7206667.316 3
 94  3 18 18 34  0.0000000  0  8 31 27 29 18 19 28 14 22
  23572175.343    14567314.542 5  -5663620.879 2
  23372496.597    -2229215.800 6  -5838412.181 2
  20997440.404   -12725057.808 8   1182444.387 9
  20376576.130   -11902850.940 9  -3424222.274 9
  21441487.387    -4337716.384 8  -4527206.976 6
  23636606.438    -4192594.407 5  -4943851.172 3
  24063087.741    10340107.783 5   8914410.700 2
  23956024.449    25791496.302 5   7286076.107 3
 94  3 18 18 34 30.0000000  0  8 31 27 29 18 19 28 14 22
  23557268.013    14489043.970 5  -5724610.884 2
  23358886.230    -2300761.652 6  -5894162.182 2
  21004595.521   -12687459.276 8   1211741.926 9
  20373334.324   -11919889.923 9  -3437499.409 9
  21434390.340    -4375008.267 8  -4556265.571 6
  23629684.710    -4228871.423 5  -4972118.946 3
  24084696.542    10453625.183 5   9002865.677 2
  23975449.951    25893585.509 5   7365626.058 3
 94  3 18 18 35  0.0000000  0  8 31 27 29 18 19 28 14 22
  23542427.866    14411050.007 5  -5785385.365 2
  23345289.293    -2372198.626 6  -5949827.300 2
  21011832.661   -12649425.833 8   1241378.346 9
  20370169.475   -11936519.798 9  -3450457.755 9
  21427355.051    -4412002.735 8  -4585092.412 6
  23622883.708    -4264652.124 5  -4999999.980 3
  24106320.032    10567216.842 5   9091378.525 2
  23994926.748    25995869.005 5   7445327.425 3
 94  3 18 18 35 30.0000000  0  8 31 27 29 18 19 28 14 22
  23527648.548    14333333.752 5  -5845943.418 2
  23331726.892    -2443521.608 6  -6005403.584 2
  21019153.893   -12610955.681 8   1271355.068 9
  20367081.823   -11952730.067 9  -3463089.135 9
  21420367.728    -4448718.928 8  -4613702.417 6
  23616167.068    -4299956.527 6  -5027509.897 3
  24127956.203    10680883.264 5   9179949.605 2
  24014417.485    26098341.132 5   7525175.770 3
 94  3 18 18 36  0.0000000  0  8 31 27 29 18 19 28 14 22
  23512903.586    14255875.661 5  -5906300.307 2
  23318174.744    -2514711.395 6  -6060876.106 2
  21026554.389   -12572059.026 8   1301664.117 9
  20364082.579   -11968511.068 9  -3475386.023 9
  21413425.614    -4485183.423 8  -4642116.294 6
  23609537.367    -4334797.561 6  -5054658.739 3
  24149586.349    10794636.582 5   9268588.435 2
  24033949.923    26200999.392 5   7605169.085 3
 94  3 18 18 36 30.0000000  0  8 31 27 29 18 19 28 14 22
  23498210.517    14178677.124 5  -5966454.956 2
  23304653.774    -2585745.626 6  -6116227.422 2
  21034036.969   -12532734.905 8   1332306.265 8
  20361160.022   -11983849.464 9  -3487338.024 9
  21406535.754    -4521412.986 8  -4670347.130 6
  23602999.224    -4369175.056 5  -5081446.379 3
  24171239.429    10908476.873 5   9357294.999 2
  24053519.505    26303855.748 5   7685316.862 3
 94  3 18 18 37  0.0000000  0  8 31 27 29 18 19 28 14 22
  23483573.061    14101736.919 5  -6026408.306 2
  23291165.572    -2656618.084 6  -6171452.669 2
  21041598.305   -12493001.594 8   1363267.272 8
  20358327.103   -11998736.310 9  -3498938.161 9
  21399680.909    -4557429.925 8  -4698412.259 6
  23596537.407    -4403086.525 5  -5107870.887 3
  24192925.366    11022395.152 5   9446062.366 2
  24073135.645    26406898.681 5   7765610.005 3
 94  3 18 18 37 30.0000000  0  8 31 27 29 18 19 28 14 22
  23468983.241    14025053.757 6  -6086161.343 2
  23277713.554    -2727314.573 6  -6226540.789 3
  21049241.453   -12452846.162 8   1394557.201 8
  20355584.242   -12013156.245 9  -3510174.473 9
  21392864.258    -4593246.512 8  -4726321.277 6
  23590173.323    -4436518.339 6  -5133921.630 3
  24214611.034    11136402.144 5   9534898.804 2
  24092779.006    26510123.788 5   7846045.065 3
 94  3 18 18 38  0.0000000  0  8 31 27 29 18 19 28 14 22
  23454443.037    13948631.717 6  -6145710.923 2
  23264286.959    -2797848.131 6  -6281501.970 3
  21056962.308   -12412264.402 8   1426179.321 8
  20352930.869   -12027109.309 9  -3521046.997 9
  21386091.707    -4628842.610 8  -4754058.473 6
  23583911.977    -4469454.469 6  -5159586.110 3
  24236352.402    11250487.160 5   9623796.095 2
  24112461.011    26613535.643 5   7926625.703 3
 94  3 18 18 38 30.0000000  0  8 31 27 29 18 19 28 14 22
  23439949.780    13872488.079 6  -6205043.554 2
  23250895.170    -2868232.055 6  -6336346.548 3
  21064764.497   -12371255.789 8   1458134.065 8
  20350363.746   -12040598.341 9  -3531557.938 9
  21379364.784    -4664195.270 8  -4781606.000 6
  23577738.201    -4501883.164 6  -5184855.190 3
  24258048.982    11364621.328 5   9712731.648 2
  24132155.936    26717125.062 5   8007344.685 3
 94  3 18 18 39  0.0000000  0  8 31 27 29 18 19 28 14 22
  23425517.831    13796610.670 6  -6264168.777 2
  23237533.720    -2938467.718 6  -6391075.596 3
  21072651.767   -12329821.134 8   1490420.776 8
  20347885.422   -12053624.848 9  -3541708.473 9
  21372684.808    -4699291.726 8  -4808953.872 6
  23571665.426    -4533813.237 6  -5209735.759 3
  24279779.079    11478794.611 5   9801697.698 2
  24151916.216    26820884.038 5   8088195.725 3
 94  3 18 18 39 30.0000000  0  8 31 27 29 18 19 28 14 22
  23411115.292    13720991.045 6  -6323093.115 2
  23224193.286    -3008555.073 6  -6445689.069 3
  21080614.824   -12287965.328 8   1523035.666 8
  20345492.179   -12066185.502 9  -3551495.993 9
  21366057.146    -4734116.732 8  -4836090.222 6
  23565687.684    -4565266.906 6  -5234245.060 3
  24301515.081    11593005.350 5   9890692.958 2
  24171687.769    26924817.688 5   8169182.925 3
 94  3 18 18 40  0.0000000  0  8 31 27 29 18 19 28 14 22
  23396776.339    13645631.059 6  -6381815.131 2
  23210881.571    -3078491.476 6  -6500184.950 3
  21088658.585   -12245693.102 8   1555975.025 8
  20343193.280   -12078283.943 9  -3560923.363 9
  21359480.509    -4768674.417 8  -4863018.276 6
  23559786.269    -4596240.812 6  -5258380.573 3
  24323255.041    11707237.332 5   9979704.752 2
  24191513.464    27028916.812 5   8250299.076 3
 94  3 18 18 40 30.0000000  0  8 31 27 29 18 19 28 14 22
  23382487.751    13570521.303 6  -6440342.168 2
  23197605.712    -3148271.697 6  -6554559.088 3
  21096782.691   -12203006.480 8   1589237.317 8
  20340978.534   -12089919.944 9  -3569990.378 9
  21352954.297    -4802976.238 8  -4889746.943 6
  23553973.264    -4626734.702 6  -5282141.989 3
  24344991.913    11821500.563 5  10068740.890 2
  24211340.328    27133173.836 5   8331538.204 3
 94  3 18 18 41  0.0000000  0  8 31 27 29 18 19 28 14 22
  23368245.151    13495660.809 6  -6498674.932 2
  23184357.074    -3217894.546 6  -6608810.630 3
  21104987.981   -12159899.159 8   1622827.420 8
  20338851.626   -12101084.177 9  -3578689.788 9
  21346473.234    -4837036.912 8  -4916287.700 6
  23548270.701    -4656745.714 6  -5305527.134 3
  24366755.136    11935810.207 5  10157813.205 2
  24231212.131    27237598.051 5   8412907.672 3
 94  3 18 18 41 30.0000000  0  8 31 27 29 18 19 28 14 22
  23354039.635    13421067.811 6  -6556799.309 2
  23171133.108    -3287375.978 6  -6662951.950 3
  21113272.236   -12116363.315 8   1656751.418 8
  20336817.294   -12111780.601 9  -3587024.673 9
  21340036.600    -4870865.744 8  -4942647.827 6
  23542663.323    -4686261.630 6  -5328526.501 3
  24388510.086    12050168.277 5  10246923.217 2
  24251113.194    27342183.071 5   8494402.441 3
 94  3 18 18 42  0.0000000  0  8 31 27 29 18 19 28 14 22
  23339901.812    13346753.775 6  -6614706.315 2
  23157936.964    -3356728.312 5  -6716992.707 3
  21121639.293   -12072380.738 8   1691023.546 8
  20334870.292   -12122025.886 9  -3595008.016 9
  21333638.010    -4904474.096 8  -4968836.143 6
  23537136.080    -4715260.296 6  -5351122.820 3
  24410277.117    12164574.784 5  10336071.010 2
  24271035.752    27446913.179 5   8576010.225 3
 94  3 18 18 42 30.0000000  0  8 31 27 29 18 19 28 14 22
  23325814.924    13272725.305 6  -6672390.792 2
  23144764.533    -3425958.802 6  -6770938.498 3
  21130094.490   -12027957.787 8   1725638.804 8
  20333004.384   -12131821.529 9  -3602640.994 9
  21327287.566    -4937848.229 8  -4994841.939 6
  23531716.702    -4743757.611 6  -5373328.457 3
  24432071.249    12279029.284 5  10425256.178 2
  24291010.443    27551789.040 5   8657731.593 3
 94  3 18 18 43  0.0000000  0  8 31 27 29 18 19 28 14 22
  23311786.316    13199001.341 6  -6729837.960 2
  23131615.546    -3495060.519 6  -6824783.930 3
  21138631.530   -11983096.353 8   1760595.741 8
  20331222.328   -12141165.788 9  -3609922.237 9
  21320981.312    -4970991.311 8  -5020667.704 7
  23526392.807    -4771755.673 6  -5395145.065 3
  24453859.086    12393515.762 5  10514466.276 2
  24310979.049    27656819.392 5   8739573.357 3
 94  3 18 18 43 30.0000000  0  8 31 27 29 18 19 28 14 22
  23297816.677    13125586.312 6  -6787044.418 2
  23118488.174    -3564033.151 6  -6878528.801 3
  21147247.625   -11937807.331 8   1795885.873 8
  20329530.479   -12150068.941 9  -3616859.753 9
  21314715.260    -5003910.066 8  -5046318.672 7
  23521147.728    -4799264.544 6  -5416580.475 3
  24475641.496    12508023.432 5  10603692.851 2
  24331004.826    27761990.919 5   8821525.134 3
 94  3 18 18 44  0.0000000  0  8 31 27 29 18 19 28 14 22
  23283906.697    13052469.075 6  -6844018.815 2
  23105388.892    -3632865.062 6  -6932164.011 3
  21155945.923   -11892100.700 8   1831501.390 8
  20327921.793   -12158524.981 9  -3623448.892 9
  21308496.335    -5036611.455 8  -5071800.277 7
  23516002.960    -4826287.252 6  -5437637.077 3
  24497455.594    12622537.400 5  10692924.369 2
  24351050.269    27867302.762 5   8903586.249 3
 94  3 18 18 44 30.0000000  0  8 31 27 29 18 19 28 14 22
  23270041.595    12979642.661 6  -6900766.618 2
  23092329.783    -3701544.655 6  -6985680.525 3
  21164717.761   -11845990.773 8   1867431.184 7
  20326396.838   -12166523.827 9  -3629681.754 9
  21302313.355    -5069096.371 8  -5097113.193 7
  23510953.975    -4852833.139 6  -5458322.104 3
  24519208.745    12737045.053 5  10782150.967 2
  24371106.354    27972761.931 5   8985762.130 3
 94  3 18 18 45  0.0000000  0  8 31 27 29 18 19 28 14 22
  23256236.183    12907100.501 6  -6957292.928 2
  23079285.753    -3770069.182 6  -7039076.213 3
  21173572.461   -11799463.748 7   1903685.991 7
  20324966.469   -12174050.885 9  -3635546.997 9
  21296170.428    -5101375.633 8  -5122265.872 7
  23506002.213    -4878887.048 6  -5478623.797 3
  24541008.663    12851549.143 5  10871374.754 2
  24391205.340    28078370.074 5   9068054.092 3
 94  3 18 18 45 30.0000000  0  8 31 27 29 18 19 28 14 22
  23242487.910    12834833.618 6  -7013604.719 2
  23066267.176    -3838453.791 6  -7092362.889 3
  21182508.225   -11752514.948 8   1940269.451 7
  20323624.687   -12181112.706 9  -3641049.717 9
  21290066.264    -5133442.321 8  -5147252.923 7
  23501127.678    -4904450.014 6  -5498542.919 3
  24562785.198    12966058.943 5  10960603.011 2
  24411333.376    28184114.341 5   9150452.169 3
 94  3 18 18 46  0.0000000  0  8 31 27 29 18 19 28 14 22
  23228788.414    12762837.907 6  -7069705.241 2
  23053285.892    -3906704.218 6  -7145545.020 3
  21191522.534   -11705142.252 8   1977183.225 7
  20322369.606   -12187712.201 9  -3646192.178 9
  21284007.188    -5165286.168 8  -5172066.265 7
  23496361.457    -4929524.247 5  -5518081.247 3
  24584607.600    13080578.328 5  11049838.739 2
  24431477.450    28289995.777 5   9232957.079 3
 94  3 18 18 46 30.0000000  0  8 31 27 29 18 19 28 14 22
  23215144.350    12691129.186 6  -7125582.110 2
  23040317.650    -3974834.096 6  -7198633.202 3
  21200621.805   -11657342.721 7   2014429.593 7
  20321201.705   -12193849.909 9  -3650974.799 9
  21277992.063    -5196900.827 8  -5196701.061 7
  23491685.954    -4954105.991 6  -5537235.817 3
  24606399.754    13195114.316 5  11139087.389 2
  24451654.892    28396011.069 5   9315566.318 3
 94  3 18 18 47  0.0000000  0  8 31 27 29 18 19 28 14 22
  23201550.531    12619721.972 6  -7181224.012 2
  23027372.012    -4042863.662 6  -7251643.203 3
  21209795.874   -11609114.045 7   2052010.362 7
  20320118.315   -12199529.091 9  -3655400.141 9
  21272021.456    -5228290.850 8  -5221160.818 7
  23487103.087    -4978193.707 6  -5556005.430 3
  24628202.370    13309673.758 5  11228354.333 2
  24471838.659    28502150.308 5   9398272.151 3
 94  3 18 18 47 30.0000000  0  8 31 27 29 18 19 28 14 22
  23188030.521    12548635.527 6  -7236615.993 2
  23014446.910    -4110793.958 6  -7304575.895 3
  21219053.705   -11560467.510 7   2089916.727 7
  20319126.032   -12204753.142 9  -3659470.817 9
  21266086.914    -5259459.294 8  -5245447.913 7
  23482613.245    -5001789.347 6  -5574391.615 3
  24649997.462    13424258.621 5  11317641.053 2
  24492084.393    28608406.809 5   9481069.319 3
 94  3 18 18 48  0.0000000  0  8 31 27 29 18 19 28 14 22
  23174563.603    12477880.132 6  -7291750.009 2
  23001543.962    -4178604.166 6  -7357415.005 3
  21228386.814   -11511408.629 7   2128144.414 7
  20318220.029   -12209507.907 9  -3663175.828 9
  21260199.410    -5290405.418 8  -5269561.769 7
  23478223.174    -5024878.543 6  -5592383.202 3
  24671802.956    13538860.294 5  11406940.875 2
  24512307.283    28714770.091 5   9563949.722 3
 94  3 18 18 48 30.0000000  0  8 31 27 29 18 19 28 14 22
  23161159.913    12407462.161 6  -7346621.106 2
  22988664.429    -4246291.192 6  -7410158.106 3
  21237801.706   -11461940.172 7   2166691.249 7
  20317407.202   -12213783.064 9  -3666507.121 9
  21254352.378    -5321133.506 8  -5293505.730 7
  23473929.847    -5047450.259 6  -5609971.503 3
  24693609.560    13653467.440 5  11496245.019 1
  24532562.850    28821231.023 5   9646906.211 4
 94  3 18 18 49  0.0000000  0  8 31 27 29 18 19 28 14 22
  23147823.106    12337381.085 6  -7401229.673 2
  22975805.461    -4313835.465 6  -7462789.989 3
  21247293.315   -11412068.922 7   2205551.931 7
  20316688.090   -12217578.956 9  -3669464.966 9
  21248546.747    -5351637.936 8  -5317275.401 7
  23469734.341    -5069504.617 6  -5627156.775 3
  24715426.896    13768079.375 5  11585552.791 1
  24552847.347    28927795.313 5   9729943.235 4
 94  3 18 18 49 30.0000000  0  8 31 27 29 18 19 28 14 22
  23134550.754    12267631.109 6  -7455580.236 2
  22962986.725    -4381214.609 6  -7515293.192 3
  21256861.461   -11361795.497 7   2244726.012 7
  20316053.879   -12220892.373 9  -3672046.848 9
  21242786.925    -5381903.075 8  -5340858.638 7
  23465633.300    -5091024.985 6  -5643925.861 3
  24737209.906    13882679.272 5  11674851.267 2
  24573131.215    29034461.626 5   9813059.752 4
 94  3 18 18 50  0.0000000  0  8 31 27 29 18 19 28 14 22
  23121341.059    12198200.422 6  -7509682.021 2
  22950195.750    -4448434.728 6  -7567672.468 3
  21266504.525   -11311117.784 7   2284215.106 7
  20315516.291   -12223738.569 9  -3674264.655 9
  21237074.229    -5411927.415 8  -5364254.219 7
  23461634.189    -5112001.015 6  -5660270.861 3
  24759027.722    13997254.166 5  11764130.247 1
  24593481.097    29141235.135 5   9896259.812 3
 94  3 18 18 50 30.0000000  0  8 31 27 29 18 19 28 14 22
  23108187.065    12129087.838 6  -7563535.896 3
  22937432.476    -4515507.035 6  -7619936.574 3
  21276224.756   -11260029.455 7   2324024.170 7
  20315059.257   -12226119.420 8  -3676119.862 9
  21231403.385    -5441716.425 8  -5387466.419 7
  23457749.958    -5132435.832 6  -5676194.091 3
  24780834.985    14111797.066 5  11853384.275 1
  24613794.525    29248138.725 5   9979561.200 4
 94  3 18 18 51  0.0000000  0  8 31 27 29 18 19 28 14 22
  23095096.777    12060287.766 6  -7617146.269 3
  22924698.132    -4582425.293 6  -7672080.643 3
  21286024.612   -11208534.920 7   2364149.753 7
  20314695.369   -12228041.364 9  -3677617.478 9
  21225782.487    -5471269.702 8  -5410494.952 7
  23453962.859    -5152326.833 6  -5691693.584 3
  24802623.061    14226292.469 5  11942601.252 1
  24634183.380    29355171.098 5  10062962.982 3
 94  3 18 18 51 30.0000000  0  7 31 27 29 18 19 28 22
  23082074.542    11991812.945 6  -7670503.226 3
  22911986.302    -4649197.731 6  -7724111.087 4
  21295901.634   -11156625.474 7   2404598.626 7
  20314418.721   -12229492.971 9  -3678748.596 9
  21220202.270    -5500587.594 8  -5433340.043 7
  23450285.815    -5171670.967 6  -5706766.948 4
  24654575.652    29462323.879 5  10146458.586 3
 94  3 18 18 52  0.0000000  0  7 31 27 29 18 19 28 22
  23069100.034    11923671.413 6  -7723600.486 3
  22899312.906    -4715831.667 6  -7776033.611 4
  21305858.431   -11104304.554 7   2445368.172 7
  20314230.511   -12230471.255 8  -3679510.899 9
  21214665.912    -5529678.801 8  -5456008.502 7
  23446706.803    -5190490.404 6  -5721431.475 3
  24674981.116    29569587.058 5  10230040.209 3
 94  3 18 18 52 30.0000000  0  7 31 27 29 18 19 28 22
  23056195.708    11855878.141 6  -7776426.328 3
  22886660.435    -4782315.581 6  -7827839.223 4
  21315896.172   -11051571.136 7   2486459.094 7
  20314135.357   -12230963.543 8  -3679894.504 9
  21209173.745    -5558544.482 8  -5478501.219 7
  23443223.034    -5208805.453 6  -5735702.944 4
  24695400.610    29676941.045 5  10313692.559 3
 94  3 18 18 53  0.0000000  0  7 31 27 29 18 19 28 22
  23043368.638    11788457.285 6  -7828962.026 3
  22874039.202    -4848642.654 6  -7879522.606 4
  21326009.941   -10998416.807 8   2527878.025 7
  20314136.556   -12230976.512 8  -3679904.621 9
  21203723.937    -5587181.974 8  -5500816.143 7
  23439829.504    -5226617.844 6  -5749582.742 4
  24715855.899    29784371.672 5  10397404.662 3
 94  3 18 18 53 30.0000000  0  7 31 27 29 18 19 28 22
  23030613.308    11721412.871 6  -7881204.395 3
  22861447.859    -4914827.801 6  -7931095.390 4
  21336206.332   -10944831.108 8   2569633.087 7
  20314223.466   -12230516.359 8  -3679546.065 9
  21198313.523    -5615604.510 8  -5522963.558 7
  23436538.052    -5243930.974 6  -5763073.515 4
  24736310.768    29891878.692 5  10481176.257 3
 94  3 18 18 54  0.0000000  0  7 31 27 29 18 19 28 22
  23017922.554    11654732.079 6  -7933163.393 3
  22848874.353    -4980863.069 6  -7982551.398 4
  21346486.485   -10890803.594 8   2611732.409 7
  20314400.613   -12229584.834 8  -3678820.212 9
  21192945.469    -5643819.806 8  -5544949.488 7
  23433341.185    -5260738.057 6  -5776169.942 4
  24756782.666    29999466.788 5  10565011.027 3
 94  3 18 18 54 30.0000000  0  7 31 27 29 18 19 28 22
  23005298.323    11588402.879 6  -7984848.411 3
  22836334.155    -5046759.242 6  -8033899.013 4
  21356852.739   -10836338.641 7   2654172.596 7
  20314664.221   -12228191.600 8  -3677734.583 9
  21187615.609    -5671829.117 8  -5566774.921 8
  23430240.222    -5277021.652 6  -5788858.447 4
  24777265.086    30107143.988 4  10648915.320 3
 94  3 18 18 55  0.0000000  0  7 31 27 29 18 19 28 22
  22992740.257    11522409.408 6  -8036271.817 3
  22823823.066    -5112537.567 6  -8085154.792 4
  21367295.319   -10781444.696 7   2696947.070 7
  20315021.933   -12226331.766 8  -3676285.368 9
  21182326.610    -5699625.243 8  -5588434.217 8
  23427246.435    -5292762.421 6  -5801123.992 4
  24797755.481    30214918.615 4  10732895.460 3
 94  3 18 18 55 30.0000000  0  7 31 27 29 18 19 28 22
  22980246.346    11456735.279 6  -8087446.393 3
  22811324.179    -5178204.163 6  -8136323.520 4
  21377825.110   -10726133.291 7   2740046.827 7
  20315463.737   -12223983.506 8  -3674455.572 9
  21177083.660    -5727198.941 8  -5609920.198 8
  23424367.588    -5307949.867 6  -5812958.343 4
  24818298.220    30322790.413 4  10816951.366 3
 94  3 18 18 56  0.0000000  0  7 31 27 29 18 19 28 22
  22967815.812    11391394.819 6  -8138361.006 3
  22798855.391    -5243743.126 6  -8187392.824 4
  21388425.501   -10670417.457 7   2783461.741 7
  20316006.122   -12221138.637 8  -3672238.808 9
  21171879.533    -5754529.389 8  -5631216.639 8
  23421573.342    -5322584.209 6  -5824361.713 4
  24838857.027    30430755.514 4  10901079.883 3
 94  3 18 18 56 30.0000000  0  7 31 27 29 18 19 28 22
  22955439.600    11326407.842 6  -8189000.111 3
  22786403.601    -5309153.715 6  -8238362.077 4
  21399102.160   -10614311.991 7   2827180.246 7
  20316642.101   -12217802.139 8  -3669638.946 9
  21166724.751    -5781603.192 8  -5652313.098 8
  23418893.288    -5336673.576 6  -5835340.427 4
  24859402.044    30538815.727 4  10985282.567 3
 94  3 18 18 57  0.0000000  0  7 31 27 29 18 19 28 22
  22943148.649    11261800.708 6  -8239343.266 3
  22773984.728    -5374420.676 6  -8289219.402 4
  21409855.146   -10557802.576 7   2871213.520 7
  20317373.235   -12213970.104 8  -3666652.967 9
  21161624.082    -5808421.225 8  -5673210.255 8
  23416306.828    -5350227.150 6  -5845901.636 4
  24879991.430    30646966.065 4  11069555.511 3
 94  3 18 18 57 30.0000000  0  7 31 27 29 18 19 28 22
  22930927.159    11197594.030 6  -8289374.377 3
  22761599.013    -5439518.532 6  -8339944.958 4
  21420687.007   -10500885.486 7   2915564.485 7
  20318192.988   -12209654.923 8  -3663290.490 9
  21156566.164    -5834990.954 8  -5693913.919 8
  23413838.067    -5363242.944 6  -5856043.811 4
  24900604.440    30755202.843 4  11153895.789 2
 94  3 18 18 58  0.0000000  0  7 31 27 29 18 19 28 22
  22918789.522    11133792.567 6  -8339089.731 3
  22749241.688    -5504445.930 6  -8390537.717 4
  21431596.365   -10443559.929 7   2960233.712 7
  20319102.168   -12204871.108 8  -3659562.860 9
  21151555.223    -5861321.515 8  -5714431.241 8
  23411458.435    -5375725.108 6  -5865770.147 4
  24921186.212    30863522.699 4  11238300.750 2
 94  3 18 18 58 30.0000000  0  7 31 27 29 18 19 28 22
  22906722.366    11070391.750 6  -8388492.895 3
  22736915.031    -5569225.209 6  -8441015.039 4
  21442584.328   -10385819.959 7   3005225.868 7
  20320100.897   -12199608.506 8  -3655462.148 9
  21146590.660    -5887425.334 8  -5734771.874 8
  23409178.543    -5387663.421 6  -5875072.710 4
  24941845.150    30971916.681 5  11322763.550 2
 94  3 18 18 59  0.0000000  0  7 31 27 29 18 19 28 22
  22894730.608    11007384.394 6  -8437589.490 3
  22724611.789    -5633868.406 6  -8491386.324 4
  21453651.166   -10327666.485 7   3050540.225 7
  20321201.645   -12193852.926 8  -3650977.285 9
  21141661.472    -5913312.532 8  -5754943.703 8
  23407017.609    -5399038.107 6  -5883936.071 4
  24962462.417    31080369.184 4  11407271.985 2
 94  3 18 18 59 30.0000000  0  6 31 27 29 18 19 28
  22882814.487    10944756.009 6  -8486390.784 3
  22712338.315    -5698385.332 6  -8541659.240 4
  21464790.165   -10269116.365 7   3096163.656 7
  20322390.772   -12187591.838 8  -3646098.530 9
  21136778.063    -5938988.974 8  -5774951.319 8
  23404958.604    -5409852.505 6  -5892362.865 4
 94  3 18 19  0  0.0000000  0  6 31 27 29 18 19 28
  22870972.295    10882501.222 6  -8534900.961 3
  22700080.221    -5762788.753 6  -8591843.693 4
  21476010.227   -10210161.898 7   3142102.177 7
  20323675.952   -12180817.046 8  -3640819.483 9
  21131934.226    -5964449.181 8  -5794790.442 8
  23402998.921    -5420126.468 6  -5900368.527 4
 94  3 18 19  0 30.0000000  0  6 31 27 29 18 19 28
  22859197.257    10820625.021 6  -8583116.163 3
  22687850.008    -5827059.957 6  -8641925.119 4
  21487307.007   -10150791.405 7   3188364.866 7
  20325067.888   -12173522.650 8  -3635135.555 9
  21127132.091    -5989684.985 8  -5814454.703 8
  23401152.559    -5429864.970 6  -5907956.997 4
 94  3 18 19  1  0.0000000  0  6 31 27 29 18 19 28
  22847485.625    10759113.819 6  -8631046.926 3
  22675651.483    -5891177.842 6  -8691887.057 4
  21498683.471   -10091003.523 7   3234952.808 7
  20326553.240   -12165728.774 8  -3629062.419 9
  21122368.209    -6014702.817 8  -5833949.111 8
  23399401.172    -5439084.501 6  -5915141.023 4
 94  3 18 19  1 30.0000000  0  6 31 27 29 18 19 28
  22835852.508    10697963.016 6  -8678696.868 3
  22663481.708    -5955129.537 6  -8741719.514 4
  21510143.757   -10030786.683 7   3281874.991 7
  20328125.082   -12157455.660 8  -3622615.848 9
  21117650.195    -6039504.478 8  -5853275.074 8
  23397739.692    -5447801.326 6  -5921933.343 4
 94  3 18 19  2  0.0000000  0  6 31 27 29 18 19 28
  22824288.224    10637183.927 6  -8726057.180 3
  22651342.032    -6018917.525 6  -8791424.406 4
  21521687.326    -9970133.375 7   3329137.261 6
  20329788.300   -12148711.872 8  -3615802.513 9
  21112970.315    -6064088.764 8  -5872431.656 8
  23396172.587    -5455991.713 6  -5928315.457 4
 94  3 18 19  2 30.0000000  0  6 31 27 29 18 19 28
  22812799.248    10576784.740 6  -8773121.424 3
  22639230.237    -6082550.115 6  -8841008.206 4
  21533306.352    -9909058.688 7   3376727.903 6
  20331544.994   -12139497.647 8  -3608622.615 9
  21108333.335    -6088458.999 8  -5891421.436 8
  23394732.863    -5463635.908 6  -5934271.980 4
 94  3 18 19  3  0.0000000  0  6 31 27 29 18 19 28
  22801371.699    10516788.964 6  -8819871.352 3
  22627150.670    -6146058.562 6  -8890495.269 4
  21545005.033    -9847579.960 7   3424633.396 7
  20333385.480   -12129817.470 8  -3601079.624 9
  21103733.050    -6112628.581 8  -5910254.864 8
  23393375.493    -5470725.793 6  -5939796.558 4
 94  3 18 19  3 30.0000000  0  6 31 27 29 18 19 28
  22790043.891    10457233.579 6  -8866278.098 3
  22615081.145    -6209460.945 6  -8939899.691 4
  21556780.222    -9785711.773 7   3472842.329 6
  20335319.681   -12119650.667 8  -3593157.452 9
  21099173.476    -6136587.252 8  -5928923.947 8
  23392132.224    -5477249.756 6  -5944880.164 4
 94  3 18 19  4  0.0000000  0  6 31 27 29 18 19 28
  22778794.898    10398134.349 6  -8912329.424 3
  22603035.304    -6272768.737 6  -8989230.402 4
  21568624.002    -9723469.345 7   3521342.897 7
  20337351.135   -12108981.155 8  -3584843.556 9
  21094656.053    -6160331.192 8  -5947425.697 8
  23391002.366    -5483205.911 6  -5949521.310 4
 94  3 18 19  4 30.0000000  0  6 31 27 29 18 19 28
  22767636.173    10339484.851 6  -8958030.307 3
  22591009.490    -6335969.238 6  -9038477.506 5
  21580540.633    -9660853.175 7   3570134.691 7
  20339478.222   -12097804.815 8  -3576134.715 9
  21090178.473    -6183864.380 8  -5965763.220 8
  23389976.806    -5488621.130 6  -5953740.952 4
 94  3 18 19  5  0.0000000  0  6 31 27 29 18 19 28
  22756559.382    10281270.767 6  -9003391.869 3
  22579001.333    -6399059.134 6  -9087638.441 5
  21592527.534    -9597861.037 7   3619219.445 7
  20341700.734   -12086120.214 8  -3567029.843 9
  21085738.187    -6207200.512 8  -5983947.207 8
  23389045.261    -5493505.373 6  -5957546.812 4
 94  3 18 19  5 30.0000000  0  6 31 27 29 18 19 28
  22745557.538    10223453.876 6  -9048443.957 3
  22567019.078    -6462024.980 6  -9136702.692 5
  21604588.814    -9534478.069 7   3668608.722 6
  20344018.849   -12073932.877 8  -3557533.220 9
  21081333.666    -6230340.775 8  -6001978.565 8
  23388229.436    -5497868.017 6  -5960946.303 4
 94  3 18 19  6  0.0000000  0  6 31 27 29 18 19 28
  22734624.107    10166018.091 6  -9093199.099 3
  22555060.027    -6524858.981 6  -9185664.225 5
  21616726.542    -9470682.209 7   3718319.748 6
  20346431.698   -12061259.827 8  -3547658.125 9
  21076968.808    -6253285.132 8  -6019857.276 8
  23387492.306    -5501707.083 6  -5963937.775 4
 94  3 18 19  6 30.0000000  0  6 31 27 29 18 19 28
  22723771.710    10108950.620 6  -9137667.215 3
  22543132.304    -6587562.079 6  -9234523.744 5
  21628945.513    -9406476.701 7   3768349.991 6
  20348934.426   -12048116.292 8  -3537416.419 9
  21072641.094    -6276033.118 8  -6037582.950 8
  23386854.408    -5505022.092 6  -5966520.868 4
 94  3 18 19  7  0.0000000  0  6 31 27 29 18 19 28
  22712980.081    10052272.457 6  -9181831.995 3
  22531219.271    -6650142.014 6  -9283287.296 5
  21641240.691    -9341863.655 7   3818697.768 6
  20351525.472   -12034509.922 8  -3526814.075 9
  21068350.914    -6298574.849 8  -6055147.912 8
  23386320.897    -5507788.061 6  -5968676.165 4
 94  3 18 19  7 30.0000000  0  6 31 27 29 18 19 28
  22702275.961     9996008.122 6  -9225674.287 3
  22519341.434    -6712584.022 6  -9331943.364 5
  21653615.854    -9276843.336 7   3869362.931 6
  20354202.409   -12020435.893 8  -3515847.291 9
  21064106.213    -6320894.254 8  -6072539.645 8
  23385909.192    -5509999.066 6  -5970399.020 4
 94  3 18 19  8  0.0000000  0  6 31 27 29 18 19 28
  22691649.818     9940189.641 6  -9269169.194 3
  22507482.784    -6774884.495 6  -9380489.143 5
  21666060.029    -9211440.643 7   3920326.067 6
  20356971.112   -12005888.302 8  -3504511.512 9
  21059899.585    -6342984.902 8  -6089753.131 8
  23385584.697    -5511649.568 6  -5971685.104 4
 94  3 18 19  8 30.0000000  0  6 31 27 29 18 19 28
  22681116.730     9884825.786 6  -9312309.799 3
  22495661.008    -6837019.564 6  -9428906.035 5
  21678577.353    -9145663.851 7   3971580.654 6
  20359829.124   -11990850.319 8  -3492793.605 9
  21055738.436    -6364844.818 8  -6106786.812 8
  23385390.431    -5512734.219 6  -5972530.274 4
 94  3 18 19  9  0.0000000  0  6 31 27 29 18 19 28
  22670671.481     9829927.431 6  -9355087.708 3
  22483867.383    -6898988.387 6  -9477193.399 5
  21691167.587    -9079504.016 7   4023133.753 6
  20362787.236   -11975307.962 8  -3480682.693 9
  21051622.165    -6386481.652 8  -6123646.666 8
  23385289.131    -5513254.214 6  -5972935.477 4
 94  3 18 19  9 30.0000000  0  6 31 27 29 18 19 28
  22660312.272     9775482.221 6  -9397512.510 3
  22472110.272    -6960788.299 6  -9525349.130 5
  21703828.272    -9012961.449 7   4074985.068 6
  20365840.292   -11959256.932 8  -3468175.392 9
  21047547.896    -6407894.522 8  -6140332.020 8
  23385289.611    -5513221.935 6  -5972910.320 4
 94  3 18 19 10  0.0000000  0  7 31 27 29 18 19 28  2
  22650034.847     9721476.606 6  -9439594.759 3
  22460376.485    -7022433.165 6  -9573384.069 5
  21716566.634    -8946031.332 7   4127138.368 6
  20368994.079   -11942701.893 8  -3455275.378 9
  21043509.751    -6429096.598 8  -6156853.103 8
  23385400.594    -5512635.263 6  -5972453.180 4
  24901507.715     1175662.61014   -180900.958
 94  3 18 19 10 30.0000000  0  7 31 27 29 18 19 28  2
  22639832.790     9667893.121 6  -9481348.108 3
  22448671.058    -7083930.416 6  -9621303.961 5
  21729377.365    -8878704.908 7   4179600.476 6
  20372237.923   -11925636.098 8  -3441977.347 9
  21039517.745    -6450095.321 8  -6173215.738 8
  23385612.248    -5511493.413 6  -5971563.435 4
  24883687.751     1082061.790 4   -253836.570 1
 94  3 18 19 11  0.0000000  0  7 31 27 29 18 19 28  2
  22629719.501     9614739.059 6  -9522766.795 3
  22436997.140    -7145308.531 7  -9669131.020 5
  21742264.813    -8810980.499 7   4232372.700 6
  20375583.667   -11908062.075 8  -3428283.308 9
  21035559.915    -6470889.217 8  -6189418.770 8
  23385947.415    -5509793.511 6  -5970238.841 4
  24865897.467      988574.038 4   -326684.128 1
 94  3 18 19 11 30.0000000  0  7 31 27 29 18 19 28  2
  22619688.416     9562011.457 6  -9563853.214 3
  22425339.920    -7206558.944 7  -9716858.580 5
  21755228.409    -8742860.757 7   4285452.980 6
  20379022.017   -11889985.490 8  -3414197.666 9
  21031641.568    -6491479.005 8  -6205462.745 8
  23386369.403    -5507523.345 6  -5968469.883 4
  24848130.028      895208.458 4   -399436.524 1
 94  3 18 19 12  0.0000000  0  7 31 27 29 18 19 28  2
  22609733.897     9509720.166 6  -9604599.631 3
  22413711.900    -7267678.917 7  -9764484.510 5
  21768268.691    -8674337.809 7   4338847.431 6
  20382560.227   -11871401.884 8  -3399716.937 9
  21027760.574    -6511866.078 8  -6221348.781 8
  23386921.951    -5504671.288 6  -5966247.529 4
  24830388.430      801971.230 4   -472088.859 1
 94  3 18 19 12 30.0000000  0  7 31 27 29 18 19 28  2
  22599867.008     9457877.232 6  -9644996.648 3
  22402102.407    -7328667.033 7  -9812007.687 5
  21781381.254    -8605418.110 7   4392551.054 6
  20386192.123   -11852313.528 8  -3384842.907 9
  21023924.280    -6532040.058 8  -6237068.760 8
  23387569.173    -5501241.991 6  -5963575.345 4
  24812669.976      708879.826 4   -544627.549 2
 94  3 18 19 13  0.0000000  0  7 31 27 29 18 19 28  2
  22590094.913     9406497.498 6  -9685032.759 3
  22390523.403    -7389522.557 7  -9859427.524 5
  21794575.120    -8536105.997 7   4446560.469 6
  20389919.982   -11832724.773 8  -3369578.931 9
  21020124.770    -6551996.548 8  -6252619.266 8
  23388335.262    -5497235.470 6  -5960453.410 4
  24794993.763      615946.680 5   -617042.963 2
 94  3 18 19 13 30.0000000  0  7 31 27 29 18 19 28  2
  22580406.940     9355586.098 6  -9724703.913 3
  22378968.892    -7450221.049 7  -9906725.012 5
  21807836.409    -8466399.184 7   4500877.408 6
  20393749.381   -11812619.349 8  -3353912.382 9
  21016370.949    -6571729.504 8  -6267995.585 8
  23389210.267    -5492653.407 6  -5956882.956 4
  24777344.561      523178.328 5   -689329.951 2
 94  3 18 19 14  0.0000000  0  7 31 27 29 18 19 28  2
  22570810.553     9305151.330 6  -9764003.666 3
  22367450.776    -7510771.031 7  -9953906.795 5
  21821173.816    -8396304.378 7   4555496.713 6
  20397672.345   -11791991.853 8  -3337839.015 9
  21012660.928    -6591227.859 8  -6283189.115 8
  23390182.614    -5487514.238 6  -5952878.438 4
  24759718.863      430572.443 5   -761490.336 2
 94  3 18 19 14 30.0000000  0  7 31 27 29 18 19 28  2
  22561303.085     9255181.578 6  -9802941.040 3
  22355957.273    -7571170.907 7 -10000971.606 5
  21834586.171    -8325833.357 7   4610409.150 6
  20401694.511   -11770846.285 8  -3321361.953 9
  21008997.464    -6610480.031 8  -6298190.808 8
  23391261.776    -5481823.249 6  -5948443.895 4
  24742126.292      338120.604 5   -833530.696 2
 94  3 18 19 15  0.0000000  0  7 31 27 29 18 19 28  2
  22551878.449     9205670.470 6  -9841521.066 3
  22344490.361    -7631428.550 7 -10047925.565 5
  21848066.039    -8254986.189 7   4665614.673 6
  20405816.028   -11749191.992 8  -3304488.493 9
  21005379.149    -6629497.034 8  -6313009.258 8
  23392455.610    -5475583.231 6  -5943581.557 4
  24724558.514      245811.791 5   -905459.582 2
 94  3 18 19 15 30.0000000  0  7 31 27 29 18 19 28  2
  22542542.882     9156623.207 6  -9879739.647 3
  22333055.078    -7691543.505 7 -10094768.359 5
  21861625.172    -8183756.378 7   4721118.386 6
  20410030.300   -11727044.184 8  -3287230.454 9
  21001804.993    -6648278.275 8  -6327643.963 9
  23393753.112    -5468789.698 6  -5938287.905 4
  24707014.570      153646.853 5   -977276.353 2
 94  3 18 19 16  0.0000000  0  7 31 27 29 18 19 28  2
  22533297.733     9108037.352 6  -9917598.681 3
  22321637.512    -7751528.596 7 -10141509.962 5
  21875249.690    -8112149.782 7   4776915.685 6
  20414336.789   -11704419.457 8  -3269600.822 9
  20998274.457    -6666812.943 8  -6342086.572 9
  23395143.879    -5461437.469 6  -5932558.896 4
  24689505.311       61631.669 5  -1048976.386 2
 94  3 18 19 16 30.0000000  0  7 31 27 29 18 19 28  2
  22524140.632     9059919.780 6  -9955092.873 3
  22310247.437    -7811388.917 7 -10188154.326 5
  21888946.757    -8040160.447 7   4833011.228 6
  20418733.755   -11681318.821 8  -3251600.321 9
  20994793.357    -6685113.113 8  -6356346.444 9
  23396645.599    -5453515.890 6  -5926386.228 4
  24672022.674      -30215.422 5  -1120545.485 2
 94  3 18 19 17  0.0000000  0  7 31 27 29 18 19 28  2
  22515081.174     9012289.248 6  -9992207.529 3
  22298875.800    -7871134.391 7 -10234709.215 5
  21902718.773    -7967788.344 7   4889405.050 6
  20423220.988   -11657737.884 8  -3233225.572 9
  20991350.181    -6703205.154 8  -6370444.137 9
  23398265.528    -5445033.835 6  -5919776.848 4
  24654583.537     -121884.373 5  -1191975.640 2
 94  3 18 19 17 30.0000000  0  7 31 27 29 18 19 28  2
  22506106.467     8965140.174 6 -10028946.981 3
  22287528.325    -7930756.260 7 -10281167.772 5
  21916561.930    -7895048.462 7   4946085.438 5
  20427799.958   -11633665.378 8  -3214467.780 9
  20987947.596    -6721090.515 8  -6384380.766 9
  23399975.184    -5435995.840 6  -5912734.255 4
  24637170.332     -213371.791 5  -1263264.400 2
 94  3 18 19 18  0.0000000  0  7 31 27 29 18 19 28  2
  22497219.209     8918449.044 6 -10065329.648 3
  22276204.115    -7990257.196 7 -10327532.105 5
  21930470.591    -7821948.332 7   5003046.519 5
  20432473.843   -11609090.320 8  -3195318.391 9
  20984581.796    -6738786.893 8  -6398170.139 9
  23401820.497    -5426421.838 6  -5905273.970 4
  24619794.751     -304690.933 5  -1334421.969 2
 94  3 18 19 18 30.0000000  0  7 31 27 29 18 19 28  2
  22488424.827     8872228.970 6 -10101345.239 4
  22264909.044    -8049626.093 7 -10373793.524 5
  21944455.340    -7748477.436 7   5060296.537 5
  20437250.346   -11584003.648 8  -3175770.335 9
  20981243.218    -6756317.063 8  -6411830.006 9
  23403728.796    -5416306.953 6  -5897392.196 4
  24602450.618     -395846.979 5  -1405452.482 2
 94  3 18 19 19  0.0000000  0  7 31 27 29 18 19 28  2
  22479716.426     8826473.377 6 -10136998.921 4
  22253638.347    -8108852.766 7 -10419944.167 5
  21958504.604    -7674638.096 7   5117833.651 5
  20442120.145   -11558409.728 8  -3155827.035 9
  20977944.002    -6773673.107 8  -6425354.192 9
  23405757.191    -5405648.576 6  -5889086.974 4
  24585133.946     -486855.530 5  -1476368.050 2
 94  3 18 19 19 30.0000000  0  7 31 27 29 18 19 28  2
  22471099.971     8781170.057 6 -10172300.183 4
  22242394.211    -8167929.310 7 -10465977.805 5
  21972627.137    -7600428.212 7   5175659.473 5
  20447086.177   -11532317.924 8  -3135495.757 9
  20974676.324    -6790838.398 8  -6438729.731 9
  23407896.241    -5394432.144 6  -5880346.896 4
  24567843.656     -577716.071 5  -1547168.312 2
 94  3 18 19 20  0.0000000  0  7 31 27 29 18 19 28  2
  22462565.000     8736336.472 6 -10207235.423 4
  22231180.654    -8226856.495 7 -10511895.056 5
  21986820.331    -7525836.805 7   5233782.610 5
  20452144.035   -11505732.229 8  -3114779.632 9
  20971446.180    -6807809.912 8  -6451954.273 9
  23410136.170    -5382647.776 6  -5871164.245 4
  24550585.623     -668431.965 5  -1617855.851 2
 94  3 18 19 20 30.0000000  0  7 31 27 29 18 19 28  2
  22454130.549     8691993.405 6 -10241788.459 4
  22220002.293    -8285624.202 7 -10557688.041 5
  22001090.422    -7450857.429 7   5292208.065 5
  20457298.457   -11478656.170 8  -3093681.414 9
  20968257.887    -6824557.656 8  -6465004.457 9
  23412487.292    -5370277.037 6  -5861524.686 4
  24533351.904     -758985.272 5  -1688416.744 2
 94  3 18 19 21  0.0000000  0  7 31 27 29 18 19 28  2
  22445779.021     8648132.409 6 -10275965.863 4
  22208844.827    -8344228.592 7 -10603353.782 5
  22015429.675    -7375500.228 7   5350927.930 5
  20462541.317   -11451095.060 8  -3072205.237 9
  20965114.203    -6841079.136 8  -6477878.331 9
  23414964.118    -5357326.474 6  -5851433.308 4
  24516145.705     -849376.331 5  -1758851.206 2
 94  3 18 19 21 30.0000000  0  7 31 27 29 18 19 28  2
  22437531.490     8604774.206 6 -10309751.457 4
  22197724.445    -8402668.342 7 -10648891.219 5
  22029838.001    -7299767.639 7   5409940.299 5
  20467879.122   -11423042.440 8  -3050346.048 9
  20962011.861    -6857387.269 8  -6490585.951 9
  23417536.217    -5343801.311 6  -5840894.175 4
  24498981.598     -939606.539 5  -1829160.327 2
 94  3 18 19 22  0.0000000  0  7 31 27 29 18 19 28  2
  22429381.872     8561940.113 6 -10343128.659 4
  22186637.970    -8460950.366 7 -10694305.733 5
  22044322.443    -7223664.797 7   5469241.178 5
  20473315.409   -11394485.466 8  -3028093.879 9
  20958950.500    -6873477.617 8  -6503123.878 9
  23420202.391    -5329719.986 6  -5829921.689 4
  24481834.728    -1029673.596 5  -1899342.345 2
 94  3 18 19 22 30.0000000  0  7 31 27 29 18 19 28  2
  22421327.708     8519630.386 6 -10376097.239 4
  22175575.898    -8519082.648 7 -10739603.592 5
  22058871.911    -7147196.145 7   5528827.114 5
  20478846.340   -11365426.893 8  -3005450.845 9
  20955928.892    -6889355.668 8  -6515496.374 9
  23422998.825    -5315087.211 6  -5818519.490 4
  24464722.275    -1119566.600 5  -1969388.748 2
 94  3 18 19 23  0.0000000  0  7 31 27 29 18 19 28  2
  22413376.762     8477854.884 6 -10408649.562 4
  22164537.180    -8577080.629 7 -10784796.798 5
  22073498.965    -7070365.527 7   5588695.094 5
  20484471.376   -11335856.021 8  -2982408.612 9
  20952944.279    -6905034.264 8  -6527713.439 9
  23425881.809    -5299898.068 6  -5806683.816 4
  24447663.455    -1209287.690 5  -2039301.215 2
 94  3 18 19 23 30.0000000  0  8 31 27 29 16 18 19 28  2
  22405528.106     8436623.140 6 -10440778.145 4
  22153524.334    -8634965.564 7 -10829901.912 5
  22088181.330    -6993177.698 7   5648841.412 5
  24957322.535    -1090807.76614   -911153.377 1
  20490198.101   -11305763.896 8  -2958960.212 9
  20950004.184    -6920490.583 8  -6539757.323 9
  23428883.302    -5284154.671 6  -5794416.212 4
  24430622.292    -1298837.907 5  -2109080.535 2
 94  3 18 19 24  0.0000000  0  8 31 27 29 16 18 19 28  2
  22397788.274     8395914.591 6 -10472499.082 4
  22142528.966    -8692749.435 7 -10874928.284 5
  22102938.884    -6915631.232 7   5709267.194 5
  24944883.157    -1156145.824 4   -962066.133 1
  20496021.450   -11275160.328 8  -2935113.287 9
  20947108.249    -6935705.015 8  -6551612.708 9
  23431985.974    -5267844.707 6  -5781707.128 4
  24413609.220    -1388205.533 5  -2178717.524 2
 94  3 18 19 24 30.0000000  0  8 31 27 29 16 18 19 28  2
  22390133.673     8355704.035 6 -10503831.946 4
  22131551.046    -8750424.705 7 -10919870.029 5
  22117767.428    -6837712.845 7   5769982.765 5
  24932522.144    -1221084.407 4  -1012667.573 1
  20501940.312   -11244052.280 8  -2910873.264 9
  20944254.464    -6950697.671 8  -6563295.286 9
  23435214.379    -5250951.559 6  -5768543.620 4
  24396641.626    -1477394.684 5  -2248215.490 2
 94  3 18 19 25  0.0000000  0  8 31 27 29 16 18 19 28  2
  22382572.458     8315989.112 7 -10534778.607 4
  22120596.750    -8807987.789 7 -10964724.369 5
  22132666.244    -6759426.569 7   5830985.014 5
  24920243.245    -1285622.586 5  -1062957.037 1
  20507956.607   -11212432.027 8  -2886234.112 9
  20941448.017    -6965467.255 8  -6574804.041 9
  23438529.094    -5233482.508 6  -5754931.357 4
  24379699.545    -1566417.757 5  -2317584.008 2
 94  3 18 19 25 30.0000000  0  8 31 27 29 16 18 19 28  2
  22375109.484     8276759.598 7 -10565347.028 4
  22109669.434    -8865424.023 7 -11009479.840 5
  22147633.352    -6680776.008 7   5892271.128 5
  24908045.559    -1349732.926 5  -1112913.254 1
  20514070.215   -11180312.151 8  -2861205.660 9
  20938674.667    -6980024.560 8  -6586147.382 9
  23441954.043    -5215455.905 6  -5740884.660 4
  24362794.398    -1655273.712 5  -2386822.334 2
 94  3 18 19 26  0.0000000  0  8 31 27 29 16 18 19 28  2
  22367737.288     8238007.828 7 -10595543.165 4
  22098764.873    -8922727.391 7 -11054131.791 5
  22162666.026    -6601761.407 7   5953840.906 5
  24895933.944    -1413402.123 5  -1162525.447 1
  20520274.959   -11147707.812 8  -2835799.686 9
  20935940.740    -6994404.172 9  -6597352.272 9
  23445496.031    -5196876.325 6  -5726407.048 4
  24345913.595    -1743960.819 5  -2455929.093 2
 94  3 18 19 26 30.0000000  0  8 31 27 29 16 18 19 28  2
  22360456.918     8199749.496 7 -10625354.833 4
  22087888.133    -8979880.180 7 -11098666.411 5
  22177766.782    -6522396.021 7   6015684.015 5
  24883890.201    -1476630.211 4  -1211794.083 1
  20526573.629   -11114613.452 8  -2810011.888 9
  20933232.205    -7008620.418 8  -6608429.840 9
  23449131.554    -5177759.695 6  -5711510.986 4
  24329073.353    -1832484.903 5  -2524908.848 2
 94  3 18 19 27  0.0000000  0  8 31 27 29 16 18 19 28  2
  22353273.051     8162003.698 7 -10654767.083 4
  22077039.693    -9036888.513 7 -11143088.446 5
  22192934.781    -6442705.146 7   6077780.787 5
  24871949.917    -1539413.133 5  -1260715.842 1
  20532963.945   -11081030.808 8  -2783843.606 9
  20930562.613    -7022650.114 8  -6619362.071 9
  23452857.495    -5158110.270 6  -5696199.772 4
  24312253.077    -1920841.289 5  -2593757.885 2
 94  3 18 19 27 30.0000000  0  8 31 27 29 16 18 19 28  2
  22346191.653     8124768.453 7 -10683781.510 4
  22066219.704    -9093751.902 7 -11187397.555 5
  22208161.630    -6362689.179 7   6140130.846 5
  24860072.170    -1601750.133 4  -1309290.150 1
  20539445.368   -11046968.337 8  -2757301.438 9
  20927925.459    -7036501.111 8  -6630155.035 9
  23456709.618    -5137918.310 6  -5680465.780 4
  24295473.544    -2009023.906 5  -2662471.527 2
 94  3 18 19 28  0.0000000  0  8 31 27 29 16 18 19 28  2
  22339203.131     8088053.464 6 -10712390.554 4
  22055423.218    -9150473.037 7 -11231595.818 5
  22223448.946    -6282344.626 7   6202736.921 5
  24848304.447    -1663655.968 4  -1357528.301 1
  20546017.088   -11012419.000 8  -2730379.906 9
  20925331.175    -7050154.421 8  -6640793.984 9
  23460653.208    -5117171.344 6  -5664299.302 4
  24278726.088    -2097028.106 5  -2731046.138 2
 94  3 18 19 28 30.0000000  0  8 31 27 29 16 18 19 28  2
  22332315.969     8051862.950 6 -10740590.907 4
  22044658.331    -9207043.534 7 -11275676.702 5
  22238800.779    -6201668.538 7   6265601.379 5
  24836616.318    -1725138.505 5  -1405436.765 1
  20552685.312   -10977381.456 8  -2703077.922 9
  20922771.517    -7063593.866 8  -6651266.271 9
  23464718.214    -5095866.760 6  -5647698.351 4
  24262012.568    -2184856.174 5  -2799483.534 2
 94  3 18 19 29  0.0000000  0  8 31 27 29 16 18 19 28  2
  22325527.079     8016184.746 6 -10768392.085 4
  22033918.985    -9263484.362 7 -11319656.539 5
  22254220.154    -6120645.378 7   6328736.252 5
  24824987.849    -1786190.680 4  -1453009.931 1
  20559444.223   -10941859.805 8  -2675398.745 9
  20920256.528    -7076814.082 8  -6661567.727 9
  23468864.403    -5074003.285 6  -5630661.855 4
  24245341.319    -2272502.760 5  -2867779.499 2
 94  3 18 19 29 30.0000000  0  8 31 27 29 16 18 19 28  2
  22318828.906     7981013.894 6 -10795797.925 4
  22023203.054    -9319792.272 7 -11363532.814 5
  22269705.843    -6039265.219 7   6392149.313 5
  24813432.408    -1846810.618 4  -1500246.204 1
  20566298.198   -10905849.663 8  -2647338.910 9
  20917782.251    -7089822.430 8  -6671704.103 9
  23473152.185    -5051593.024 6  -5613199.283 4
  24228681.883    -2359968.947 5  -2935934.928 2
 94  3 18 19 30  0.0000000  0  8 31 27 29 16 18 19 28  2
  22312235.511     7946353.664 6 -10822805.845 4
  22012516.382    -9375966.547 7 -11407304.934 5
  22285257.397    -5957538.955 7   6455832.072 5
  24802001.981    -1907006.476 5  -1547152.020 1
  20573242.950   -10869356.221 8  -2618902.472 9
  20915350.634    -7102604.840 8  -6681664.407 9
  23477506.101    -5028640.896 6  -5595314.517 4
  24212085.342    -2447248.926 5  -3003945.219 2
 94  3 18 19 30 30.0000000  0  8 31 27 29 16 18 19 28  2
  22305735.740     7912200.885 6 -10849418.369 4
  22001850.696    -9432007.687 7 -11450973.325 5
  22300876.854    -5875465.625 7   6519785.268 5
  24790610.198    -1966764.862 4  -1593716.985 1
  20580280.458   -10832373.488 8  -2590084.784 9
  20912955.982    -7115171.886 8  -6691456.902 9
  23481976.396    -5005149.053 6  -5577009.186 4
  24195507.689    -2534341.631 5  -3071809.631 2
 94  3 18 19 31  0.0000000  0  8 31 27 29 16 18 19 28  2
  22299338.169     7878563.781 6 -10875629.083 4
  21991211.811    -9487921.034 7 -11494542.147 5
  22316559.268    -5793052.246 7   6584003.424 5
  24779350.323    -2026080.031 5  -1639936.472 1
  20587415.968   -10794890.794 8  -2560877.506 9
  20910604.800    -7127531.713 8  -6701087.934 9
  23486543.165    -4981118.822 6  -5558284.323 4
  24178978.811    -2621230.874 5  -3139515.468 3
 94  3 18 19 31 30.0000000  0  8 31 27 29 16 18 19 28  2
  22293038.241     7845459.633 6 -10901424.503 4
  21980596.789    -9543677.378 7 -11537988.604 5
  22332305.357    -5710307.190 7   6648480.055 5
  24768137.365    -2084960.883 5  -1685817.657 1
  20594643.065   -10756900.338 8  -2531274.563 9
  20908291.841    -7139689.276 8  -6710561.341 9
  23491232.188    -4956538.232 6  -5539130.589 4
  24162477.665    -2707913.538 5  -3207060.370 3
 94  3 18 19 32  0.0000000  0  8 31 27 29 16 18 19 28  2
  22286840.062     7812894.339 6 -10926800.023 4
  21970018.193    -9599281.989 7 -11581316.870 5
  22348116.081    -5627221.395 6   6713222.195 5
  24757016.024    -2143401.382 5  -1731355.728 1
  20601968.764   -10718410.328 8  -2501282.368 9
  20906013.388    -7151659.552 8  -6719888.831 9
  23496008.931    -4931399.663 6  -5519542.106 4
  24146030.031    -2794397.597 5  -3274450.470 3
 94  3 18 19 32 30.0000000  0  8 31 27 29 16 18 19 28  2
  22280747.679     7780868.396 6 -10951755.298 4
  21959466.518    -9654737.830 7 -11624529.197 6
  22363992.970    -5543790.387 6   6778233.283 5
  24745982.283    -2201389.382 5  -1776541.181 1
  20609387.638   -10679411.638 8  -2470893.799 9
  20903769.801    -7163447.645 9  -6729074.353 9
  23500898.576    -4905713.212 6  -5499526.678 4
  24129591.931    -2880696.785 5  -3341696.507 3
 94  3 18 19 33  0.0000000  0  8 31 27 29 16 18 19 28  2
  22274751.650     7749385.462 6 -10976287.446 4
  21948939.096    -9710039.622 7 -11667621.469 6
  22379931.526    -5460019.461 6   6843509.311 4
  24735040.368    -2258929.941 5  -1821377.918 1
  20616904.844   -10639907.099 8  -2440111.053 9
  20901565.487    -7175035.464 8  -6738103.824 9
  23505883.166    -4879470.140 6  -5479077.521 4
  24113218.706    -2966820.283 5  -3408805.638 3
 94  3 18 19 33 30.0000000  0  8 31 27 29 16 18 19 28  2
  22268868.193     7718432.979 6 -11000406.235 4
  21938442.252    -9765199.237 7 -11710602.968 6
  22395940.743    -5375910.757 6   6909048.498 4
  24724172.891    -2316026.777 5  -1865868.989 1
  20624521.191   -10599905.330 8  -2408940.842 9
  20899400.266    -7186421.454 8  -6746976.020 9
  23510993.278    -4852661.723 6  -5458187.845 4
  24096853.396    -3052788.380 5  -3475793.672 3
 94  3 18 19 34  0.0000000  0  8 31 27 29 16 18 19 28  2
  22263074.404     7688001.661 6 -11024118.949 4
  21927968.493    -9820240.879 7 -11753492.542 6
  22412009.199    -5291472.175 6   6974844.721 4
  24713401.768    -2372675.797 5  -1910010.977 1
  20632223.129   -10559417.037 8  -2377391.544 9
  20897271.860    -7197599.952 8  -6755686.534 9
  23516205.560    -4825299.814 6  -5436866.863 4
  24080514.916    -3138606.117 5  -3542664.544 3
 94  3 18 19 34 30.0000000  0  8 31 27 29 16 18 19 28  2
  22257386.322     7658095.271 6 -11047422.617 4
  21917521.895    -9875158.592 7 -11796285.535 6
  22428134.286    -5206726.289 6   7040880.435 4
  24702699.357    -2428888.433 5  -1953813.079 1
  20640020.881   -10518445.732 8  -2345465.858 9
  20895185.094    -7208556.537 8  -6764224.124 9
  23521509.638    -4797381.402 6  -5415112.238 4
  24064225.663    -3224259.491 5  -3609407.330 3
 94  3 18 19 35  0.0000000  0  8 31 27 29 16 18 19 28  2
  22251797.441     7628730.526 6 -11070304.221 4
  21907096.163    -9929939.658 7 -11838972.070 6
  22444320.590    -5121661.425 6   7107164.686 4
  24692088.233    -2484656.901 5  -1997268.935 1
  20647909.680   -10476995.003 8  -2313166.601 9
  20893144.437    -7219289.224 8  -6772587.256 9
  23526939.149    -4768890.203 6  -5392911.298 4
  24047954.368    -3309725.303 5  -3676003.916 3
 94  3 18 19 35 30.0000000  0  8 31 27 29 16 18 19 28  2
  22246313.668     7599928.009 6 -11092747.730 5
  21896701.399    -9984573.952 7 -11881544.218 6
  22460571.320    -5036269.507 6   7173703.771 4
  24681558.862    -2539974.089 5  -2040373.254 1
  20655885.958   -10435067.626 8  -2280495.936 9
  20891143.173    -7229796.851 8  -6780775.018 9
  23532461.506    -4739836.873 6  -5370272.311 4
  24031726.242    -3394979.494 5  -3742435.622 3
 94  3 18 19 36  0.0000000  0  8 31 27 29 16 18 19 28  2
  22240945.134     7571708.283 7 -11114737.100 5
  21886333.826   -10039040.357 7 -11923985.577 6
  22476886.415    -4950542.509 6   7240503.997 4
  24671118.050    -2594829.374 5  -2083117.685 1
  20663955.831   -10392663.396 8  -2247453.692 9
  20889192.783    -7240063.065 9  -6788774.650 9
  23538101.381    -4710240.224 6  -5347209.971 4
  24015550.370    -3480014.550 5  -3808696.585 3
 94  3 18 19 36 30.0000000  0  8 31 27 29 16 18 19 28  2
  22235689.562     7544074.785 7 -11136269.671 5
  21876005.586   -10093329.416 7 -11966288.664 6
  22493265.097    -4864465.901 6   7307576.631 4
  24660742.413    -2649216.941 4  -2125497.596 1
  20672116.362   -10349776.305 8  -2214035.194 9
  20887281.756    -7250092.934 8  -6796590.127 9
  23543830.056    -4680109.769 6  -5323731.701 4
  23999408.885    -3564827.056 5  -3874784.122 3
 94  3 18 19 37  0.0000000  0  8 31 27 29 16 18 19 28  2
  22230537.689     7517020.027 7 -11157351.280 5
  21865708.435   -10147447.172 7 -12008458.320 6
  22509713.300    -4778031.573 6   7374927.969 4
  24650502.102    -2703132.706 5  -2167509.800 1
  20680370.427   -10306408.603 8  -2180242.170 9
  20885416.477    -7259894.593 8  -6804227.782 9
  23549674.060    -4649456.383 6  -5299845.917 4
  23983312.248    -3649418.209 5  -3940699.156 3
 94  3 18 19 37 30.0000000  0  8 31 27 29 16 18 19 28  2
  22225498.687     7490536.798 7 -11177987.552 5
  21855442.972   -10201405.663 7 -12050503.849 6
  22526227.847    -4691247.219 6   7442552.106 4
  24640336.680    -2756577.283 5  -2209154.960 1
  20688716.560   -10262543.664 8  -2146061.730 9
  20883593.199    -7269477.594 8  -6811695.050 9
  23555583.659    -4618278.433 6  -5275551.404 4
  23967253.596    -3733795.459 5  -4006447.543 3
 94  3 18 19 38  0.0000000  0  8 31 27 29 16 18 19 28  2
  22220566.262     7464613.354 7 -11198187.602 5
  21845199.843   -10255220.842 7 -12092437.727 6
  22542808.349    -4604116.118 6   7510446.432 4
  24630267.221    -2809543.925 5  -2250427.625 1
  20697158.985   -10218176.045 8  -2111489.573 9
  20881812.702    -7278854.970 8  -6819002.100 9
  23561621.239    -4586554.226 6  -5250831.238 4
  23951233.496    -3817965.771 5  -4072034.665 3
 94  3 18 19 38 30.0000000  0  8 31 27 29 16 18 19 28  2
  22215734.897     7439244.275 7 -11217955.688 5
  21834981.687   -10308905.551 7 -12134269.933 6
  22559450.278    -4516651.823 6   7578600.338 4
  24620267.194    -2862034.763 5  -2291329.611 1
  20705697.734   -10173307.594 8  -2076527.164 9
  20880060.835    -7288039.673 8  -6826158.995 9
  23567778.407    -4554258.183 6  -5225665.493 4
  23935267.659    -3901918.879 5  -4137452.569 3
 94  3 18 19 39  0.0000000  0  8 31 27 29 16 18 19 28  2
  22211014.994     7414428.965 7 -11237292.244 5
  21824787.694   -10362465.533 7 -12176004.963 6
  22576152.315    -4428873.452 6   7646999.038 4
  24610358.843    -2914051.993 5  -2331862.442 1
  20714332.626   -10127931.927 8  -2041169.513 9
  20878348.210    -7297042.639 8  -6833174.298 9
  23574030.218    -4521378.514 6  -5200044.952 4
  23919324.936    -3985660.788 5  -4202705.876 3
 94  3 18 19 39 30.0000000  0  8 31 27 29 16 18 19 28  2
  22206397.921     7390164.964 7 -11256199.240 5
  21814622.991   -10415901.366 7 -12217643.221 6
  22592916.260    -4340786.092 6   7715638.504 4
  24600561.745    -2965592.326 5  -2372023.678 1
  20723065.310   -10082040.452 8  -2005409.935 9
  20876670.931    -7305868.465 8  -6840051.556 9
  23580405.935    -4487908.050 6  -5173964.060 4
  23903426.882    -4069195.552 5  -4267797.815 3
 94  3 18 19 40  0.0000000  0  8 31 27 29 16 18 19 28  2
  22201886.914     7366459.380 7 -11274671.078 5
  21804478.494   -10469199.250 7 -12259174.021 6
  22609736.535    -4252389.859 6   7784518.601 3
  24590830.722    -3016652.566 5  -2411810.962 1
  20731892.519   -10035651.527 8  -1969262.737 9
  20875028.728    -7314499.156 8  -6846776.763 9
  23586887.597    -4453858.280 6  -5147431.766 4
  23887570.649    -4152516.846 5  -4332723.367 3
 94  3 18 19 40 30.0000000  0  8 31 27 29 16 18 19 28  2
  22197480.954     7343309.698 7 -11292709.757 5
  21794365.055   -10522342.529 7 -12300584.344 6
  22626619.167    -4163689.817 6   7853635.479 3
  24581208.853    -3067234.037 5  -2451225.083 1
  20740815.482    -9988765.015 8  -1932727.799 8
  20873419.862    -7322932.052 8  -6853347.854 9
  23593465.464    -4419259.925 6  -5120472.003 4
  23871763.252    -4235615.184 5  -4397475.247 3
 94  3 18 19 41  0.0000000  0  8 31 27 29 16 18 19 28  2
  22193181.450     7320713.797 7 -11310316.879 5
  21784282.375   -10575331.339 7 -12341874.280 6
  22643552.315    -4074683.835 6   7922990.742 3
  24571693.860    -3117333.737 5  -2490263.766 1
  20749829.582    -9941382.714 8  -1895806.545 8
  20871856.325    -7331163.902 8  -6859762.274 9
  23600157.701    -4384127.270 6  -5093095.926 4
  23855995.458    -4318497.486 5  -4462058.776 3
 94  3 18 19 41 30.0000000  0  8 31 27 29 16 18 19 28  2
  22188986.005     7298674.149 7 -11327490.563 5
  21774225.957   -10628166.389 7 -12383044.441 6
  22660549.828    -3985378.909 6   7992578.935 3
  24562236.577    -3166949.573 5  -2528925.423 1
  20758937.756    -9893527.037 8  -1858516.424 8
  20870328.942    -7339184.546 8  -6866012.124 9
  23606931.871    -4348463.793 6  -5065306.213 4
  23840257.643    -4401162.941 5  -4526473.317 3
 94  3 18 19 42  0.0000000  0  8 31 27 29 16 18 19 28  2
  22184899.564     7277203.249 7 -11344221.082 5
  21764203.685   -10680840.034 7 -12424088.796 6
  22677597.376    -3895774.995 6   8062400.099 3
  24552897.743    -3216084.456 5  -2567212.385 1
  20768135.119    -9845205.164 8  -1820863.033 8
  20868844.070    -7346987.372 8  -6872092.232 9
  23613820.262    -4312276.838 6  -5037108.579 3
  23824566.086    -4483615.799 5  -4590722.227 3
 94  3 18 19 42 30.0000000  0  8 31 27 29 16 18 19 28  2
  22180927.314     7256304.268 7 -11360505.950 5
  21754211.423   -10733351.774 7 -12465007.009 6
  22694709.380    -3805876.232 6   8132451.044 3
  24543627.740    -3264748.360 5  -2605132.257 1
  20777420.981    -9796406.844 8  -1782838.394 8
  20867395.653    -7354582.246 8  -6878010.317 9
  23620807.106    -4275564.153 6  -5008501.293 4
  23808922.346    -4565870.735 5  -4654816.923 3
 94  3 18 19 43  0.0000000  0  8 31 27 29 16 18 19 28  2
  22177056.633     7235985.109 7 -11376339.002 5
  21744253.307   -10785706.638 7 -12505802.991 6
  22711874.327    -3715680.492 6   8202733.371 3
  24534465.783    -3312943.422 5  -2642686.829 1
  20786797.020    -9747126.204 8  -1744437.901 8
  20865997.451    -7361958.746 8  -6883758.236 9
  23627903.793    -4238303.825 6  -4979467.258 4
  23793299.502    -4647937.402 5  -4718764.860 3
 94  3 18 19 43 30.0000000  0  8 31 27 29 16 18 19 28  2
  22173304.191     7216269.064 7 -11391702.096 5
  21734320.793   -10837892.534 7 -12546467.301 6
  22729090.808    -3625182.513 6   8273251.227 3
  24525378.714    -3360663.967 5  -2679871.711 1
  20796267.614    -9697355.110 8  -1705655.244 8
  20864639.720    -7369102.071 8  -6889324.457 9
  23635089.248    -4200500.477 6  -4950010.089 4
  23777719.827    -4729802.475 5  -4782555.765 3
 94  3 18 19 44  0.0000000  0  8 31 27 29 16 18 19 28  2
  22169665.190     7197148.640 7 -11406601.068 5
  21724421.196   -10889910.724 7 -12587000.938 6
  22746370.335    -3534374.033 6   8344011.047 3
  24516388.717    -3407902.863 5  -2716681.216 1
  20805835.730    -9647085.489 8  -1666484.126 8
  20863323.781    -7376008.845 8  -6894706.360 9
  23642394.741    -4162173.243 6  -4920144.727 4
  23762182.513    -4811462.435 5  -4846186.851 3
 94  3 18 19 44 30.0000000  0  8 31 27 29 16 18 19 28  2
  22166142.989     7178616.035 7 -11421042.031 5
  21714549.630   -10941777.669 7 -12627416.713 6
  22763709.252    -3443257.723 6   8415010.692 3
  24507485.151    -3454647.048 5  -2753105.208 1
  20815494.773    -9596318.980 8  -1626925.837 8
  20862054.940    -7382676.690 8  -6899902.071 9
  23649779.708    -4123315.507 6  -4889865.961 4
  23746686.361    -4892907.544 5  -4909650.481 3
 94  3 18 19 45  0.0000000  0  8 31 27 29 16 18 19 28  2
  22162726.134     7160664.876 7 -11435029.901 5
  21704707.833   -10993510.516 7 -12667728.017 6
  22781110.945    -3351835.888 6   8486248.438 3
  24498686.872    -3500884.617 5  -2789134.519 1
  20825247.951    -9545065.718 8  -1586988.249 8
  20860833.316    -7389102.475 8  -6904909.179 9
  23657280.036    -4083926.381 6  -4859173.106 4
  23731233.529    -4974120.263 5  -4972933.027 3
 94  3 18 19 45 30.0000000  0  8 31 27 29 16 18 19 28  2
  22159419.603     7143281.475 7 -11448575.370 5
  21694885.673   -11045111.100 7 -12707936.247 6
  22798564.023    -3260112.402 6   8557721.222 3
  24489998.707    -3546612.466 5  -2824766.614 1
  20835093.495    -9493335.256 8  -1546678.802 8
  20859645.988    -7395302.386 8  -6909740.263 9
  23664876.717    -4044015.064 6  -4828073.379 4
  23715816.132    -5055110.428 5  -5036042.191 3
 94  3 18 19 46  0.0000000  0  8 31 27 29 16 18 19 28  2
  22156215.691     7126451.538 7 -11461689.576 5
  21685090.764   -11096574.540 7 -12748037.607 6
  22816078.108    -3168077.833 6   8629436.390 3
  24481381.113    -3591841.376 5  -2860009.925 1
  20845027.058    -9441126.545 8  -1505996.714 8
  20858507.646    -7401294.438 8  -6914409.390 9
  23672573.888    -4003565.762 6  -4796554.464 4
  23700449.101    -5135885.047 5  -5098983.381 3
 94  3 18 19 46 30.0000000  0  8 31 27 29 16 18 19 28  2
  22153120.004     7110181.527 7 -11474367.467 5
  21675326.554   -11147892.213 7 -12788025.394 6
  22833643.817    -3075740.956 6   8701387.136 3
  24472873.752    -3636586.141 5  -2894875.939 1
  20855051.578    -9388442.938 8  -1464944.573 8
  20857404.559    -7407091.971 8  -6918926.953 9
  23680364.565    -3962569.297 6  -4764609.158 4
  23685110.909    -5216457.744 5  -5161767.254 3
 94  3 18 19 47  0.0000000  0  8 31 27 29 16 18 19 28  2
  22150130.564     7094477.840 7 -11486604.086 5
  21665592.982   -11199045.504 7 -12827885.102 6
  22851278.959    -2983096.919 6   8773577.259 3
  24464462.055    -3680854.306 5  -2929370.637 1
  20865168.225    -9335283.819 8  -1423521.911 8
  20856339.936    -7412703.671 8  -6923299.694 9
  23688270.032    -3921033.269 6  -4732243.401 4
  23669820.444    -5296825.202 5  -5224391.133 3
 94  3 18 19 47 30.0000000  0  8 31 27 29 16 18 19 28  2
  22147250.098     7079353.377 7 -11498389.347 5
  21655890.529   -11250019.330 7 -12867604.932 6
  22868967.793    -2890135.557 6   8846014.583 3
  24456124.287    -3724649.550 5  -2963496.793 2
  20875373.250    -9281655.940 8  -1381733.975 8
  20855305.083    -7418132.179 8  -6927529.694 9
  23696286.572    -3878962.734 6  -4699461.217 4
  23654566.015    -5376985.948 5  -5286853.963 3
 94  3 18 19 48  0.0000000  0  8 31 27 29 16 18 19 28  2
  22144487.510     7064821.882 7 -11509712.582 5
  21646227.289   -11300817.104 7 -12907187.616 6
  22886718.894    -2796855.633 6   8918700.189 3
  24447876.547    -3767965.641 5  -2997249.573 2
  20885669.412    -9227558.351 8  -1339580.043 8
  20854308.003    -7423369.285 8  -6931610.553 9
  23704396.917    -3836356.772 6  -4666261.747 4
  23639359.852    -5456914.853 5  -5349136.162 3
 94  3 18 19 48 30.0000000  0  8 31 27 29 16 18 19 28  2
  22141833.298     7050880.806 7 -11520575.744 5
  21636588.841   -11351452.717 7 -12946643.918 6
  22904525.127    -2703273.859 6   8991620.973 3
  24439718.685    -3810784.981 5  -3030615.302 2
  20896051.525    -9172994.400 8  -1297062.701 8
  20853352.265    -7428399.823 8  -6935530.440 9
  23712588.986    -3793231.479 6  -4632657.659 4
  23624189.424    -5536599.692 5  -5411228.181 3
 94  3 18 19 49  0.0000000  0  8 31 27 29 16 18 19 28  2
  22139293.966     7037521.457 7 -11530985.618 5
  21626983.941   -11401939.070 7 -12985983.912 6
  22922386.912    -2609400.171 6   9064769.238 3
  24431672.105    -3853113.359 5  -3063598.431 2
  20906521.506    -9117968.958 8  -1254185.740 8
  20852436.549    -7433221.932 8  -6939287.938 9
  23720900.073    -3749587.425 6  -4598649.281 4
  23609077.216    -5616025.307 6  -5473118.214 3
 94  3 18 19 49 30.0000000  0  8 31 27 29 16 18 19 28  2
  22136863.069     7024749.549 7 -11540937.724 5
  21617405.212   -11452281.172 8 -13025211.518 6
  22940303.678    -2515245.107 6   9138136.764 3
  24423709.648    -3894938.425 5  -3096189.378 2
  20917082.505    -9062475.087 8  -1210943.798 8
  20851557.617    -7437827.887 8  -6942876.980 9
  23729297.559    -3705425.829 6  -4564237.694 4
  23594015.283    -5695202.555 6  -5534814.668 3
 94  3 18 19 50  0.0000000  0  8 31 27 29 16 18 19 28  2
  22134542.285     7012558.567 7 -11550437.185 5
  21607852.715   -11502476.496 8 -13064324.740 6
  22958273.598    -2420829.905 6   9211707.002 3
  24415859.312    -3936253.604 5  -3128383.017 2
  20927731.463    -9006505.566 8  -1167331.201 8
  20850726.772    -7442208.294 8  -6946290.284 9
  23737806.059    -3660747.700 6  -4529423.575 4
  23578986.987    -5774152.436 6  -5596334.007 3
 94  3 18 19 50 30.0000000  0  8 31 27 29 16 18 19 28  2
  22132331.945     7000959.059 7 -11559475.738 5
  21598332.506   -11552510.443 8 -13103312.208 6
  22976292.264    -2326160.341 6   9285475.407 3
  24408084.854    -3977057.589 5  -3160178.328 2
  20938476.055    -8950059.082 8  -1123346.947 8
  20849932.202    -7446360.170 8  -6949525.493 9
  23746407.884    -3615559.379 6  -4494211.906 4
  23564007.317    -5852894.494 6  -5657691.331 3
 94  3 18 19 51  0.0000000  0  8 31 27 29 16 18 19 28  2
  22130241.343     6989963.145 7 -11568043.968 5
  21588837.839   -11602383.375 8 -13142174.221 6
  22994355.209    -2231232.929 6   9359444.773 3
  24400415.264    -4017353.422 5  -3191577.640 2
  20949306.897    -8893135.070 8  -1078990.595 8
  20849187.188    -7450292.455 8  -6952589.616 9
  23755104.533    -3569845.544 6  -4458590.779 4
  23549056.427    -5931439.282 6  -5718894.957 3
 94  3 18 19 51 30.0000000  0  8 31 27 29 16 18 19 28  2
  22128266.280     6979578.520 7 -11576135.865 5
  21579378.277   -11652102.360 8 -13180916.279 6
  23012474.695    -2136042.098 6   9433619.391 3
  24392852.849    -4057126.867 5  -3222569.970 2
  20960231.214    -8835735.182 8  -1034263.429 8
  20848478.059    -7454001.632 8  -6955479.869 9
  23763905.121    -3523614.342 6  -4422566.493 4
  23534147.719    -6009799.543 6  -5779954.834 3
 94  3 18 19 52  0.0000000  0  8 31 27 29 16 18 19 28  2
  22126398.663     6969780.878 7 -11583770.377 5
  21569950.014   -11701669.464 8 -13219539.987 6
  23030631.536    -2040588.816 6   9507998.486 3
  24385378.574    -4096389.953 5  -3253164.559 2
  20971242.861    -8777867.317 8   -989171.617 8
  20847813.659    -7457496.206 8  -6958202.898 9
  23772804.850    -3476858.498 6  -4386133.377 4
  23519273.186    -6087967.440 6  -5840864.777 4
 94  3 18 19 52 30.0000000  0  8 31 27 29 16 18 19 28  2
  22124650.873     6960570.974 7 -11590946.905 5
  21560541.987   -11751096.911 8 -13258054.870 6
  23048847.195    -1944866.241 6   9582587.463 3
  24378002.030    -4135155.056 5  -3283371.140 2
  20982341.028    -8719534.430 8   -943717.443 8
  20847186.223    -7460789.538 8  -6960769.139 9
  23781793.917    -3429580.609 6  -4349293.463 4
  23504436.127    -6165922.019 6  -5901608.529 4
 94  3 18 19 53  0.0000000  0  8 31 27 29 16 18 19 28  2
  22123006.062     6951933.052 7 -11597677.723 5
  21551163.970   -11800388.271 8 -13296463.699 6
  23067119.156    -1848865.924 6   9657392.848 3
  24370719.592    -4173427.337 5  -3313193.669 2
  20993530.691    -8660739.461 8   -897903.202 8
  20846599.230    -7463884.099 8  -6963180.469 9
  23790892.648    -3381775.953 6  -4312043.115 4
  23489648.325    -6243645.675 6  -5962172.308 4
 94  3 18 19 53 30.0000000  0  8 31 27 29 16 18 19 28  2
  22121470.465     6943865.105 7 -11603964.434 5
  21541812.963   -11849522.204 8 -13334749.868 6
  23085438.454    -1752591.680 6   9732411.662 3
  24363538.453    -4211203.890 5  -3342629.938 2
  21004804.596    -8601488.612 8   -851733.746 8
  20846050.100    -7466778.365 8  -6965435.741 9
  23800090.400    -3333454.831 6  -4274390.281 4
  23474903.512    -6321130.656 6  -6022550.126 4
 94  3 18 19 54  0.0000000  0  8 31 27 29 16 18 19 28  2
  22120043.123     6936386.156 7 -11609792.182 5
  21532496.943   -11898473.758 8 -13372893.923 6
  23103810.245    -1656033.605 6   9807651.643 3
  24356432.233    -4248481.054 5  -3371677.050 2
  21016169.369    -8541775.072 8   -805203.725 8
  20845533.797    -7469473.434 8  -6967535.788 9
  23809382.707    -3284607.905 6  -4236327.754 4
  23460202.200    -6398353.267 6  -6082723.471 4
 94  3 18 19 54 30.0000000  0  8 31 27 29 16 18 19 28  2
  22118744.302     6929520.821 7 -11615141.795 5
  21523217.137   -11947233.317 8 -13410888.361 6
  23122240.046    -1559180.329 6   9883121.640 3
  24349436.696    -4285256.012 5  -3400332.913 2
  21027618.862    -8481598.900 8   -758313.235 8
  20845063.992    -7471954.095 8  -6969468.765 9
  23818778.563    -3235231.601 6  -4197852.727 4
  23445563.154    -6475306.104 6  -6142686.667 4
 94  3 18 19 55  0.0000000  0  8 31 27 29 16 18 19 28  2
  22117548.190     6923263.733 7 -11620017.419 5
  21513975.525   -11995800.219 8 -13448732.689 6
  23140726.808    -1462034.848 6   9958819.335 3
  24342535.144    -4321524.067 5  -3428593.709 2
  21039155.895    -8420970.155 8   -711070.071 8
  20844631.842    -7474211.834 8  -6971228.046 9
  23828283.662    -3185324.050 6  -4158963.741 4
  23430971.866    -6552001.918 6  -6202449.517 4
 94  3 18 19 55 30.0000000  0  8 31 27 29 16 18 19 28  2
  22116477.751     6917623.741 7 -11624412.214 5
  21504770.067   -12044191.077 8 -13486439.838 6
  23159264.775    -1364607.856 6  10034736.441 3
  24335726.407    -4357285.719 5  -3456459.922 2
  21050779.119    -8359890.022 8   -663475.190 8
  20844248.467    -7476244.043 8  -6972811.584 9
  23837868.867    -3134901.742 6  -4119673.641 4
  23416416.282    -6628464.982 6  -6262031.015 4
 94  3 18 19 56  0.0000000  0  8 31 27 29 16 18 19 28  2
  22115517.995     6912591.857 7 -11628333.157 5
  21495588.774   -12092416.743 8 -13524018.268 7
  23177859.102    -1266898.619 6  10110873.404 3
  24329023.468    -4392546.219 5  -3483935.646 2
  21062489.042    -8298356.043 8   -615526.655 8
  20843903.886    -7478046.262 8  -6974215.915 9
  23847562.446    -3083975.137 6  -4079990.584 4
  23401910.015    -6704707.598 6  -6321440.756 4
 94  3 18 19 56 30.0000000  0  8 31 27 29 16 18 19 28  2
  22114673.810     6908151.263 7 -11631793.332 5
  21486445.433   -12140478.763 8 -13561469.157 7
  23196501.426    -1168922.048 6  10187218.712 3
  24322402.641    -4427294.741 5  -3511012.404 2
  21074287.015    -8236361.961 8   -567219.604 8
  20843608.740    -7479598.621 8  -6975425.545 9
  23857350.190    -3032549.647 6  -4039918.812 4
  23387433.307    -6780744.253 6  -6380690.006 4
 94  3 18 19 57  0.0000000  0  8 31 27 29 16 18 19 28  2
  22113940.398     6904306.935 7 -11634788.914 5
  21477331.413   -12188387.629 8 -13598800.723 7
  23215201.760    -1070695.267 6  10263758.967 3
  24315893.877    -4461509.197 5  -3537673.027 2
  21086172.706    -8173899.027 8   -518547.196 8
  20843358.983    -7480907.122 8  -6976445.146 9
  23867239.864    -2980647.719 6  -3999475.794 4
  23373015.598    -6856576.827 6  -6439780.222 4
 94  3 18 19 57 30.0000000  0  8 31 27 29 16 18 19 28  2
  22113327.082     6901073.349 7 -11637308.574 5
  21468242.065   -12236136.557 8 -13636007.679 7
  23233934.652     -972217.753 6  10340494.614 3
  24309489.651    -4495183.076 5  -3563912.450 2
  21098148.845    -8110963.176 8   -469506.300 8
  20843157.972    -7481979.361 8  -6977280.668 9
  23877184.549    -2928277.007 5  -3958667.452 4
  23358623.312    -6932182.349 6  -6498693.527 4
 94  3 18 19 58  0.0000000  0  8 31 27 29 16 18 19 28  2
  22112828.557     6898455.698 7 -11639348.296 5
  21459188.303   -12283706.487 8 -13673075.127 7
  23252721.566     -873495.120 6  10417421.246 3
  24303180.788    -4528317.895 5  -3589731.768 2
  21110214.503    -8047552.111 8   -420095.117 8
  20842997.883    -7482817.093 8  -6977933.435 9
  23887259.674    -2875415.775 6  -3917476.945 3
  23344288.675    -7007522.200 6  -6557399.800 4
 94  3 18 19 58 30.0000000  0  8 31 27 29 16 18 19 28  2
  22112450.759     6896469.219 7 -11640896.184 5
  21450174.113   -12331096.595 8 -13710002.459 7
  23271556.866     -774523.981 6  10494541.529 3
  24296981.650    -4560911.815 5  -3615129.630 2
  21122374.834    -7983656.185 8   -370306.111 7
  20842881.294    -7483426.332 8  -6978408.181 9
  23897408.308    -2822044.823 5  -3875889.207 3
  23329996.789    -7082570.720 6  -6615879.110 4
 94  3 18 19 59  0.0000000  0  8 31 27 29 16 18 19 28  2
  22112190.719     6895118.213 7 -11641948.897 5
  21441184.657   -12378313.923 8 -13746795.170 7
  23290438.215     -675293.371 6  10571864.004 3
  24290888.068    -4592982.627 5  -3640119.906 2
  21134624.294    -7919289.191 8   -320150.036 7
  20842804.157    -7483829.271 8  -6978722.154 9
  23907666.787    -2768156.701 6  -3833898.502 3
  23315782.879    -7157315.190 6  -6674121.451 4
 94  3 18 19 59 30.0000000  0  8 31 27 29 16 18 19 28  2
  22112056.262     6894388.445 7 -11642517.532 5
  21432238.610   -12425337.720 8 -13783437.064 7
  23309372.237     -575795.137 6  10649395.032 3
  24284865.957    -4624541.373 5  -3664711.132 2
  21146963.812    -7854448.798 8   -269625.073 7
  20842766.593    -7484028.207 8  -6978877.168 9
  23918015.353    -2713725.237 6  -3791484.430 3
  23301616.906    -7231751.103 6  -6732123.378 4
 94  3 18 20  0  0.0000000  0  8 31 27 29 16 18 19 28  2
  22112030.360     6894254.961 7 -11642621.525 5
  21423328.718   -12472162.575 8 -13819923.948 7
  23328356.475     -476032.640 6  10727131.920 2
  24278963.403    -4655585.203 5  -3688901.192 2
  21159391.408    -7789134.866 8   -218731.128 7
  20842766.473    -7484017.456 8  -6978868.809 9
  23928475.561    -2658740.877 5  -3748639.480 3
  23287502.108    -7305902.624 6  -6789903.699 4
 94  3 18 20  0 30.0000000  0  8 31 27 29 16 18 19 28  2
  22112113.073     6894701.212 7 -11642273.806 5
  21414452.283   -12518799.681 8 -13856264.533 7
  23347396.024     -375999.915 6  10805079.420 2
  24273167.546    -4686097.283 5  -3712676.862 2
  21171910.471    -7723356.497 8   -167475.287 7
  20842807.874    -7483801.272 8  -6978700.361 9
  23939047.682    -2603227.959 6  -3705382.717 3
  23273445.559    -7379799.356 6  -6847485.496 4
 94  3 18 20  1  0.0000000  0  8 31 27 29 16 18 19 28  2
  22112308.238     6895730.192 7 -11641471.998 5
  21405613.532   -12565260.946 8 -13892468.095 7
  23366477.095     -275705.814 6  10883230.566 2
  24267451.043    -4716065.590 5  -3736028.763 2
  21184512.637    -7657128.991 8   -115869.453 7
  20842889.508    -7483377.480 8  -6978370.128 9
  23949701.677    -2547202.860 5  -3661726.822 3
  23259429.692    -7453459.524 6  -6904882.940 4
 94  3 18 20  1 30.0000000  0  8 31 27 29 16 18 19 28  2
  22112617.084     6897343.639 7 -11640214.746 5
  21396801.972   -12611548.718 8 -13928536.461 7
  23385610.329     -175156.283 6  10961580.795 3
  24261861.982    -4745483.961 5  -3758952.207 2
  21197201.922    -7590446.355 8    -63908.992 7
  20843012.693    -7482735.294 8  -6977869.728 9
  23960460.508    -2490681.436 5  -3617684.204 3
  23245456.275    -7526895.243 6  -6962105.523 4
 94  3 18 20  2  0.0000000  0  8 31 27 29 16 18 19 28  2
  22113041.170     6899565.116 7 -11638483.705 5
  21388027.557   -12657669.453 8 -13964474.682 7
  23404794.858      -74348.227 6  11040132.428 3
  24256360.371    -4774350.859 5  -3781445.894 2
  21209974.790    -7523314.159 8    -11598.220 7
  20843180.277    -7481860.554 8  -6977188.112 9
  23971310.207    -2433681.002 5  -3573268.339 3
  23231520.483    -7600111.998 6  -7019157.462 4
 94  3 18 20  2 30.0000000  0  8 31 27 29 16 18 19 28  2
  22113583.135     6902423.778 7 -11636256.156 6
  21379282.041   -12703623.293 8 -14000282.845 7
  23424027.233       26714.669 5  11118882.647 3
  24250978.317    -4802669.313 5  -3803512.239 2
  21222833.158    -7455733.014 8     41062.389 7
  20843392.050    -7480745.387 8  -6976319.149 9
  23982253.771    -2376210.609 5  -3528486.246 3
  23217630.439    -7673107.418 6  -7076036.964 4
 94  3 18 20  3  0.0000000  0  8 31 27 29 16 18 19 28  2
  22114248.195     6905938.089 7 -11633517.728 6
  21370572.560   -12749388.709 8 -14035944.194 7
  23443303.649      128030.367 5  11197829.854 3
  24245684.342    -4830453.030 5  -3825161.895 2
  21235783.893    -7387697.469 8     94077.075 7
  20843651.670    -7479369.857 8  -6975247.311 9
  23993276.600    -2318257.698 5  -3483328.191 3
  23203778.618    -7745871.895 6  -7132736.504 4
 94  3 18 20  3 30.0000000  0  8 31 27 29 16 18 19 28  2
  22115042.225     6910107.502 7 -11630268.818 6
  21361907.299   -12794936.484 8 -14071435.953 7
  23462634.386      229599.252 6  11276974.353 3
  24240499.282    -4857708.096 5  -3846399.628 2
  21248817.340    -7319202.270 8    147449.928 7
  20843963.934    -7477723.425 8  -6973964.366 9
  24004395.093    -2259814.461 5  -3437787.999 3
  23189983.069    -7818392.486 6  -7189245.987 4
 94  3 18 20  4  0.0000000  0  8 31 27 29 16 18 19 28  2
  22115962.947     6914930.588 7 -11626510.534 6
  21353276.424   -12840270.159 8 -14106760.871 7
  23482007.335      331409.416 5  11356306.841 3
  24235415.371    -4884434.231 5  -3867225.161 2
  21261937.217    -7250250.943 8    201178.198 7
  20844328.062    -7475817.619 8  -6972479.327 9
  24015626.638    -2200876.388 5  -3391862.336 3
  23176229.580    -7890661.611 6  -7245559.559 4
 94  3 18 20  4 30.0000000  0  8 31 27 29 16 18 19 28  2
  22117005.146     6920401.943 7 -11622247.136 6
  21344691.418   -12885394.830 8 -14141922.935 7
  23501427.860      433459.861 5  11435826.592 3
  24230436.508    -4910633.495 5  -3887640.232 2
  21275146.133    -7180845.759 8    255260.140 7
  20844737.578    -7473663.792 8  -6970801.007 9
  24026907.348    -2141435.381 5  -3345544.715 3
  23162531.583    -7962659.631 6  -7301661.858 4
 94  3 18 20  5  0.0000000  0  8 31 27 29 16 18 19 28  2
  22118164.623     6926507.042 7 -11617489.889 6
  21336143.555   -12930318.008 8 -14176927.995 7
  23520892.935      535749.790 5  11515532.907 3
  24225545.184    -4936298.554 5  -3907638.964 2
  21288439.740    -7110985.029 8    309697.050 7
  20845190.685    -7471276.310 8  -6968940.625 9
  24038332.529    -2081491.407 5  -3298835.126 3
  23148883.292    -8034368.798 6  -7357539.085 4
 94  3 18 20  5 30.0000000  0  8 31 27 29 16 18 19 28  2
  22119445.187     6933235.309 7 -11612247.064 6
  21327629.479   -12975061.364 8 -14211792.932 7
  23540402.229      638268.923 5  11595417.856 3
  24220763.524    -4961424.570 5  -3927217.680 2
  21301818.218    -7040669.091 8    364488.652 7
  20845686.841    -7468674.911 8  -6966913.562 9
  24049827.981    -2021049.728 5  -3251737.797 3
  23135291.271    -8105784.416 6  -7413187.584 4
 94  3 18 20  6  0.0000000  0  8 31 27 29 16 18 19 28  2
  22120844.798     6940580.299 7 -11606523.652 6
  21319144.244   -13019634.146 8 -14246524.952 7
  23559953.554      741029.373 5  11675490.841 3
  24216087.182    -4986008.342 5  -3946373.869 2
  21315287.294    -6969894.839 8    419637.397 7
  20846226.588    -7465861.742 8  -6964721.483 9
  24061423.113    -1960115.326 5  -3204256.471 3
  23121762.147    -8176910.603 6  -7468610.538 4
 94  3 18 20  6 30.0000000  0  8 31 27 29 16 18 19 28  2
  22122354.673     6948534.630 7 -11600325.453 6
  21310697.831   -13064030.095 8 -14281119.194 7
  23579556.323      844038.596 5  11755757.657 3
  24211513.338    -5010039.629 5  -3965099.578 2
  21328841.540    -6898666.962 8    475139.603 7
  20846802.879    -7462822.220 8  -6962353.016 9
  24073117.508    -1898690.706 5  -3156393.183 3
  23108275.024    -8247754.177 6  -7523813.268 4
 94  3 18 20  7  0.0000000  0  8 31 27 29 16 18 19 28  2
  22123983.025     6957089.606 7 -11593659.204 6
  21302285.774   -13108244.110 8 -14315571.650 7
  23599212.725      947301.365 5  11836222.071 3
  24207048.409    -5033518.229 5  -3983394.584 2
  21342483.476    -6826984.004 8    530996.431 7
  20847420.691    -7459546.480 8  -6959800.480 9
  24084904.568    -1836770.923 5  -3108144.005 3
  23094847.710    -8318327.214 6  -7578805.191 4
 94  3 18 20  7 30.0000000  0  8 31 27 29 16 18 19 28  2
  22125724.670     6966233.706 7 -11586533.922 6
  21293906.575   -13152271.623 8 -14349878.784 7
  23618914.636     1050826.011 5  11916890.509 2
  24202684.390    -5056458.150 5  -4001269.879 2
  21356208.455    -6754863.058 8    587194.532 7
  20848092.196    -7456036.331 8  -6957065.293 9
  24096775.479    -1774354.519 5  -3059507.893 3
  23081470.101    -8388638.306 6  -7633592.993 4
 94  3 18 20  8  0.0000000  0  8 31 27 29 16 18 19 28  2
  22127577.777     6975974.515 7 -11578943.640 6
  21285565.360   -13196105.900 8 -14384035.358 7
  23638665.772     1154622.423 5  11997770.738 2
  24198418.314    -5078854.510 5  -4018721.588 2
  21370012.758    -6682309.634 8    643729.636 7
  20848808.550    -7452278.810 8  -6954137.358 9
  24108760.522    -1711435.107 5  -3010479.809 3
  23068137.551    -8458684.421 6  -7688174.349 4
 94  3 18 20  8 30.0000000  0  8 31 27 29 16 18 19 28  2
  22129546.004     6986314.668 7 -11570886.353 6
  21277258.201   -13239751.184 8 -14418044.644 7
  23658460.678     1258668.716 5  12078845.660 2
  24194260.072    -5100711.323 5  -4035752.868 2
  21383900.674    -6609341.139 8    700588.165 7
  20849570.922    -7448275.025 8  -6951017.520 9
  24120826.629    -1648014.909 5  -2961061.511 3
  23054862.171    -8528462.737 6  -7742547.005 4
 94  3 18 20  9  0.0000000  0  8 31 27 29 16 18 19 28  2
  22131630.071     6997262.282 7 -11562355.751 6
  21268991.304   -13283201.666 8 -14451902.161 7
  23678308.228     1362950.336 5  12160103.949 2
  24190199.743    -5122039.355 5  -4052372.149 2
  21397866.265    -6535950.316 8    757775.796 7
  20850376.765    -7444029.315 8  -6947709.176 9
  24132979.406    -1584106.759 5  -2911262.961 3
  23041634.398    -8597972.056 6  -7796710.045 5
 94  3 18 20  9 30.0000000  0  8 31 27 29 16 18 19 28  2
  22133830.638     7008827.154 7 -11553344.135 6
  21260760.382   -13326452.950 8 -14485604.434 7
  23698190.614     1467446.179 5  12241529.271 2
  24186245.151    -5142816.713 5  -4068562.272 2
  21411913.011    -6462137.820 8    815292.012 7
  20851233.242    -7439543.136 8  -6944213.447 9
  24145226.228    -1519727.492 5  -2861097.290 3
  23028454.743    -8667217.761 6  -7850667.674 5
 94  3 18 20 10  0.0000000  0  8 31 27 29 16 18 19 28  2
  22136149.802     7021022.558 7 -11543841.212 6
  21252570.741   -13369500.910 8 -14519148.289 7
  23718115.540     1572138.049 5  12323107.155 2
  24182401.062    -5163030.662 5  -4084313.411 2
  21426042.709    -6387883.486 8    873152.485 7
  20852132.139    -7434799.367 8  -6940517.001 9
  24157574.589    -1454881.553 5  -2810568.047 3
  23015325.841    -8736201.966 6  -7904421.558 5
 94  3 18 20 10 30.0000000  0  8 31 27 29 16 18 19 28  2
  22138593.920     7033855.840 7 -11533841.226 6
  21244415.997   -13412345.712 8 -14552533.825 7
  23738059.683     1677014.702 5  12404829.151 2
  24178661.421    -5182688.505 5  -4099631.217 2
  21440252.272    -6313189.629 8    931355.456 7
  20853086.529    -7429798.918 8  -6936620.544 9
  24169991.933    -1389576.890 5  -2759681.325 3
  23002247.995    -8804938.877 6  -7957982.737 5
 94  3 18 20 11  0.0000000  0  8 31 27 29 16 18 19 28  2
  22141152.289     7047315.059 7 -11523353.524 6
  21236304.422   -13454988.390 8 -14585761.861 7
  23758060.877     1782073.113 5  12486692.715 2
  24175024.219    -5201795.719 5  -4114520.013 2
  21454552.522    -6238051.278 8    989904.787 7
  20854080.401    -7424551.812 8  -6932531.885 9
  24182503.501    -1323814.917 5  -2708438.257 3
  22989211.010    -8873439.907 6  -8011360.105 5
 94  3 18 20 11 30.0000000  0  8 31 27 29 16 18 19 28  2
  22143834.682     7061397.171 7 -11512380.435 6
  21228224.776   -13497441.605 8 -14618842.281 7
  23778097.116     1887322.067 5  12568704.795 2
  24171493.114    -5220364.763 5  -4128989.345 2
  21468934.256    -6162480.946 8   1048790.736 7
  20855127.186    -7419063.029 8  -6928254.905 9
  24195107.106    -1257594.018 5  -2656837.552 3
  22976219.864    -8941703.279 6  -8064552.319 5
 94  3 18 20 12  0.0000000  0  8 31 27 29 16 18 19 28  2
  22146636.992     7076108.830 7 -11500916.797 6
  21220178.136   -13539717.062 8 -14651784.180 7
  23798152.842     1992765.786 5  12650868.630 2
  24168048.918    -5238430.559 5  -4143066.637 2
  21483394.745    -6086490.775 8   1108003.823 7
  20856217.831    -7413337.478 8  -6923793.446 9
  24207807.034    -1190924.023 5  -2604886.931 3
  22963281.001    -9009724.048 6  -8117555.469 5
 94  3 18 20 12 30.0000000  0  8 31 27 29 16 18 19 28  2
  22149554.992     7091451.961 7 -11488961.114 6
  21212165.164   -13581828.133 8 -14684597.984 7
  23818253.266     2098416.243 5  12733193.525 2
  24164711.838    -5255997.651 5  -4156755.330 2
  21497931.262    -6010095.077 8   1167532.892 6
  20857350.087    -7407391.195 8  -6919159.963 9
  24220558.796    -1123820.330 5  -2552598.382 3
  22950379.733    -9077505.957 6  -8170372.482 5
 94  3 18 20 13  0.0000000  0  8 31 27 29 16 18 19 28  2
  22152591.740     7107420.804 7 -11476517.865 6
  21204185.468   -13623761.671 8 -14717273.452 7
  23838409.932     2204287.205 5  12815690.299 2
  24161464.636    -5273055.838 5  -4170047.388 2
  21512547.913    -5933275.731 8   1227392.108 6
  20858522.725    -7401226.377 8  -6914356.205 9
  24233429.186    -1056286.927 5  -2499974.991 3
  22937530.868    -9145018.987 6  -8222979.995 5
 94  3 18 20 13 30.0000000  0  8 31 27 29 16 18 19 28  2
  22155755.450     7124033.093 7 -11463573.219 6
  21196239.439   -13665509.675 8 -14749804.340 7
  23858599.545     2310382.396 5  12898361.760 2
  24158307.911    -5289588.392 5  -4182929.956 2
  21527247.067    -5856044.291 8   1287572.402 6
  20859734.037    -7394840.822 8  -6909380.452 9
  24246347.393     -988326.966 5  -2447019.198 3
  22924741.332    -9212243.548 6  -8275362.721 5
 94  3 18 20 14  0.0000000  0  8 31 27 29 16 18 19 28  2
  22159034.999     7141277.581 7 -11450135.970 6
  21188333.582   -13707057.284 8 -14782179.086 8
  23878829.061     2416683.509 5  12981193.682 2
  24155282.946    -5305585.692 5  -4195395.402 2
  21542020.899    -5778406.204 8   1348069.572 6
  20860994.694    -7388240.471 8  -6904237.317 9
  24259372.716     -919935.451 5  -2393727.175 3
  22912000.842    -9279177.879 6  -8327519.294 5
 94  3 18 20 14 30.0000000  0  8 31 27 29 16 18 19 28  2
  22162429.549     7159123.191 7 -11436230.306 6
  21180468.737   -13748382.424 8 -14814380.486 8
  23899100.247     2523186.754 5  13064183.112 2
  24152336.405    -5321022.357 5  -4207423.990 2
  21556873.307    -5700358.649 8   1408885.827 6
  20862290.577    -7381425.420 8  -6898926.878 9
  24272471.218     -851097.292 5  -2340087.097 3
  22899321.959    -9345817.795 6  -8379446.450 5
 94  3 18 20 15  0.0000000  0  8 31 27 29 16 18 19 28  2
  22165939.190     7177558.710 7 -11421864.977 6
  21172652.488   -13789464.467 8 -14846392.443 8
  23919384.205     2629871.093 5  13147313.645 2
  24149505.615    -5335904.707 5  -4219020.670 2
  21571802.732    -5621908.924 8   1470015.448 6
  20863630.559    -7374391.902 8  -6893446.206 9
  24285656.120     -781802.288 5  -2286091.038 3
  22886694.851    -9412156.454 6  -8431138.843 5
 94  3 18 20 15 30.0000000  0  8 31 27 29 16 18 19 28  2
  22169558.014     7196583.846 7 -11407040.202 6
  21164880.548   -13830316.646 8 -14878225.305 8
  23939725.513     2736718.637 5  13230571.348 2
  24146775.465    -5350243.009 5  -4230193.367 2
  21586803.747    -5543077.596 8   1531442.422 6
  20865010.054    -7367140.481 8  -6887795.746 9
  24298922.626     -712050.064 5  -2231738.711 3
  22874126.352    -9478223.330 6  -8482619.475 5
 94  3 18 20 16  0.0000000  0  8 31 27 29 16 18 19 28  2
  22173290.071     7216186.906 7 -11391765.112 6
  21157146.053   -13870954.591 8 -14909891.205 8
  23960088.406     2843737.299 5  13313962.403 2
  24144149.913    -5364053.295 5  -4240954.623 2
  21601878.511    -5463850.806 8   1593177.556 6
  20866430.831    -7359668.730 8  -6881973.592 9
  24312283.986     -641843.569 5  -2177032.380 3
  22861600.453    -9544044.742 6  -8533908.831 5
 94  3 18 20 16 30.0000000  0  8 31 27 29 16 18 19 28  2
  22177129.183     7236373.933 7 -11376034.976 6
  21149450.500   -13911391.190 8 -14941400.240 8
  23980500.885     2950940.552 5  13397497.281 2
  24141627.039    -5377332.125 5  -4251301.814 2
  21617029.422    -5384228.573 8   1655220.824 6
  20867897.265    -7351970.140 8  -6875974.689 9
  24325734.355     -571188.055 5  -2121976.181 3
  22849118.025    -9609626.760 6  -8585011.635 5
 94  3 18 20 17  0.0000000  0  8 31 27 29 16 18 19 28  2
  22181091.180     7257173.596 7 -11359827.434 6
  21141789.124   -13951649.221 8 -14972770.109 8
  24000919.269     3058333.736 5  13481180.151 2
  24139193.084    -5390097.871 5  -4261249.156 2
  21632259.179    -5304209.616 8   1717573.221 6
  20869405.431    -7344034.132 8  -6869790.777 9
  24339254.395     -500093.977 5  -2066578.265 3
  22836687.790    -9674969.211 6  -8635927.768 5
 94  3 18 20 17 30.0000000  0  8 31 27 29 16 18 19 28  2
  22185164.430     7278587.745 7 -11343141.103 6
  21134162.344   -13991745.508 8 -15004013.956 8
  24021407.356     3165934.795 5  13565025.034 2
  24136863.067    -5402341.003 5  -4270789.302 2
  21647563.284    -5223789.763 8   1780238.013 6
  20870963.513    -7335847.067 8  -6863411.245 9
  24352867.671     -428563.672 5  -2010840.383 3
  22824295.929    -9740072.644 6  -8686657.677 5
 94  3 18 20 18  0.0000000  0  8 31 27 29 16 18 19 28  2
  22189357.957     7300605.149 7 -11325984.684 6
  21126562.785   -14031673.326 8 -15035126.544 8
  24041918.736     3273747.541 5  13649034.805 2
  24134635.040    -5414056.118 5  -4279917.974 2
  21662940.388    -5142968.232 8   1843215.811 6
  20872569.441    -7327413.289 8  -6856839.463 9
  24366568.246     -356599.087 5  -1954764.115 3
  22811954.942    -9804929.239 6  -8737195.224 5
 94  3 18 20 18 30.0000000  0  8 31 27 29 16 18 19 28  2
  22193661.088     7323224.206 7 -11308359.444 6
  21118996.593   -14071426.806 8 -15066103.264 8
  24062491.754     3381748.706 5  13733191.442 2
  24132513.888    -5425237.147 5  -4288630.480 2
  21678397.748    -5061744.991 8   1906506.627 6
  20874220.278    -7318723.965 8  -6850068.547 9
  24380349.465     -284208.276 5  -1898355.772 3
  22799663.661    -9869522.980 6  -8787527.933 5
 94  3 18 20 19  0.0000000  0  8 31 27 29 16 18 19 28  2
  22198077.571     7346436.638 7 -11290271.820 6
  21111464.187   -14111008.036 8 -15096945.767 8
  24083060.994     3489931.667 5  13817489.720 2
  24130479.377    -5435892.731 5  -4296933.576 2
  21693931.764    -4980120.794 8   1970109.849 6
  20875925.827    -7309783.868 8  -6843102.251 9
  24394206.502     -211405.557 5  -1841626.419 3
  22787421.277    -9933860.237 6  -8837660.808 5
 94  3 18 20 19 30.0000000  0  8 31 27 29 16 18 19 28  2
  22202604.137     7370224.146 7 -11271736.098 6
  21103971.055   -14150404.295 8 -15127644.136 8
  24103664.830     3598293.609 5  13901927.492 2
  24128554.619    -5446005.702 5  -4304813.826 2
  21709537.430    -4898101.186 8   2034021.212 6
  20877667.502    -7300614.999 8  -6835957.662 9
  24408122.359     -138200.840 5  -1784583.809 3
  22775221.372    -9997955.721 6  -8887605.283 5
 94  3 18 20 20  0.0000000  0  8 31 27 29 16 18 19 28  2
  22207240.038     7394599.458 7 -11252742.337 6
  21096506.912   -14189607.876 8 -15158192.368 8
  24124345.593     3706820.847 5  13986494.031 2
  24126732.241    -5455586.414 5  -4312279.306 2
  21725222.571    -4815682.673 8   2098243.402 6
  20879454.145    -7291234.211 8  -6828647.958 9
  24422120.238      -64605.185 5  -1727236.589 3
  22763070.214   -10061810.797 6  -8937362.423 5
 94  3 18 20 20 30.0000000  0  8 31 27 29 16 18 19 28  2
  22211998.194     7419578.026 7 -11233278.519 6
  21089084.291   -14228618.303 8 -15188590.110 8
  24145002.043     3815511.299 5  14071187.765 2
  24125005.916    -5464632.678 5  -4319328.408 2
  21740979.663    -4732865.810 8   2162775.992 6
  20881282.489    -7281632.456 8  -6821166.066 9
  24436197.982        9375.323 5  -1669589.475 3
  22750965.165   -10125421.527 6  -8986929.171 5
 94  3 18 20 21  0.0000000  0  8 31 27 29 16 18 19 28  2
  22216864.125     7445174.177 7 -11213333.449 6
  21081698.004   -14267425.549 8 -15218829.507 8
  24165740.696     3924376.289 5  14156017.459 2
  24123394.322    -5473138.559 5  -4325956.361 2
  21756815.420    -4649661.312 8   2227610.632 6
  20883148.757    -7271825.565 8  -6813524.331 9
  24450388.718       83746.578 5  -1611637.863 3
  22738910.360   -10188782.983 6  -9036301.668 5
 94  3 18 20 21 30.0000000  0  8 31 27 29 16 18 19 28  2
  22221855.220     7471409.654 7 -11192890.216 5
  21074357.046   -14306009.217 8 -15248894.678 8
  24186498.865     4033406.462 5  14240975.940 2
  24121879.950    -5481092.737 5  -4332154.446 2
  21772726.155    -4566056.157 8   2292757.490 6
  20885054.358    -7261800.379 8  -6805712.499 9
  24464575.137      158525.679 5  -1553368.478 3
  22726906.520   -10251870.751 6  -9085460.891 5
 94  3 18 20 22  0.0000000  0  8 31 27 29 16 18 19 28  2
  22226974.116     7498290.654 7 -11171943.981 5
  21067060.218   -14344353.311 8 -15278773.193 8
  24207251.219     4142586.456 5  14326051.114 2
  24120470.236    -5488510.817 5  -4337934.762 2
  21788710.490    -4482044.826 7   2358220.823 6
  20887007.476    -7251527.915 8  -6797707.970 9
  24478909.474      233736.709 5  -1494762.507 3
  22714954.934   -10314670.181 7  -9134395.464 5
 94  3 18 20 22 30.0000000  0  8 31 27 29 16 18 19 28  2
  22232205.225     7525794.163 7 -11150512.668 5
  21059810.876   -14382444.597 8 -15308454.699 8
  24228072.884     4251915.588 5  14411242.492 2
  24119152.528    -5495383.086 5  -4343289.810 2
  21804772.200    -4397636.832 7   2423993.255 6
  20889014.646    -7240997.186 8  -6789502.204 9
  24493305.208      309391.371 5  -1435810.830 3
  22703061.957   -10377167.924 7  -9183094.938 5
 94  3 18 20 23  0.0000000  0  8 31 27 29 16 18 19 28  2
  22237557.839     7553903.181 7 -11128609.529 5
  21052611.270   -14420277.657 8 -15337934.988 8
  24248889.423     4361387.099 5  14496544.812 2
  24117952.039    -5501713.433 5  -4348222.555 2
  21820910.298    -4312837.366 7   2490070.728 6
  20891066.725    -7230200.069 8  -6781088.870 9
  24507763.538      385485.169 5  -1376517.007 3
  22691226.211   -10439353.475 7  -9231551.139 5
 94  3 18 20 23 30.0000000  0  8 31 27 29 16 18 19 28  2
  22243014.212     7582596.527 7 -11106251.068 5
  21045461.520   -14457860.498 8 -15367220.304 9
  24269744.515     4470992.496 5  14581951.480 2
  24116849.493    -5507516.808 5  -4352744.672 2
  21837120.376    -4227651.518 7   2556449.303 6
  20893175.136    -7219123.803 8  -6772458.012 9
  24522352.878      462013.656 5  -1316884.475 3
  22679447.845   -10501238.002 7  -9279772.789 5
 94  3 18 20 24  0.0000000  0  8 31 27 29 16 18 19 28  2
  22248582.347     7611863.323 7 -11083445.783 5
  21038355.120   -14495209.188 8 -15396323.159 9
  24290636.242     4580750.770 5  14667477.260 2
  24115842.700    -5512800.524 5  -4356861.890 2
  21853400.276    -4142100.789 7   2623112.158 6
  20895336.969    -7207779.492 8  -6763618.283 9
  24536998.879      538965.012 5  -1256922.413 3
  22667729.318   -10562833.670 7  -9327769.346 5
 94  3 18 20 24 30.0000000  0  8 31 27 29 16 18 19 28  2
  22254260.356     7641712.002 7 -11060187.068 5
  21031287.483   -14532351.345 8 -15425265.098 9
  24311549.075     4690680.122 5  14753136.370 2
  24114940.474    -5517546.454 5  -4360560.032 2
  21869746.520    -4056195.877 7   2690050.999 6
  20897541.793    -7196182.151 8  -6754581.404 9
  24551713.472      616315.950 5  -1196648.985 3
  22656066.222   -10624127.856 7  -9375531.002 5
 94  3 18 20 25  0.0000000  0  8 31 27 29 16 18 19 28  2
  22260059.332     7672163.348 7 -11036458.767 5
  21024254.621   -14569301.434 8 -15454057.350 9
  24332495.304     4800788.409 5  14838934.852 2
  24114134.692    -5521762.244 5  -4363845.059 2
  21886163.514    -3969921.640 7   2757277.668 6
  20899793.744    -7184337.983 8  -6745352.175 9
  24566499.326      694068.004 5  -1136063.006 3
  22644456.159   -10685131.692 7  -9423066.378 5
 94  3 18 20 25 30.0000000  0  8 31 27 29 16 18 19 28  2
  22265969.770     7703230.800 7 -11012250.362 5
  21017258.035   -14606062.060 8 -15482701.989 9
  24353501.312     4911080.474 5  14924876.603 2
  24113439.923    -5525459.188 5  -4366725.840 2
  21902654.528    -3883269.307 7   2824798.927 6
  20902090.094    -7172266.527 8  -6735945.850 9
  24581373.499      772238.615 5  -1075150.904 3
  22632901.858   -10745863.998 7  -9470390.196 5
 94  3 18 20 26  0.0000000  0  8 31 27 29 16 18 19 28  2
  22271999.735     7734918.144 7 -10987558.940 5
  21010302.760   -14642627.086 8 -15511194.186 9
  24374509.808     5021558.326 5  15010963.069 2
  24112835.991    -5528628.760 5  -4369195.616 2
  21919217.641    -3796234.928 7   2892617.871 6
  20904431.833    -7159971.264 8  -6726365.135 9
  24596324.509      850826.156 5  -1013913.904 3
  22621394.175   -10806319.757 7  -9517498.499 5
 94  3 18 20 26 30.0000000  0  8 31 27 29 16 18 19 28  2
  22278149.648     7767221.572 7 -10962387.436 6
  21003382.651   -14678980.450 8 -15539521.473 9
  24395575.325     5132196.832 5  15097174.780 2
  24112319.748    -5531263.141 5  -4371248.411 2
  21935850.367    -3708806.254 7   2960744.093 6
  20906816.112    -7147449.312 8  -6716607.772 9
  24611364.107      929835.162 5   -952348.495 3
  22609943.452   -10866500.148 7  -9564392.246 5
 94  3 18 20 27  0.0000000  0  8 31 27 29 16 18 19 28  2
  22284410.424     7800134.901 7 -10936740.702 6
  20996510.448   -14715095.862 8 -15567663.338 9
  24416662.486     5242979.096 5  15183498.470 2
  24111923.992    -5533372.811 5  -4372892.358 2
  21952564.756    -3620981.652 7   3029178.826 6
  20909243.322    -7134692.287 8  -6706667.243 9
  24626499.639     1009265.315 5   -890454.907 3
  22598536.439   -10926433.103 7  -9611093.185 5
 94  3 18 20 27 30.0000000  0  8 31 27 29 16 18 19 28  2
  22290782.752     7833640.240 7 -10910632.661 6
  20989684.174   -14750970.311 8 -15595617.448 9
  24437755.254     5353885.067 5  15269918.554 2
  24111634.753    -5534948.666 5  -4374120.323 2
  21969348.247    -3532789.595 7   3097899.871 6
  20911717.269    -7121690.729 8  -6696536.167 9
  24641664.521     1089091.553 5   -828252.681 3
  22587181.590   -10986121.420 7  -9657603.508 5
 94  3 18 20 28  0.0000000  0  8 31 27 29 16 18 19 28  2
  22297280.244     7867736.779 7 -10884063.948 6
  20982901.639   -14786610.954 8 -15623389.367 9
  24458877.941     5464909.931 5  15356431.294 2
  24111428.495    -5535974.501 5  -4374919.705 2
  21986198.442    -3444243.732 7   3166896.591 6
  20914237.834    -7108434.809 8  -6686206.886 9
  24656944.612     1169287.289 5   -765762.569 3
  22575870.180   -11045549.534 7  -9703911.053 5
 94  3 18 20 28 30.0000000  0  8 31 27 29 16 18 19 28  2
  22303877.687     7902426.097 7 -10857033.331 6
  20976162.275   -14822022.089 8 -15650982.442 9
  24480027.040     5576055.868 5  15443038.365 2
  24111337.239    -5536460.205 5  -4375298.192 2
  22003109.494    -3355355.890 7   3236159.816 6
  20916810.893    -7094917.868 8  -6675674.207 9
  24672281.605     1249844.083 5   -702991.095 3
  22564612.644   -11104720.997 7  -9750018.634 5
 94  3 18 20 29  0.0000000  0  8 31 27 29 16 18 19 28  2
  22310585.783     7937702.913 7 -10829544.911 6
  20969464.192   -14857221.839 8 -15678410.818 9
  24501232.799     5687331.879 5  15529746.837 2
  24111349.770    -5536420.406 5  -4375267.152 2
  22020089.619    -3266140.405 7   3305678.341 6
  20919432.099    -7081145.019 8  -6664942.118 9
  24687654.033     1330750.967 5   -639946.794 3
  22553400.166   -11163639.819 7  -9795929.347 5
 94  3 18 20 29 30.0000000  0  8 31 27 29 16 18 19 28  2
  22317417.064     7973566.816 7 -10801599.046 6
  20962805.022   -14892226.098 8 -15705686.862 9
  24522419.882     5798747.831 5  15616564.257 1
  24111453.678    -5535853.633 5  -4374825.562 2
  22037129.343    -3176595.748 7   3375453.340 5
  20922103.099    -7067120.385 8  -6654013.847 9
  24703114.779     1412010.839 5   -576627.478 3
  22542241.081   -11222278.069 7  -9841621.414 5
 94  3 18 20 30  0.0000000  0  8 31 27 29 16 18 19 28  2
  22324347.965     8010023.753 7 -10773191.046 6
  20956182.337   -14927027.139 8 -15732804.534 9
  24543643.269     5910311.468 5  15703496.914 1
  24111662.334    -5534772.141 5  -4373982.851 2
  22054235.710    -3086711.425 7   3445493.053 5
  20924815.262    -7052854.859 8  -6642897.843 9
  24718646.997     1493632.985 5   -513025.894 3
  22531140.546   -11280624.803 7  -9887086.333 5
 94  3 18 20 30 30.0000000  0  8 31 27 29 16 18 19 28  2
  22331404.181     8047060.605 7 -10744331.198 6
  20949600.963   -14961612.178 8 -15759753.916 9
  24564903.891     6022010.088 5  15790534.559 1
  24111954.301    -5533176.970 5  -4372739.907 2
  22071406.323    -2996478.159 7   3515804.660 5
  20927572.543    -7038349.578 8  -6631595.033 9
  24734254.882     1575631.169 5   -449131.262 3
  22520090.316   -11338679.770 7  -9932323.920 6
 94  3 18 20 31  0.0000000  0  8 31 27 29 16 18 19 28  2
  22338562.775     8084679.993 7 -10715017.396 6
  20943061.590   -14995985.330 8 -15786538.179 9
  24586166.821     6133835.689 4  15877671.316 1
  24112372.422    -5531052.440 5  -4371084.448 2
  22088646.039    -2905883.141 7   3586398.147 5
  20930378.540    -7023612.296 8  -6620111.440 9
  24749936.246     1658009.325 5   -384940.548 3
  22509098.096   -11396442.644 7  -9977333.905 6
 94  3 18 20 31 30.0000000  0  8 31 27 29 16 18 19 28  2
  22345823.598     8122876.392 7 -10685253.970 6
  20936564.368   -15030128.606 8 -15813143.324 9
  24607488.510     6245779.500 5  15964900.092 1
  24112867.499    -5528385.995 5  -4369006.710 2
  22105954.856    -2814924.770 7   3657274.741 5
  20933230.826    -7008633.843 8  -6608439.917 9
  24765691.988     1740760.376 5   -320459.251 3
  22498160.288   -11453913.304 7 -10022116.184 6
 94  3 18 20 32  0.0000000  0  8 31 27 29 16 18 19 28  2
  22353207.367     8161646.192 7 -10655043.758 6
  20930108.787   -15064041.190 8 -15839568.716 9
  24628809.990     6357842.730 5  16052221.919 1
  24113484.922    -5525176.011 5  -4366505.429 2
  22123333.015    -2723602.822 7   3728434.669 5
  20936127.031    -6993415.605 8  -6596581.554 9
  24781494.768     1823884.147 5   -255687.537 3
  22487276.922   -11511114.747 7 -10066688.685 6
 94  3 18 20 32 30.0000000  0  8 31 27 29 16 18 19 28  2
  22360689.347     8200978.350 7 -10624395.324 6
  20923695.837   -15097733.252 8 -15865822.266 9
  24650160.309     6470027.520 5  16139638.509 1
  24114206.552    -5521412.803 5  -4363573.117 2
  22140776.889    -2631921.845 7   3799874.351 5
  20939072.372    -6977946.091 8  -6584527.378 9
  24797389.105     1907370.776 5   -190633.068 3
  22476437.566   -11568064.896 7 -10111065.386 6
 94  3 18 20 33  0.0000000  0  8 31 27 29 16 18 19 28  2
  22368284.229     8240878.345 7 -10593304.420 5
  20917327.585   -15131210.767 8 -15891908.637 9
  24671488.774     6582345.335 4  16227158.829 1
  24115025.585    -5517106.708 5  -4360217.759 2
  22158290.495    -2539897.297 7   3871581.732 5
  20942063.431    -6962222.111 8  -6572274.934 9
  24813349.785     1991202.506 5   -125309.667 3
  22465649.984   -11624775.376 7 -10155255.333 6
 94  3 18 20 33 30.0010000  0  8 31 27 29 16 18 19 28  2
  22375979.901     8281343.547 7 -10561773.102 5
  20910995.879   -15164473.509 8 -15917827.659 9
  24692942.102     6694788.936 5  16314776.996 1
  24115944.389    -5512282.488 5  -4356458.617 2
  22175863.969    -2447546.348 7   3943543.482 5
  20945105.515    -6946244.384 8  -6559824.746 9
  24829362.540     2075373.290 5    -59722.122 3
  22454902.754   -11681242.138 7 -10199255.353 6
 94  3 18 20 34  0.0010000  0  8 31 27 29 16 18 19 28  2
  22383795.311     8322387.260 7 -10529790.986 5
  20904704.944   -15197531.198 8 -15943586.881 9
  24714322.790     6807348.186 3  16402485.345 1
  24116955.589    -5506955.815 5  -4352308.032 2
  22193497.911    -2354875.149 7   4015754.751 5
  20948192.238    -6930017.387 8  -6547180.338 9
  24845438.521     2159880.879 5      6127.908 3
  22444205.530   -11737453.739 7 -10243056.575 6
 94  3 18 20 34 30.0010000  0  8 31 27 29 16 18 19 28  2
  22391716.457     8364017.458 7 -10497351.865 5
  20898458.438   -15230364.150 8 -15969170.990 9
  24735785.772     6920007.168 5  16490271.376 1
  24118055.078    -5501126.981 5  -4347766.096 2
  22211194.030    -2261886.224 7   4088213.624 5
  20951323.241    -6913537.724 8  -6534339.037 9
  24861545.710     2244723.860 4     72239.256 3
  22433560.859   -11793394.357 7 -10286646.614 6
 94  3 18 20 35  0.0010000  0  8 31 27 29 16 18 19 28  2
  22399750.445     8406254.224 7 -10464440.109 5
  20892254.503   -15262966.219 8 -15994575.205 9
  24757229.387     7032754.639 4  16578126.432 1
  24119272.085    -5494797.959 5  -4342834.393 2
  22228952.357    -2168576.793 7   4160922.225 5
  20954509.135    -6896814.872 8  -6521308.237 9
  24877782.050     2329913.233 4    138620.541 3
  22422971.920   -11849047.227 7 -10330012.460 6
 94  3 18 20 35 30.0010000  0  8 31 27 29 16 18 19 28  2
  22407906.539     8449087.396 7 -10431063.607 5
  20886092.929   -15295332.345 8 -16019795.546 9
  24778671.473     7145593.920 3  16666052.963 1
  24120570.846    -5487962.376 5  -4337508.044 2
  22246768.393    -2074932.114 7   4233892.062 5
  20957738.649    -6879847.957 8  -6508087.279 9
  24894073.252     2415459.845 4    205280.140 2
  22412435.774   -11904403.494 7 -10373147.168 6
 94  3 18 20 36  0.0010000  0  8 31 27 29 16 18 19 28  2
  22416162.434     8492507.535 7 -10397229.725 5
  20879981.959   -15327453.419 8 -16044824.947 9
  24800209.043     7258526.328 5  16754052.062 1
  24121965.781    -5480602.064 5  -4331772.737 2
  22264654.730    -1980944.401 7   4307129.189 5
  20961012.353    -6862636.089 8  -6494675.424 9
  24910410.712     2501366.415 4    272220.290 2
  22401960.575   -11959457.519 7 -10416046.369 6
 94  3 18 20 36 30.0010000  0  8 31 27 29 16 18 19 28  2
  22424533.658     8536496.420 7 -10362952.686 5
  20873919.526   -15359321.485 8 -16069657.202 9
  24821717.413     7371546.583 4  16842119.612 1
  24123475.236    -5472711.458 5  -4325624.268 2
  22282603.365    -1886620.971 7   4380627.908 5
  20964335.313    -6845179.516 8  -6481072.904 9
  24926844.944     2587628.025 4    339437.052 2
  22391538.620   -12014213.812 7 -10458713.568 6
 94  3 18 20 37  0.0010000  0  8 31 27 29 16 18 19 28  2
  22433011.369     8581039.255 7 -10328243.998 5
  20867899.694   -15390951.288 8 -16094303.787 9
  24843245.449     7484668.995 4  16930266.748 1
  24125061.947    -5464304.083 5  -4319073.121 2
  22300619.213    -1791953.600 7   4454394.654 5
  20967703.361    -6827471.870 8  -6467274.733 9
  24943294.227     2674242.638 4    406928.842 2
  22381177.463   -12068673.534 7 -10501149.684 6
 94  3 18 20 37 30.0010000  0  8 31 27 29 16 18 19 28  2
  22441591.999     8626129.446 7 -10293108.793 5
  20861929.866   -15422319.695 8 -16118746.700 9
  24864757.896     7597898.856 3  17018497.663 1
  24126761.351    -5455379.134 5  -4312118.614 2
  22318699.186    -1696946.894 7   4528425.792 5
  20971125.012    -6809495.966 8  -6453267.548 9
  24959860.098     2761203.624 5    474690.655 2
  22370871.408   -12122836.060 7 -10543354.197 6
 94  3 18 20 38  0.0010000  0  7 31 27 29 16 18 19  2
  22450284.991     8671784.454 7 -10257533.480 5
  20856013.912   -15453417.291 8 -16142978.577 9
  24886356.264     7711224.675 5  17106803.341 1
  24128573.026    -5445939.668 5  -4304763.228 2
  22336839.148    -1601614.505 7   4602710.721 5
  20974597.358    -6791249.401 9  -6439049.438 9
  22360617.906   -12176707.205 7 -10585331.664 6
 94  3 18 20 38 30.0010000  0  7 31 27 29 16 18 19  2
  22459074.876     8718004.871 7 -10221517.600 5
  20850145.625   -15484259.945 8 -16167011.811 9
  24907931.908     7824648.381 4  17195185.306 1
  24130451.676    -5435998.952 5  -4297017.277 2
  22355037.959    -1505968.275 7   4677240.206 5
  20978120.699    -6772734.194 9  -6424622.007 9
  22350415.669   -12230315.567 7 -10627104.371 6
 94  3 18 20 39  0.0010000  0  6 31 27 16 18 19  2
  22467980.001     8764791.166 7 -10185060.756 5
  20844323.565   -15514847.654 8 -16190846.375 9
  24132451.831    -5425563.478 5  -4288885.749 2
  22373297.778    -1410025.429 7   4752000.815 5
  20981691.857    -6753956.326 8  -6409989.906 9
  22340259.120   -12283680.552 7 -10668687.445 6
 94  3 18 20 39 30.0010000  0  7 31 27  7 16 18 19  2
  22476988.405     8812147.813 7 -10148159.511 5
  20838551.151   -15545177.752 8 -16214480.212 9
  25064357.526    -4051496.74315  -3154775.971 1
  24134528.224    -5414628.978 5  -4280365.456 2
  22391608.772    -1313807.796 7   4826975.530 5
  20985312.720    -6734930.164 9  -6395164.331 9
  22330148.950   -12336820.865 7 -10710095.454 6
 94  3 18 20 40  0.0010000  0  7 31 27  7 16 18 19  2
  22486110.160     8860080.115 7 -10110809.673 5
  20832828.803   -15575269.894 8 -16237928.616 9
  25044348.958    -4156526.530 4  -3236617.167 1
  24136702.169    -5403197.799 5  -4271458.039 2
  22409970.190    -1217311.555 7   4902167.378 5
  20988977.263    -6715667.549 9  -6380154.501 9
  22320082.398   -12389730.837 7 -10751323.944 6
 94  3 18 20 40 30.0010000  0  7 31 27  7 16 18 19  2
  22495339.091     8908575.808 7 -10073020.833 5
  20827144.288   -15605129.788 8 -16261196.065 9
  25024375.405    -4261581.087 5  -3318477.693 1
  24138967.131    -5391271.173 5  -4262164.609 2
  22428383.833    -1120539.551 7   4977574.071 5
  20992688.784    -6696169.457 9  -6364961.197 9
  22310057.129   -12442402.358 7 -10792366.650 6
 94  3 18 20 41  0.0010000  0  7 31 27  7 16 18 19  2
  22504676.996     8957642.786 7 -10034786.854 5
  20821509.119   -15634729.755 8 -16284260.967 9
  25004366.717    -4366653.732 5  -3400352.216 1
  24141341.127    -5378831.416 5  -4252471.369 2
  22446856.355    -1023476.355 7   5053207.667 5
  20996443.864    -6676441.621 9  -6349588.867 9
  22300084.593   -12494810.637 7 -10833204.221 6
 94  3 18 20 41 30.0010000  0  7 31 27  7 16 18 19  2
  22514121.268     9007282.432 7  -9996106.614 6
  20815925.934   -15664080.466 8 -16307131.645 9
  24984378.834    -4471739.754 5  -3482237.193 1
  24143795.378    -5365874.880 5  -4242375.391 2
  22465386.437     -926099.475 7   5129085.723 5
  21000241.006    -6656486.947 8  -6334039.777 9
  22290164.700   -12546935.759 7 -10873821.170 6
 94  3 18 20 42  0.0010000  0  7 31 27  7 16 18 19  2
  22523675.054     9057479.668 7  -9956991.894 6
  20810386.879   -15693187.195 8 -16329812.201 9
  24964381.868    -4576831.792 5  -3564126.893 1
  24146366.758    -5352398.944 5  -4231874.741 2
  22483979.145     -828404.714 7   5205211.445 5
  21004085.904    -6636285.381 8  -6318298.307 9
  22280302.607   -12598763.005 7 -10914205.999 6
 94  3 18 20 42 30.0010000  0  7 31 27  7 16 18 19  2
  22533328.431     9108225.266 6  -9917449.882 6
  20804893.842   -15722041.065 8 -16352295.737 9
  24944384.002    -4681924.056 5  -3646016.717 1
  24149032.932    -5338396.238 5  -4220963.551 2
  22502628.874     -730383.454 7   5281591.604 5
  21007978.349    -6615826.874 8  -6302356.631 9
  22270499.574   -12650300.459 7 -10954365.013 6
 94  3 18 20 43  0.0010000  0  7 31 27  7 16 18 19  2
  22543094.051     9159517.011 7  -9877482.277 6
  20799451.799   -15750652.946 8 -16374590.706 9
  24924383.259    -4787024.086 5  -3727912.637 1
  24151801.786    -5323874.998 5  -4209648.390 2
  22521345.727     -632027.228 7   5358232.764 5
  21011923.258    -6595097.684 8  -6286204.019 9
  22260747.385   -12701551.878 7 -10994301.137 6
 94  3 18 20 43 30.0010000  0  7 31 27  7 16 18 19  2
  22552957.822     9211341.405 7  -9837099.643 6
  20794047.710   -15779049.024 8 -16396717.506 9
  24904377.538    -4892145.445 5  -3809825.166 1
  24154645.467    -5308858.085 5  -4197946.924 2
  22540120.649     -533360.373 7   5435116.001 5
  21015923.959    -6574074.988 8  -6269822.696 9
  22251045.832   -12752521.029 7 -11034017.339 6
 94  3 18 20 44  0.0010000  0  7 31 27  7 16 18 19  2
  22562918.666     9263693.180 7  -9796306.046 6
  20788684.693   -15807222.920 8 -16418671.193 9
  24884374.606    -4997292.958 5  -3891758.045 1
  24157600.581    -5293350.832 5  -4185863.403 2
  22558953.701     -434397.842 7   5512229.595 5
  21019982.189    -6552754.527 8  -6253209.369 9
  22241400.339   -12803212.627 7 -11073517.250 6
 94  3 18 20 44 30.0010000  0  7 31 27  7 16 18 19  2
  22572980.391     9316594.799 7  -9755084.005 5
  20783368.413   -15835170.334 8 -16440448.393 9
  24864350.688    -5102465.685 5  -3973710.539 1
  24160652.139    -5277356.142 5  -4173400.086 2
  22577841.945     -335135.510 7   5589576.827 5
  21024092.883    -6531156.375 8  -6236379.646 9
  22231803.832   -12853629.004 7 -11112802.711 6
 94  3 18 20 45  0.0010000  0  7 31 27  7 16 18 19  2
  22583157.415     9370046.316 7  -9713433.470 5
  20778095.874   -15862883.615 8 -16462043.148 9
  24844338.013    -5207662.585 5  -4055681.959 1
  24163778.374    -5260883.792 5  -4160564.515 2
  22596782.773     -235592.780 7   5667142.554 5
  21028254.572    -6509274.569 8  -6219328.894 9
  22222262.878   -12903770.672 7 -11151874.107 6
 94  3 18 20 45 30.0010000  0  7 31 27  7 16 18 19  2
  22593430.254     9424040.413 7  -9671360.139 5
  20772867.493   -15890342.285 8 -16483439.520 9
  24824315.474    -5312860.440 5  -4137653.945 1
  24167011.156    -5243926.753 5  -4147351.283 2
  22615778.762     -135774.012 7   5744923.344 5
  21032469.205    -6487135.425 8  -6202077.623 9
  22212774.626   -12953631.156 7 -11190726.411 6
 94  3 18 20 46  0.0010000  0  7 31 27  7 16 18 19  2
  22603812.546     9478588.366 7  -9628855.227 5
  20767697.152   -15917524.750 8 -16504620.650 9
  24804303.188    -5418029.686 5  -4219603.695 1
  24170332.737    -5226472.590 5  -4133750.720 2
  22634831.652      -35656.772 7   5822936.724 5
  21036727.846    -6464749.537 8  -6184634.081 9
  22203339.468   -13003214.714 7 -11229362.929 6
 94  3 18 20 46 30.0010000  0  7 31 27  7 16 18 19  2
  22614294.610     9533689.611 7  -9585919.197 5
  20762577.177   -15944422.408 8 -16525579.861 9
  24784311.198    -5523156.759 5  -4301520.628 1
  24173736.161    -5208524.135 5  -4119764.910 2
  22653941.772       64760.124 7   5901183.623 5
  21041037.753    -6442106.887 8  -6166990.456 9
  22193959.322   -13052519.331 7 -11267782.077 6
 94  3 18 20 47  0.0010000  0  7 31 27  7 16 18 19  2
  22624881.061     9589313.763 7  -9542575.704 5
  20757511.494   -15971032.028 8 -16546314.624 9
  24764304.998    -5628234.893 5  -4383399.453 1
  24177249.159    -5190079.438 5  -4105392.533 2
  22673102.528      165464.302 7   5979654.346 4
  21045396.105    -6419200.209 8  -6149141.103 9
  22184627.502   -13101540.644 7 -11305980.485 6
 94  3 18 20 47 30.0010000  0  7 31 27  7 16 18 19  2
  22635561.917     9645465.984 7  -9498820.750 5
  20752500.013   -15997364.801 8 -16566833.655 9
  24744317.236    -5733262.548 5  -4465238.890 2
  24180856.981    -5171134.781 5  -4090630.495 2
  22692321.443      266458.717 7   6058351.242 4
  21049800.716    -6396052.062 8  -6131103.605 9
  22175356.030   -13150271.780 7 -11343952.773 6
 94  3 18 20 48  0.0010000  0  7 31 27  7 16 18 19  2
  22646354.115     9702158.189 7  -9454645.024 5
  20747542.705   -16023435.353 8 -16587148.376 9
  24724339.816    -5838258.923 5  -4547053.986 1
  24184559.508    -5151693.804 5  -4075481.758 2
  22711592.462      367728.252 7   6137262.530 4
  21054254.823    -6372636.051 8  -6112857.361 9
  22166136.153   -13198722.183 7 -11381706.324 6
 94  3 18 20 48 30.0010000  0  7 31 27  7 16 18 19  2
  22657245.365     9759387.616 7  -9410050.667 5
  20742631.025   -16049246.684 8 -16607261.095 9
  24704361.796    -5943243.662 5  -4628859.980 1
  24188351.852    -5131754.384 5  -4059944.632 2
  22730913.576      469252.406 7   6216372.179 4
  21058764.481    -6348945.783 8  -6094397.427 9
  22156972.757   -13246877.412 7 -11419229.862 6
 94  3 18 20 49  0.0010000  0  7 31 27  7 16 18 19  2
  22668237.016     9817155.742 7  -9365036.588 5
  20737766.053   -16074813.975 8 -16627183.644 9
  24684379.310    -6048220.776 5  -4710660.058 1
  24192236.953    -5111314.779 5  -4044017.686 2
  22750278.490      571019.085 7   6295670.838 4
  21063323.904    -6324993.069 8  -6075732.974 9
  22147863.923   -13294736.512 7 -11456522.625 6
 94  3 18 20 49 30.0010000  0  7 31 27  7 16 18 19  2
  22679337.042     9875480.380 7  -9319588.835 5
  20732945.510   -16100142.270 8 -16646919.981 9
  24664407.526    -6153209.082 5  -4792468.940 1
  24196219.756    -5090387.141 5  -4027710.442 2
  22769690.831      673027.990 7   6375158.272 4
  21067930.305    -6300777.657 8  -6056863.830 9
  22138809.741   -13342316.061 7 -11493597.569 6
 94  3 18 20 50  0.0010000  0  7 31 27  7 16 18 19  2
  22690537.887     9934341.784 7  -9273722.811 5
  20728169.667   -16125226.868 8 -16666466.406 9
  24644425.309    -6258215.285 5  -4874291.695 2
  24200305.927    -5068984.727 5  -4011033.371 2
  22789152.068      775280.691 7   6454835.659 4
  21072593.787    -6276284.731 8  -6037778.432 9
  22129806.434   -13389621.522 7 -11530458.929 6
 94  3 18 20 50 30.0010000  0  7 31 27  7 16 18 19  2
  22701837.605     9993725.469 7  -9227449.840 5
  20723449.165   -16150053.393 8 -16685811.743 9
  24624443.602    -6363224.059 5  -4956116.523 2
  24204458.592    -5047108.349 5  -3993986.890 2
  22808653.508      877786.091 7   6534709.917 4
  21077301.308    -6251541.992 8  -6018498.379 9
  22120857.809   -13436656.733 7 -11567109.711 6
 94  3 18 20 51  0.0010000  0  7 31 27  7 16 18 19  2
  22713236.853    10053627.748 7  -9180772.762 5
  20718778.758   -16174600.446 8 -16704939.319 9
  24604461.925    -6468209.485 4  -5037923.156 2
  24208702.874    -5024751.856 5  -3976566.353 2
  22828211.848      980557.604 7   6614791.576 4
  21082056.406    -6226545.684 8  -5999020.759 9
  22111956.731   -13483431.663 7 -11603557.671 7
 94  3 18 20 51 30.0010000  0  7 31 27  7 16 18 19  2
  22724733.684    10114035.272 7  -9133701.978 5
  20714164.143   -16198844.518 8 -16723830.789 9
  24584492.660    -6573163.118 4  -5119705.058 2
  24213062.845    -5001925.163 5  -3958779.341 2
  22847821.242     1083610.135 7   6695092.211 4
  21086861.420    -6201294.130 8  -5979344.224 9
  22103104.609   -13529952.671 7 -11639807.780 7
 94  3 18 20 52  0.0010000  0  7 31 27  7 16 18 19  2
  22736319.164    10174936.218 7  -9086246.719 5
  20709608.077   -16222772.064 8 -16742475.631 9
  24564525.883    -6678059.572 4  -5201442.364 2
  24217504.391    -4978614.927 5  -3940615.575 2
  22867483.341     1186936.127 6   6775605.906 4
  21091715.149    -6175785.463 8  -5959467.351 9
  22094304.501   -13576205.832 7 -11675849.166 7
 94  3 18 20 52 30.0010000  0  7 31 27  7 16 18 19  2
  22748012.419    10236341.517 7  -9038398.451 5
  20705117.665   -16246389.337 8 -16760878.683 9
  24544579.221    -6782891.910 4  -5283129.706 2
  24222021.933    -4954818.115 5  -3922072.655 2
  22887197.393     1290523.599 6   6856323.361 4
  21096620.174    -6150015.502 8  -5939386.863 9
  22085548.673   -13622205.213 7 -11711692.814 7
 94  3 18 20 53  0.0010000  0  7 31 27  7 16 18 19  2
  22759786.588    10298250.424 7  -8990157.766 5
  20700676.120   -16269714.453 8 -16779054.100 9
  24524633.310    -6887665.029 5  -5364770.914 2
  24226635.110    -4930544.782 5  -3903158.414 2
  22906955.665     1394370.293 6   6937242.828 4
  21101577.302    -6123966.446 8  -5919088.909 9
  22076845.458   -13667946.301 7 -11747335.201 7
 94  3 18 20 53 30.0010000  0  7 31 27  7 16 18 19  2
  22771662.956    10360671.420 7  -8941518.037 5
  20696290.037   -16292765.632 8 -16797016.054 9
  24504715.159    -6992383.277 5  -5446369.344 2
  24231346.558    -4905803.706 5  -3883879.751 2
  22926769.008     1498476.384 6   7018364.400 3
  21106588.033    -6097638.758 8  -5898573.825 9
  22068188.501   -13713424.525 7 -11782772.734 7
 94  3 18 20 54  0.0010000  0  7 31 27  7 16 18 19  2
  22783648.478    10423621.844 7  -8892465.791 5
  20691952.250   -16315559.433 8 -16814777.450 9
  24484796.828    -7097052.741 5  -5527929.747 2
  24236148.004    -4880585.840 5  -3864229.522 2
  22946624.143     1602825.451 6   7099675.289 3
  21111651.918    -6071030.213 8  -5877839.903 9
  22059583.528   -13758644.120 7 -11818008.751 7
 94  3 18 20 54 30.0010000  0  7 31 27  7 16 18 19  2
  22795725.288    10487101.656 7  -8843001.033 5
  20687661.800   -16338102.462 8 -16832343.455 9
  24464888.090    -7201673.689 5  -5609452.344 2
  24241034.801    -4854902.056 5  -3844216.200 2
  22966530.362     1707419.332 7   7181176.978 3
  21116764.008    -6044154.945 8  -5856898.143 9
  22051028.770   -13803617.716 7 -11853053.084 7
 94  3 18 20 55  0.0010000  0  7 31 27  7 16 18 19  2
  22807905.705    10551100.364 7  -8793131.922 5
  20683422.045   -16360384.663 8 -16849706.200 9
  24444989.726    -7306246.158 5  -5690937.193 2
  24246011.595    -4828753.413 5  -3823840.728 2
  22986476.124     1812253.437 7   7262865.828 3
  21121926.734    -6017024.655 8  -5835757.655 9
  22042519.611   -13848324.319 7 -11887889.373 7
 94  3 18 20 55 30.0010000  0  7 31 27  7 16 18 19  2
  22820181.637    10615618.660 6  -8742857.945 5
  20679231.456   -16382394.818 8 -16866856.966 9
  24425097.537    -7410773.855 5  -5772387.075 2
  24251083.065    -4802134.125 5  -3803098.464 2
  23006470.722     1917318.052 7   7344734.299 3
  21127138.087    -5989647.819 8  -5814425.076 9
  22034063.545   -13892760.872 7 -11922515.250 7
 94  3 18 20 56  0.0010000  0  7 31 27  7 16 18 19  2
  22832554.881    10680645.486 6  -8692187.720 5
  20675099.956   -16404121.837 8 -16883787.117 9
  24405205.528    -7515253.518 5  -5853799.537 2
  24256231.101    -4775039.202 5  -3781985.570 2
  23026506.241     2022612.523 6   7426781.904 3
  21132396.536    -5962016.128 8  -5792893.884 9
  22025660.123   -13936918.316 7 -11956923.622 7
 94  3 18 20 56 30.0010000  0  7 31 27  7 16 18 19  2
  22845020.371    10746158.091 6  -8641138.964 5
  20671018.402   -16425566.372 8 -16900497.133 9
  24385336.003    -7619680.005 5  -5935170.590 2
  24261483.015    -4747473.116 5  -3760505.606 2
  23046585.891     2128142.561 6   7509013.029 3
  21137705.441    -5934120.450 8  -5771157.020 9
  22017313.511   -13980778.613 7 -11991100.454 7
 94  3 18 20 57  0.0010000  0  7 31 27  7 16 18 19  2
  22857580.386    10812142.570 6  -8589722.489 5
  20666990.630   -16446735.869 8 -16916992.845 9
  24365474.243    -7724063.775 5  -6016508.354 2
  24266812.725    -4719439.809 5  -3738661.521 2
  23066717.344     2233902.314 7   7591423.140 3
  21143064.771    -5905945.206 8  -5749202.296 9
  22009026.978   -14024332.254 7 -12025038.331 7
 94  3 18 20 57 30.0010000  0  7 31 27  7 16 18 19  2
  22870227.491    10878609.341 6  -8537930.239 5
  20663014.393   -16467631.081 8 -16933274.831 9
  24345622.736    -7828396.758 5  -6097806.549 2
  24272243.106    -4690944.754 5  -3716457.662 2
  23086887.500     2339901.712 6   7674020.042 3
  21148481.391    -5877485.457 8  -5727025.875 9
  22000794.317   -14067585.904 7 -12058742.456 7
 94  3 18 20 58  0.0010000  0  7 31 27  7 16 18 19  2
  22882967.052    10945564.966 6  -8485757.045 5
  20659090.529   -16488252.294 8 -16949343.297 9
  24325787.178    -7932663.089 5  -6179052.838 2
  24277753.501    -4661993.689 5  -3693898.406 2
  23107103.615     2446146.669 6   7756808.243 3
  21153952.663    -5848729.780 8  -5704618.863 9
  21992619.876   -14110545.658 7 -12092217.561 7
 94  3 18 20 58 30.0010000  0  7 31 27  7 16 18 19  2
  22895804.225    11013028.200 6  -8433188.335 5
  20655220.928   -16508587.424 8 -16965188.863 9
  24305959.984    -8036844.558 5  -6260232.946 2
  24283345.350    -4632587.078 5  -3670984.229 2
  23127368.926     2552632.015 6   7839783.764 3
  21159479.697    -5819679.166 8  -5681982.036 8
  21984501.496   -14153215.811 7 -12125467.008 7
 94  3 18 20 59  0.0010000  0  7 31 27  7 16 18 19  2
  22908742.158    11081010.664 6  -8380215.016 5
  20651407.478   -16528622.730 8 -16980800.785 9
  24286150.088    -8140935.700 5  -6341342.737 2
  24289016.044    -4602719.249 5  -3647710.674 2
  23147678.246     2659354.603 7   7922944.167 3
  21165064.021    -5790334.673 8  -5659116.219 8
  21976431.773   -14195610.868 7 -12158502.096 7
 94  3 18 20 59 30.0010000  0  7 31 27  7 16 18 19  2
  22921781.181    11149525.889 6  -8326826.551 4
  20647656.175   -16548343.040 8 -16996167.258 9
  24266359.769    -8244929.457 5  -6422376.639 2
  24294804.107    -4572383.703 5  -3624072.672 2
  23168027.978     2766312.519 7   8006287.908 3
  21170702.338    -5760695.265 8  -5636020.590 8
  21968415.053   -14237734.570 7 -12191325.748 7
 94  3 18 21  0  0.0010000  0  7 31 27  7 16 18 19  2
  22934916.648    11218563.663 6  -8273030.899 4
  20643962.102   -16567742.174 8 -17011283.466 9
  24246596.281    -8348817.010 5  -6503327.804 2
  24300658.574    -4541580.914 5  -3600070.550 2
  23188427.895     2873497.163 6   8089808.340 3
  21176402.142    -5730751.348 8  -5612687.668 8
  21960453.944   -14279583.747 7 -12223935.469 7
 94  3 18 21  0 30.0010000  0  7 31 27  7 16 18 19  2
  22948153.924    11288099.872 6  -8218846.849 4
  20640333.564   -16586825.500 8 -17026153.592 9
  24226839.148    -8452610.025 5  -6584205.322 2
  24306616.140    -4510322.038 5  -3575713.077 2
  23208863.518     2980884.918 6   8173487.052 3
  21182158.217    -5700512.836 8  -5589125.209 8
  21952542.241   -14321145.209 7 -12256320.990 7
 94  3 18 21  1  0.0010000  0  7 31 27  7 16 18 19  2
  22961476.910    11358113.155 6  -8164291.067 4
  20636757.670   -16605605.502 8 -17040787.369 9
  24207106.029    -8556333.095 5  -6665028.326 2
  24312650.362    -4478615.248 5  -3551006.559 2
  23229332.688     3088463.917 6   8257314.745 3
  21187964.717    -5669985.092 8  -5565337.363 8
  21944689.807   -14362424.271 7 -12288486.475 7
 94  3 18 21  1 30.0010000  0  7 31 27  7 16 18 19  2
  22974882.280    11428594.602 6  -8109370.491 4
  20633240.685   -16624089.529 8 -17055190.510 9
  24187380.765    -8659978.197 5  -6745790.603 2
  24318754.227    -4446479.463 5  -3525965.739 2
  23249839.301     3196235.864 6   8341292.810 3
  21193830.367    -5639174.254 8  -5541328.933 8
  21936888.878   -14403418.693 7 -12320430.156 7
 94  3 18 21  2  0.0010000  0  7 31 27  7 16 18 19  2
  22988387.570    11499533.051 6  -8054093.789 4
  20629778.232   -16642283.328 8 -17069367.486 9
  24167669.081    -8763537.233 5  -6826485.774 2
  24324954.295    -4413921.285 5  -3500595.819 2
  23270387.376     3304206.800 6   8425425.953 3
  21199746.021    -5608087.048 8  -5517105.147 8
  21929140.262   -14444133.071 7 -12352155.627 7
 94  3 18 21  2 30.0010000  0  7 31 27  7 16 18 19  2
  23001975.364    11570940.362 6  -7998451.780 4
  20626373.099   -16660179.839 8 -17083312.834 9
  24147981.350    -8867012.166 5  -6907115.422 2
  24331237.675    -4380928.311 5  -3474887.077 2
  23290974.184     3412387.105 6   8509722.223 3
  21205712.071    -5576725.832 8  -5492667.829 8
  21921445.909   -14484575.981 7 -12383669.554 7
 94  3 18 21  3  0.0010000  0  7 31 27  7 16 18 19  2
  23015653.814    11642825.091 6  -7942437.725 4
  20623026.726   -16677774.545 8 -17097023.001 9
  24128304.472    -8970388.053 5  -6987667.865 2
  24337591.806    -4347490.888 5  -3448832.019 2
  23311603.862     3520792.158 6   8594193.587 3
  21211734.961    -5545088.895 8  -5468015.697 8
  21913793.167   -14524773.034 7 -12414991.912 7
 94  3 18 21  3 30.0010000  0  7 31 27  7 16 18 19  2
  23029416.597    11715185.530 6  -7886052.994 4
  20619734.615   -16695073.257 8 -17110502.516 9
  24108662.820    -9073651.273 5  -7068132.570 2
  24344042.470    -4313613.683 5  -3422434.271 2
  23332277.281     3629425.502 6   8678842.897 3
  21217804.590    -5513184.798 8  -5443155.370 8
  21906191.809   -14564724.713 7 -12446123.079 7
 94  3 18 21  4  0.0010000  0  7 31 27  7 16 18 19  2
  23043284.186    11788019.850 6  -7829299.016 4
  20616499.494   -16712067.173 8 -17123744.540 9
  24089020.598    -9176817.753 5  -7148521.859 2
  24350581.663    -4279287.595 5  -3395686.753 2
  23352990.451     3738275.705 6   8763661.157 3
  21223923.953    -5481018.099 8  -5418090.425 8
  21898636.619   -14604429.780 7 -12477062.072 7
 94  3 18 21  4 30.0010000  0  7 31 27  7 16 18 19  2
  23057234.279    11861328.452 6  -7772175.472 4
  20613324.902   -16728753.422 8 -17136746.816 9
  24069406.467    -9279887.601 5  -7228835.857 2
  24357199.372    -4244510.633 5  -3368587.873 2
  23373735.909     3847327.254 6   8848636.311 3
  21230099.738    -5448580.546 8  -5392814.414 8
  21891129.696   -14643873.340 8 -12507797.289 7
 94  3 18 21  5  0.0010000  0  7 31 27  7 16 18 19  2
  23071268.883    11935097.233 6  -7714693.334 4
  20610207.360   -16745141.390 8 -17149516.662 9
  24049823.364    -9382851.530 5  -7309067.330 3
  24363910.166    -4209291.654 5  -3341144.609 2
  23394535.660     3956574.442 6   8933763.906 3
  21236324.149    -5415875.571 8  -5367330.030 8
  21883677.425   -14683037.384 8 -12538314.700 7
 94  3 18 21  5 30.0010000  0  7 31 27  7 16 18 19  2
  23085395.313    12009322.572 6  -7656855.412 4
  20607145.280   -16761233.699 8 -17162056.125 9
  24030238.582    -9485715.446 5  -7389220.885 3
  24370674.023    -4173644.489 5  -3313367.629 2
  23415357.026     4066010.632 6   9019038.768 3
  21242595.807    -5382911.564 8  -5341643.798 8
  21876278.338   -14721911.660 8 -12568606.317 7
 94  3 18 21  6  0.0010000  0  7 31 27  7 16 18 19  2
  23099606.765    12084003.977 6  -7598662.147 4
  20604137.462   -16777022.020 8 -17174358.709 9
  24010685.908    -9588475.891 5  -7469293.762 3
  24377533.305    -4137572.710 5  -3285259.814 2
  23436211.488     4175633.693 6   9104459.264 3
  21248921.907    -5349666.851 8  -5315738.828 8
  21868937.470   -14760492.126 8 -12598668.996 7
 94  3 18 21  6 30.0010000  0  7 31 27  7 16 18 19  2
  23113906.386    12159140.910 6  -7540113.913 5
  20601191.822   -16792516.595 8 -17186432.420 9
  23991158.147    -9691109.023 5  -7549267.479 3
  24384492.627    -4101077.447 5  -3256822.033 2
  23457117.725     4285448.847 6   9190029.443 3
  21255301.641    -5316128.296 8  -5289604.909 8
  21861655.421   -14798781.763 7 -12628505.048 7
 94  3 18 21  7  0.0010000  0  7 31 27  7 16 18 19  2
  23128290.668    12234730.518 6  -7481212.953 5
  20598297.895   -16807718.662 8 -17198278.188 9
  23971649.752    -9793611.658 5  -7629139.502 3
  24391511.758    -4064160.740 5  -3228055.768 2
  23478050.044     4395464.803 6   9275756.055 3
  21261741.453    -5282297.476 8  -5263243.234 8
  21854420.739   -14836798.806 7 -12658128.695 7
 94  3 18 21  7 30.0010000  0  7 31 27  7 16 18 19  2
  23142756.433    12310756.925 6  -7421971.600 5
  20595463.178   -16822616.622 8 -17209886.981 9
  23952170.587    -9896003.264 5  -7708924.999 3
  24398613.122    -4026824.543 5  -3198962.741 2
  23499018.668     4505665.620 6   9361626.750 3
  21268235.467    -5248170.174 8  -5236650.549 8
  21847232.496   -14874557.148 7 -12687550.745 7
 94  3 18 21  8  0.0010000  0  7 31 27  7 16 18 19  2
  23157302.543    12387200.649 6  -7362405.109 4
  20592685.421   -16837211.394 8 -17221259.540 9
  23932699.487    -9998291.645 5  -7788630.085 3
  24405807.571    -3989058.984 5  -3169535.086 2
  23520021.738     4616037.158 6   9447630.458 3
  21274790.219    -5213737.366 8  -5209819.805 8
  21840096.086   -14912059.840 7 -12716773.591 7
 94  3 18 21  8 30.0010000  0  7 31 27  7 16 18 19  2
  23171930.496    12464066.399 6  -7302509.754 4
  20589967.802   -16851496.769 8 -17232391.012 9
  23913258.246   -10100475.689 6  -7868253.845 3
  24413075.080    -3950859.304 5  -3139769.154 2
  23541055.297     4726571.238 6   9533760.807 3
  21281395.606    -5179018.355 8  -5182766.034 8
  21833007.613   -14949310.621 7 -12745800.162 7
 94  3 18 21  9  0.0010000  0  7 31 27  7 16 18 19  2
  23186635.946    12541353.625 6  -7242285.954 4
  20587309.512   -16865451.611 8 -17243264.902 9
  23893839.189   -10202569.101 6  -7947806.993 3
  24420426.411    -3912232.536 5  -3109670.409 2
  23562122.222     4837261.933 6   9620013.228 3
  21288053.817    -5144018.582 8  -5155493.500 8
  21825967.857   -14986297.947 7 -12774621.426 7
 94  3 18 21  9 30.0010000  0  7 31 27  7 16 18 19  2
  23201426.267    12619070.943 6  -7181727.041 4
  20584720.355   -16879068.080 8 -17253875.137 9
  23874419.893   -10304564.835 6  -8027284.064 3
  24427854.099    -3873191.665 4  -3079249.070 2
  23583210.223     4948105.247 6   9706384.521 3
  21294767.579    -5108736.489 8  -5128000.978 8
  21818982.483   -15023005.711 7 -12803224.843 7
 94  3 18 21 10  0.0010000  0  7 31 27  7 16 18 19  2
  23216309.343    12697256.981 6  -7120802.896 4
  20582196.042   -16892348.891 8 -17264223.813 9
  23855042.028   -10406434.228 6  -8106662.634 3
  24435360.902    -3833740.997 4  -3048508.345 2
  23604335.938     5059116.908 6   9792887.051 3
  21301537.253    -5073170.781 8  -5100287.469 8
  21812053.949   -15059420.493 7 -12831599.973 7
 94  3 18 21 10 30.0010000  0  7 31 27  7 16 18 19  2
  23231274.443    12775925.532 6  -7059502.757 4
  20579727.821   -16905297.311 8 -17274313.484 9
  23835673.277   -10508176.449 6  -8185942.158 3
  24442949.128    -3793896.464 4  -3017460.715 2
  23625494.510     5170303.719 6   9879526.045 3
  21308358.251    -5037334.512 8  -5072363.100 8
  21805177.640   -15095550.366 7 -12859753.098 7
 94  3 18 21 11  0.0010000  0  7 31 27  7 16 18 19  2
  23246332.089    12855063.849 6  -6997836.591 4
  20577327.413   -16917927.516 8 -17284155.203 9
  23816338.342   -10609790.873 6  -8265122.060 3
  24450601.271    -3753660.054 5  -2986107.746 2
  23646681.713     5281671.372 6   9966305.900 3
  21315229.494    -5001217.645 8  -5044220.105 8
  21798355.712   -15131403.163 7 -12887690.319 7
 94  3 18 21 11 30.0010000  0  7 31 27  7 16 18 19  2
  23261479.763    12934665.670 6  -6935809.250 4
  20574981.297   -16930257.046 8 -17293762.617 9
  23797029.219   -10711264.983 6  -8344192.658 3
  24458308.965    -3713030.732 4  -2954448.597 2
  23667917.781     5393220.748 6  10053227.449 3
  21322155.449    -4964826.586 8  -5015863.461 8
  21791584.060   -15166995.884 8 -12915424.898 7
 94  3 18 21 12  0.0010000  0  7 31 27  7 16 18 19  2
  23276719.772    13014718.839 6  -6873430.184 4
  20572688.604   -16942281.964 8 -17303132.677 9
  23777743.990   -10812596.641 6  -8423152.247 3
  24466152.225    -3671993.374 5  -2922471.494 2
  23689172.647     5504950.001 6  10140289.069 3
  21329134.917    -4928162.802 8  -4987294.285 8
  21784859.835   -15202340.701 8 -12942966.295 7
 94  3 18 21 12 30.0010000  0  7 31 27  7 16 18 19  2
  23292029.454    13095191.343 6  -6810724.401 4
  20570462.855   -16953993.177 8 -17312258.300 9
  23758493.777   -10913780.297 6  -8501996.523 3
  24474045.551    -3630553.589 5  -2890180.858 2
  23710472.601     5616854.772 6  10227487.516 3
  21336160.523    -4891211.826 8  -4958501.344 8
  21778175.423   -15237451.855 8 -12970325.619 7
 94  3 18 21 13  0.0010000  0  7 31 27  7 16 18 19  2
  23307417.710    13176065.221 6  -6747705.844 4
  20568293.407   -16965384.043 8 -17321134.289 9
  23739268.836   -11014800.802 6  -8580713.630 3
  24481969.006    -3588715.961 4  -2857580.166 2
  23731796.929     5728913.113 6  10314805.638 3
  21343250.585    -4853974.863 8  -4929485.544 8
  21771539.577   -15272320.952 8 -12997496.330 7
 94  3 18 21 13 30.0010000  0  8 31 27  7 16 18 19  2 26
  23322886.042    13257345.913 6  -6684370.281 4
  20566193.061   -16976443.656 8 -17329752.166 9
  23720076.243   -11115654.927 6  -8659301.120 3
  24490021.611    -3546482.316 4  -2824670.939 2
  23753149.497     5841110.600 6  10402232.137 3
  21350386.995    -4816464.181 8  -4900256.446 8
  21764953.556   -15306938.908 8 -13024471.345 7
  25242206.194     -637768.73914   -466673.246
 94  3 18 21 14  0.0010000  0  8 31 27  7 16 18 19  2 26
  23338427.793    13339027.028 6  -6620722.692 4
  20564147.157   -16987168.620 8 -17338109.280 9
  23700910.901   -11216341.454 6  -8737758.033 3
  24498140.021    -3503856.848 5  -2791456.300 2
  23774517.444     5953435.713 5  10489758.127 3
  21357581.174    -4778666.419 8  -4870803.664 8
  21758417.571   -15341299.145 8 -13051245.550 7
  25224740.975     -729535.139 4   -538179.255
 94  3 18 21 14 30.0010000  0  8 31 27  7 16 18 19  2 26
  23354044.581    13421104.439 6  -6556766.323 4
  20562171.615   -16997564.415 8 -17346209.902 9
  23681791.997   -11316859.629 6  -8816083.796 3
  24506316.770    -3460844.955 4  -2757940.611 2
  23795916.330     6065890.081 6  10577384.807 3
  21364825.899    -4740586.798 8  -4841131.254 8
  21751926.285   -15375391.807 8 -13077811.248 8
  25207306.065     -821130.877 4   -609552.232
 94  3 18 21 15  0.0010000  0  8 31 27  7 16 18 19  2 26
  23369739.226    13503584.255 6  -6492496.366 4
  20560253.393   -17007642.924 8 -17354063.287 9
  23662687.542   -11417227.810 6  -8894292.629 3
  24514576.352    -3417440.501 4  -2724119.059 2
  23817347.833     6178469.537 6  10665108.922 3
  21372122.008    -4702247.602 8  -4811256.571 8
  21745492.229   -15409210.831 8 -13104163.716 8
  25189925.927     -912553.458 4   -680790.462 1
 94  3 18 21 15 30.0010000  0  8 31 27  7 16 18 19  2 26
  23385510.498    13586449.454 6  -6427926.116 4
  20558394.290   -17017412.094 8 -17361675.623 9
  23643611.598   -11517460.850 6  -8972396.216 3
  24522903.357    -3373665.383 4  -2690008.629 2
  23838797.954     6291189.562 6  10752942.628 3
  21379465.214    -4663642.896 8  -4781174.989 8
  21739106.979   -15442761.156 8 -13130306.820 8
  25172550.856    -1003807.554 4   -751897.596 1
 94  3 18 21 16  0.0010000  0  8 31 27  7 16 18 19  2 26
  23401353.690    13669692.451 6  -6363061.482 4
  20556596.285   -17026864.163 8 -17369040.886 9
  23624567.582   -11617556.409 6  -9050392.654 3
  24531302.912    -3329529.194 4  -2655616.936 2
  23860279.462     6404066.940 6  10840898.900 3
  21386868.199    -4624755.145 8  -4750872.867 8
  21732773.594   -15476037.011 8 -13156236.041 8
  25155227.978    -1094891.963 4   -822872.432 1
 94  3 18 21 16 30.0010000  0  8 31 27  7 16 18 19  2 26
  23417271.350    13753330.493 6  -6297889.016 4
  20554855.959   -17035989.589 8 -17376151.602 9
  23605549.048   -11717509.718 6  -9128278.220 3
  24539777.206    -3285020.803 4  -2620935.082 2
  23881783.006     6517112.843 6  10928986.553 3
  21394323.498    -4585577.346 8  -4720344.728 8
  21726497.049   -15509022.753 8 -13181939.198 8
  25137931.572    -1185805.594 4   -893714.200 1
 94  3 18 21 17  0.0010000  0  8 31 27  7 16 18 19  2 26
  23433261.261    13837363.678 6  -6232408.651 4
  20553186.745   -17044776.264 8 -17382998.368 9
  23586550.541   -11817317.961 6  -9206050.801 3
  24548314.905    -3240152.575 5  -2585972.896 1
  23903329.299     6630318.586 6  11017198.677 3
  21401838.426    -4546093.786 8  -4689578.341 8
  21720277.765   -15541717.271 8 -13207415.444 8
  25120667.874    -1276542.536 4   -964418.197 1
 94  3 18 21 17 30.0010000  0  8 31 27  7 16 18 19  2 26
  23449328.877    13921797.878 6  -6166615.788 4
  20551581.206   -17053216.157 8 -17389574.922 9
  23567588.758   -11916963.940 6  -9283696.940 3
  24556933.729    -3194917.901 5  -2550725.208 1
  23924908.331     6743677.422 6  11105530.132 3
  21409414.841    -4506291.881 8  -4658563.900 7
  21714109.625   -15574124.747 8 -13232668.002 8
  25103427.169    -1367094.156 4  -1034977.974 1
 94  3 18 21 18  0.0010000  0  8 31 27  7 16 18 19  2 26
  23465476.209    14006656.842 6  -6100491.960 4
  20550039.014   -17061313.824 8 -17395884.782 9
  23548662.590   -12016439.085 6  -9361209.917 3
  24565610.502    -3149296.617 5  -2515176.164 1
  23946495.276     6857165.595 6  11193962.393 3
  21417045.908    -4466168.537 8  -4627298.965 7
  21707994.098   -15606267.489 8 -13257714.273 8
  25086221.750    -1457441.863 4  -1105378.711 1
 94  3 18 21 18 30.0010000  0  8 31 27  7 16 18 19  2 26
  23481702.685    14091940.270 6  -6034037.391 4
  20548563.106   -17069074.028 8 -17401931.712 9
  23529768.140   -12115746.744 6  -9438592.403 3
  24574358.476    -3103294.680 5  -2479330.613 1
  23968110.852     6970759.255 6  11282476.806 2
  21424737.863    -4425742.229 8  -4595797.975 7
  21701921.143   -15638168.094 8 -13282571.872 8
  25069076.949    -1547571.498 4  -1175609.472 1
 94  3 18 21 19  0.0010000  0  8 31 27  7 16 18 19  2 26
  23498015.143    14177637.682 6  -5967260.220 4
  20547150.544   -17076490.938 8 -17407711.137 9
  23510900.252   -12214879.792 6  -9515838.826 4
  24583182.027    -3056921.248 5  -2443195.502 1
  23989740.278     7084457.109 6  11371072.467 3
  21432489.266    -4385014.721 8  -4564062.285 7
  21695896.094   -15669835.671 8 -13307247.894 8
  25051965.665    -1637476.440 4  -1245665.258 1
 94  3 18 21 19 30.0010000  0  8 31 27  7 16 18 19  2 26
  23514396.072    14263748.181 6  -5900161.177 4
  20545805.495   -17083565.598 8 -17413223.852 9
  23492075.804   -12313819.341 6  -9592934.500 3
  24592075.670    -3010159.013 5  -2406757.445 1
  24011414.973     7198258.860 6  11459749.043 2
  21440297.691    -4343982.253 8  -4532088.940 7
  21689914.485   -15701265.142 8 -13331738.358 8
  25034910.772    -1727157.404 5  -1315546.522 1
 94  3 18 21 20  0.0010000  0  8 31 27  7 16 18 19  2 26
  23530858.576    14350258.269 6  -5832750.764 4
  20544523.073   -17090296.732 8 -17418468.894 9
  23473279.807   -12412577.376 6  -9669888.707 3
  24601055.923    -2963020.601 5  -2370026.301 1
  24033078.786     7312162.791 6  11548505.234 2
  21448164.635    -4302644.061 8  -4499877.394 7
  21683980.243   -15732453.013 8 -13356040.570 8
  25017872.667    -1816632.434 4  -1385267.209 1
 94  3 18 21 20 30.0010000  0  8 31 27  7 16 18 19  2 26
  23547398.485    14437147.288 6  -5765045.080 4
  20543309.992   -17096683.060 8 -17423445.262 9
  23454519.154   -12511153.143 6  -9746700.909 4
  24610109.206    -2915515.038 5  -2333009.004 1
  24054782.950     7426174.400 6  11637345.365 2
  21456085.031    -4261012.065 8  -4467436.905 7
  21678095.976   -15763383.336 8 -13380142.093 8
  25000883.668    -1905919.377 4  -1454841.376 1
 94  3 18 21 21  0.0010000  0  8 31 27  7 16 18 19  2 26
  23563998.653    14524403.811 6  -5697053.015 4
  20542158.070   -17102729.247 8 -17428156.571 9
  23435799.364   -12609535.737 6  -9823362.573 4
  24619200.682    -2867636.649 5  -2295701.297 1
  24076500.755     7540312.160 6  11726283.755 2
  21464067.965    -4219069.488 8  -4434754.384 7
  21672261.715   -15794042.454 8 -13404032.290 8
  24983930.165    -1995025.109 5  -1524274.362 1
 94  3 18 21 21 30.0010000  0  8 31 27  7 16 18 19  2 26
  23580679.705    14612032.065 6  -5628771.311 4
  20541073.121   -17108438.475 8 -17432605.327 9
  23417110.901   -12707723.221 6  -9899872.206 4
  24628382.785    -2819387.285 5  -2258104.464 1
  24098227.135     7654570.763 6  11815316.358 2
  21472105.701    -4176826.402 8  -4401837.737 7
  21666478.179   -15824435.383 8 -13427715.062 8
  24967017.553    -2083954.123 5  -1593569.695 1
 94  3 18 21 22  0.0010000  0  8 31 27  7 16 18 19  2 26
  23597422.994    14700046.455 6  -5560188.717 4
  20540050.259   -17113800.346 8 -17436783.412 9
  23398466.059   -12805721.374 6  -9976234.331 4
  24637636.000    -2770788.650 5  -2220235.399 1
  24120012.753     7768962.050 6  11904452.289 2
  21480200.457    -4134292.568 8  -4368694.485 7
  21660744.529   -15854565.284 8 -13451192.898 8
  24950127.936    -2172690.126 5  -1662714.533 1
 94  3 18 21 22 30.0010000  0  8 31 27  7 16 18 19  2 26
  23614243.689    14788437.457 6  -5491312.652 4
  20539097.938   -17118813.348 8 -17440689.654 9
  23379854.973   -12903519.169 6 -10052440.308 3
  24646960.714    -2721851.896 5  -2182102.970 1
  24141803.647     7883485.900 6  11993691.590 2
  21488348.696    -4091477.397 8  -4335332.044 7
  21655060.554   -15884430.918 8 -13474464.791 8
  24933276.092    -2261208.698 5  -1731689.961 1
 94  3 18 21 23  0.0010000  0  8 31 27  7 16 18 19  2 26
  23631134.116    14877202.415 6  -5422145.226 4
  20538216.099   -17123465.769 8 -17444314.920 9
  23361283.670   -13001121.190 6 -10128493.746 3
  24656335.944    -2672573.109 5  -2143703.965 1
  24163616.067     7998135.073 6  12083028.473 2
  21496548.229    -4048385.220 8  -4301753.739 7
  21649425.355   -15914029.566 8 -13497528.647 8
  24916477.552    -2349494.428 5  -1800484.006 1
 94  3 18 21 23 30.0010000  0  8 31 27  7 16 18 19  2 26
  23648088.639    14966344.793 6  -5352683.654 4
  20537395.867   -17127759.167 8 -17447660.433 9
  23342744.654   -13098537.495 6 -10204402.461 3
  24665762.408    -2622950.513 5  -2105037.102 1
  24185450.041     8112876.234 6  12172437.021 2
  21504797.079    -4005033.393 8  -4267973.110 7
  21643844.898   -15943363.548 8 -13520386.266 8
  24899728.866    -2437545.534 5  -1869095.238 1
 94  3 18 21 24  0.0010000  0  8 31 27  7 16 18 19  2 26
  23665131.690    15055849.258 6  -5282939.969 4
  20536647.615   -17131690.771 8 -17450724.017 9
  23324238.975   -13195783.809 6 -10280178.733 3
  24675258.304    -2572989.760 5  -2066106.667 1
  24207288.363     8227699.863 5  12261909.882 2
  21513096.443    -3961414.350 8  -4233984.261 7
  21638316.875   -15972435.054 8 -13543039.368 8
  24883025.240    -2525357.006 5  -1937519.735 1
 94  3 18 21 24 30.0010000  0  8 31 27  7 16 18 19  2 26
  23682231.282    15145697.523 6  -5212928.363 4
  20535968.345   -17135272.027 8 -17453514.603 9
  23305768.582   -13292858.250 6 -10355821.115 3
  24684851.213    -2522671.860 5  -2026897.983 1
  24229161.011     8342589.977 5  12351434.488 2
  21521452.798    -3917511.381 8  -4199774.159 7
  21632829.294   -16001248.891 8 -13565491.699 8
  24866357.529    -2612934.624 5  -2005761.931 1
 94  3 18 21 25  0.0010000  0  8 31 27  7 16 18 19  2 26
  23699392.962    15235903.026 6  -5142638.413 4
  20535351.432   -17138515.260 8 -17456041.813 9
  23287328.378   -13389758.376 6 -10431327.634 3
  24694488.611    -2472003.610 5  -1987416.376 1
  24251032.280     8457541.716 5  12441007.191 2
  21529859.848    -3873317.925 8  -4165337.722 7
  21627394.806   -16029816.931 8 -13587752.476 8
  24849722.765    -2700297.788 5  -2073837.141 1
 94  3 18 21 25 30.0010000  0  8 31 27  7 16 18 19  2 26
  23716623.054    15326470.264 6  -5072066.620 4
  20534796.066   -17141425.659 8 -17458309.661 9
  23268923.340   -13486477.275 6 -10506692.938 3
  24704197.540    -2421014.041 5  -1947684.214 1
  24272927.112     8572564.442 6  12530635.121 2
  21538328.805    -3828824.087 8  -4130667.206 7
  21621999.291   -16058158.682 8 -13609836.951 8
  24833127.843    -2787453.837 4  -2141750.893 2
 94  3 18 21 26  0.0010000  0  8 31 27  7 16 18 19  2 26
  23733928.963    15417388.364 6  -5001221.364 4
  20534300.450   -17144007.441 8 -17460321.427 9
  23250554.906   -13583004.898 6 -10581909.197 3
  24713944.572    -2369729.139 4  -1907722.066 1
  24294829.260     8687679.418 5  12620334.986 2
  21546851.005    -3784033.183 8  -4095765.219 7
  21616650.184   -16086283.299 8 -13631752.211 8
  24816600.705    -2874394.601 5  -2209496.849 2
 94  3 18 21 26 30.0010000  0  8 31 27  7 16 18 19  2 26
  23751305.144    15508653.575 6  -4930105.655 4
  20533874.504   -17146272.339 8 -17462086.300 9
  23232227.484   -13679311.841 6 -10656953.505 3
  24723767.572    -2318154.463 5  -1867534.052 1
  24316759.318     8802891.881 5  12710110.810 2
  21555430.256    -3738953.385 8  -4060638.103 7
  21611336.363   -16114192.683 8 -13653499.774 8
  24800089.395    -2961111.584 4  -2277068.487 2
 94  3 18 21 27  0.0010000  0  8 31 27  7 16 18 19  2 26
  23768741.703    15600264.493 6  -4858720.582 4
  20533508.458   -17148196.663 8 -17463585.769 9
  23213943.381   -13775382.995 6 -10731814.071 4
  24733629.724    -2266292.749 4  -1827122.371 1
  24338699.239     8918221.398 5  12799977.823 2
  21564060.621    -3693599.710 8  -4025297.600 7
  21606070.269   -16141871.580 8 -13675067.745 8
  24783637.805    -3047589.924 5  -2344454.206 2
 94  3 18 21 27 30.0010000  0  8 31 27  7 16 18 19  2 26
  23786225.299    15692207.241 6  -4787076.906 3
  20533209.655   -17149754.402 8 -17464799.589 9
  23195707.846   -13871208.012 6 -10806482.852 4
  24743574.710    -2214123.905 5  -1786471.494 1
  24360669.499     9033664.226 5  12889933.214 2
  21572747.648    -3647965.295 8  -3989738.345 7
  21600851.602   -16169296.984 8 -13696438.177 8
  24767219.731    -3133810.524 5  -2411639.016 2
 94  3 18 21 28  0.0010000  0  8 31 27  7 16 18 19  2 26
  23803773.231    15784478.905 6  -4715177.012 3
  20532984.451   -17150940.426 8 -17465723.777 9
  23177522.345   -13966775.421 6 -10880950.891 4
  24753538.822    -2161620.444 4  -1745559.707 1
  24382663.563     9149212.180 5  12979970.385 2
  21581483.030    -3602036.792 8  -3953949.907 7
  21595686.867   -16196445.421 8 -13717592.793 8
  24750872.617    -3219764.177 5  -2478615.865 2
 94  3 18 21 28 30.0010000  0  8 31 27  7 16 18 19  2 26
  23821403.875    15877073.889 6  -4643025.088 3
  20532831.107   -17151742.069 8 -17466348.428 9
  23159388.139   -14062088.704 6 -10955220.918 4
  24763617.664    -2108764.732 4  -1704373.526 1
  24404659.516     9264846.217 5  13070074.743 2
  21590284.997    -3555797.530 8  -3917919.349 7
  21590574.087   -16223309.609 8 -13738525.920 8
  24734556.083    -3305470.883 5  -2545400.298 2
 94  3 18 21 29  0.0010000  0  8 31 27  7 16 18 19  2 26
  23839088.872    15969998.359 6  -4570616.488 3
  20532755.439   -17152148.819 8 -17466665.379 9
  23141291.767   -14157170.327 6 -11029310.410 4
  24773744.294    -2055554.107 4  -1662910.788 1
  24426673.186     9380544.692 5  13160229.226 2
  21599142.695    -3509249.391 8  -3881648.086 7
  21585519.766   -16249873.173 8 -13759224.798 8
  24718302.955    -3390946.540 5  -2612004.645 2
 94  3 18 21 29 30.0010000  0  8 31 27  7 16 18 19  2 26
  23856830.770    16063258.792 5  -4497946.064 3
  20532747.854   -17152183.857 8 -17466692.686 9
  23123241.563   -14252029.215 6 -11103226.354 4
  24783936.218    -2001995.633 4  -1621176.932 1
  24448705.353     9496289.464 5  13250419.863 2
  21608062.959    -3462374.496 8  -3845122.206 7
  21580520.157   -16276144.075 8 -13779695.614 8
  24702073.870    -3476185.953 5  -2678424.944 2
 94  3 18 21 30  0.0010000  0  8 31 27  7 16 18 19  2 26
  23874646.926    16156866.868 5  -4425004.724 3
  20532809.342   -17151862.685 8 -17466442.413 9
  23105232.281   -14346670.571 6 -11176972.781 4
  24794177.908    -1948099.790 4  -1579180.340 1
  24470751.731     9612092.964 5  13340656.180 2
  21617042.133    -3415177.453 8  -3808345.326 7
  21575574.151   -16302142.385 8 -13799954.031 8
  24685912.329    -3561177.317 5  -2744651.981 2
 94  3 18 21 30 30.0010000  0  8 31 27  7 16 18 19  2 26
  23892527.387    16250823.627 5  -4351791.716 3
  20532937.743   -17151187.323 8 -17465916.166 9
  23087263.830   -14441104.241 6 -11250557.384 4
  24804494.576    -1893868.766 4  -1536922.440 1
  24492789.625     9727957.779 5  13430940.354 2
  21626083.514    -3367675.205 8  -3771330.597 7
  21570675.992   -16327876.257 8 -13820006.387 8
  24669774.980    -3645908.727 5  -2810676.401 2
 94  3 18 21 31  0.0010000  0  8 31 27  7 16 18 19  2 26
  23910476.442    16345133.125 5  -4278303.856 3
  20533132.308   -17150162.927 8 -17465117.943 9
  23069330.545   -14535330.807 6 -11323980.622 4
  24814895.575    -1839317.465 4  -1494415.013 1
  24514861.604     9843898.959 6  13521283.958 2
  21635175.470    -3319878.373 8  -3734086.353 7
  21565826.729   -16353359.443 8 -13839863.409 8
  24653713.479    -3730348.550 5  -2876473.612 2
 94  3 18 21 31 30.0010000  0  8 31 27  7 16 18 19  2 26
  23928493.309    16439778.206 5  -4204554.458 3
  20533392.408   -17148800.767 8 -17464056.506 9
  23051440.700   -14629339.402 6 -11397233.995 4
  24825319.539    -1784464.275 4  -1451672.408 1
  24536930.437     9959933.298 5  13611700.238 2
  21644328.823    -3271786.183 8  -3696611.929 7
  21561016.499   -16378627.727 8 -13859552.962 8
  24637702.853    -3814486.584 5  -2942035.672 2
 94  3 18 21 32  0.0010000  0  8 31 27  7 16 18 19  2 26
  23946550.378    16534748.190 5  -4130551.947 3
  20533716.484   -17147085.005 8 -17462719.560 9
  23033595.763   -14723117.734 6 -11470307.934 5
  24835854.456    -1729314.840 5  -1408698.856 1
  24559036.083    10076061.204 5  13702189.333 2
  21653538.177    -3223402.829 8  -3658910.655 7
  21556252.347   -16403680.817 8 -13879074.845 8
  24621740.404    -3898343.492 5  -3007378.704 2
 94  3 18 21 32 30.0010000  0  8 31 27  7 16 18 19  2 26
  23964685.064    16630038.023 5  -4056300.169 3
  20534116.647   -17144992.808 8 -17461089.278 9
  23015797.445   -14816651.228 6 -11543191.094 4
  24846386.405    -1673872.854 4  -1365497.416 1
  24581146.526    10192266.447 5  13792738.759 2
  21662799.996    -3174719.434 7  -3620975.561 7
  21551525.489   -16428503.335 8 -13898417.043 8
  24605841.331    -3981928.143 5  -3072509.533 2
 94  3 18 21 33  0.0010000  0  8 31 27  7 16 18 19  2 26
  23982890.620    16725644.269 5  -3981801.830 3
  20534586.512   -17142517.286 8 -17459160.308 9
  22998051.200   -14909919.947 6 -11615867.962 4
  24856953.189    -1618158.184 3  -1322083.481 2
  24603276.156    10308533.065 5  13883335.949 2
  21672124.980    -3125725.510 7  -3582798.495 7
  21546844.710   -16453099.748 8 -13917583.079 8
  24589980.121    -4065251.008 5  -3137436.374 2
 94  3 18 21 33 30.0010000  0  8 31 27  7 16 18 19  2 26
  24001132.392    16821565.927 5  -3907057.766 3
  20535133.723   -17139655.652 8 -17456930.471 9
  22980351.694   -15002911.829 6 -11688329.095 4
  24867622.263    -1562169.187 3  -1278455.772 1
  24625404.107    10424841.003 5  13973965.408 2
  21681508.124    -3076406.621 7  -3544368.226 7
  21542210.908   -16477459.693 8 -13936564.841 8
  24574175.752    -4148336.296 5  -3202178.178 2
 94  3 18 21 34  0.0010000  0  8 31 27  7 16 18 19  2 26
  24019439.338    16917816.339 5  -3832057.468 3
  20535757.861   -17136389.290 8 -17454385.256 9
  22962710.946   -15095630.306 6 -11760577.176 4
  24878339.574    -1505886.975 4  -1234599.538 2
  24647547.378    10541181.357 5  14064620.047 2
  21690955.484    -3026761.884 7  -3505684.019 7
  21537623.723   -16501560.327 8 -13955344.541 8
  24558410.596    -4231179.928 5  -3266731.560 2
 94  3 18 21 34 30.0010000  0  8 31 27  7 16 18 19  2 26
  24037831.156    17014399.330 5  -3756798.067 3
  20536451.341   -17132717.992 8 -17451524.507 9
  22945115.857   -15188078.375 6 -11832614.557 4
  24889118.462    -1449303.388 4  -1190508.550 2
  24669693.916    10657559.651 5  14155304.311 2
  21700466.010    -2976795.504 7  -3466749.192 7
  21533086.155   -16525399.116 8 -13973920.219 8
  24542692.508    -4313755.527 5  -3331076.138 2
 94  3 18 21 35  0.0010000  0  8 31 27  7 16 18 19  2 26
  24056266.503    17111314.128 5  -3681280.100 3
  20537225.585   -17128657.751 8 -17448360.693 9
  22927571.523   -15280262.551 6 -11904446.345 4
  24899924.481    -1392414.268 4  -1146179.448 2
  24691854.365    10773997.953 5  14246035.253 2
  21710033.676    -2926507.971 7  -3427564.124 6
  21528602.908   -16548973.288 8 -13992289.707 8
  24527024.574    -4396058.953 5  -3395208.641 2
 94  3 18 21 35 30.0010000  0  8 31 27  7 16 18 19  2 26
  24074772.572    17208552.389 5  -3605510.083 3
  20538072.258   -17124211.639 8 -17444896.208 9
  22910081.690   -15372195.625 6 -11976082.434 4
  24910814.832    -1335214.542 4  -1101608.361 2
  24714004.411    10890518.346 5  14336830.259 2
  21719664.719    -2875908.476 7  -3388135.950 6
  21524165.860   -16572274.976 8 -14010446.847 8
  24511426.822    -4478078.152 5  -3459119.640 2
 94  3 18 21 36  0.0010000  0  8 31 27  7 16 18 19  2 26
  24093341.237    17306113.705 5  -3529488.343 3
  20538990.972   -17119373.648 8 -17441126.345 9
  22892633.050   -15463872.042 7 -12047518.556 4
  24921766.040    -1277712.344 4  -1056801.544 2
  24736209.379    11007130.496 5  14427696.662 2
  21729347.026    -2825009.706 8  -3348474.590 6
  21519785.383   -16595300.080 8 -14028388.467 8
  24495877.967    -4559790.334 5  -3522791.436 2
 94  3 18 21 36 30.0010000  0  8 31 27  7 16 18 19  2 26
  24111964.434    17403974.705 5  -3453233.093 3
  20539986.613   -17114157.803 8 -17437062.063 9
  22875241.010   -15555285.034 7 -12118749.395 4
  24932770.042    -1219928.037 4  -1011774.881 2
  24758410.869    11123828.178 5  14518629.805 2
  21739091.780    -2773805.825 7  -3308575.484 6
  21515454.131   -16618048.228 8 -14046114.292 8
  24480378.667    -4641201.154 5  -3586228.383 2
 94  3 18 21 37  0.0010000  0  8 31 27  7 16 18 19  2 26
  24130637.547    17502134.391 5  -3376745.078 3
  20541049.557   -17108560.689 8 -17432700.682 9
  22857897.537   -15646423.330 7 -12189766.204 4
  24943814.187    -1161872.434 4   -966536.907 2
  24780640.899    11240612.916 5  14609630.687 2
  21748891.875    -2722300.861 7  -3268441.763 6
  21511181.249   -16640521.228 8 -14063625.704 9
  24464950.687    -4722313.352 5  -3649432.679 2
 94  3 18 21 37 30.0010000  0  8 31 27  7 16 18 19  2 26
  24149366.422    17600585.089 5  -3300030.291 3
  20542190.687   -17102570.189 8 -17428032.770 9
  22840605.208   -15737274.043 7 -12260558.905 4
  24954904.949    -1103547.439 4   -921088.913 2
  24802894.523    11357454.302 5  14700675.791 2
  21758750.011    -2670496.581 7  -3228074.805 6
  21506955.525   -16662719.851 8 -14080923.309 9
  24449574.991    -4803114.514 5  -3712394.547 2
 94  3 18 21 38  0.0010000  0  8 31 27  7 16 18 19  2 26
  24168171.143    17699314.131 5  -3223098.599 3
  20543402.658   -17096188.282 8 -17423059.870 9
  22823375.986   -15827832.712 7 -12331124.047 4
  24966045.356    -1044953.927 4   -875431.710 2
  24825120.447    11474322.331 5  14791741.598 2
  21768666.726    -2618391.959 7  -3187473.809 6
  21502782.354   -16684642.575 8 -14098005.949 9
  24434253.408    -4883610.615 5  -3775118.723 2
 94  3 18 21 38 30.0010000  0  8 31 27  7 16 18 19  2 26
  24187016.337    17798326.574 5  -3145946.133 3
  20544691.316   -17089419.345 8 -17417785.386 9
  22806192.392   -15918113.527 7 -12401472.687 4
  24977251.299     -986090.309 4   -829564.066 2
  24847347.449    11591213.872 5  14882825.813 2
  21778638.962    -2565989.968 7  -3146641.104 6
  21498664.135   -16706301.850 8 -14114883.301 9
  24418996.670    -4963807.346 5  -3837609.670 2
 94  3 18 21 39  0.0010000  0  8 31 27  7 16 18 19  2 26
  24205906.500    17897628.402 5  -3068568.107 3
  20546054.233   -17082260.819 8 -17412207.314 9
  22789066.927   -16008117.136 7 -12471605.317 4
  24988508.745     -926957.463 4   -783486.574 2
  24869597.116    11708116.723 5  14973918.701 2
  21788665.371    -2513310.546 7  -3105592.211 6
  21494589.086   -16727711.159 8 -14131565.859 9
  24403790.717    -5043698.857 5  -3899862.753 2
 94  3 18 21 39 30.0010000  0  8 31 27  7 16 18 19  2 26
  24224839.203    17997216.007 5  -2990967.414 3
  20547491.048   -17074708.556 8 -17406322.449 9
  22771995.336   -16097837.298 7 -12541517.066 4
  24999818.686     -867548.013 4   -737193.630 2
  24891838.599    11825014.507 5  15065007.792 2
  21798742.744    -2460331.184 7  -3064309.629 6
  21490563.263   -16748868.893 8 -14148052.406 9
  24388648.380    -5123284.219 5  -3961877.252 2
 94  3 18 21 40  0.0010000  0  8 31 27  7 16 18 19  2 26
  24243845.385    18097096.908 5  -2913138.209 3
  20548998.824   -17066765.953 8 -17400133.405 9
  22754975.248   -16187277.253 7 -12611210.464 4
  25011166.550     -807868.819 4   -690690.478 2
  24914085.867    11941921.042 4  15156103.566 2
  21808882.775    -2407055.685 7  -3022796.265 6
  21486581.029   -16769793.682 8 -14164357.409 9
  24373558.836    -5202574.541 5  -4023661.869 2
 94  3 18 21 40 30.0010000  0  8 31 27  7 16 18 19  2 26
  24262920.490    18197286.883 5  -2835068.176 3
  20550587.814   -17058432.505 8 -17393639.821 9
  22738008.944   -16276425.225 7 -12680676.352 4
  25022584.565     -747922.544 4   -643979.201 2
  24936339.192    12058839.003 5  15247208.298 2
  21819079.076    -2353472.831 7  -2981043.428 6
  21482640.198   -16790499.766 8 -14180492.014 9
  24358522.416    -5281567.372 5  -4085214.717 2
 94  3 18 21 41  0.0010000  0  8 31 27  7 16 18 19  2 26
  24282057.022    18297764.535 5  -2756773.942 3
  20552246.026   -17049714.492 8 -17386846.574 9
  22721105.296   -16365261.591 7 -12749899.447 5
  25034035.708     -687706.201 4   -597057.421 2
  24958592.696    12175757.089 5  15338313.181 2
  21829334.856    -2299569.509 7  -2939040.850 6
  21478739.988   -16810985.670 8 -14196455.049 9
  24343549.282    -5360261.430 5  -4146534.712 2
 94  3 18 21 41 30.0010000  0  8 31 27  7 16 18 19  2 26
  24301212.441    18398524.089 5  -2678260.075 3
  20553980.535   -17040614.181 8 -17379755.432 9
  22704259.298   -16453790.261 7 -12818882.755 5
  25045548.518     -627233.164 4   -549935.709 2
  24980850.307    12292684.452 5  15429425.215 2
  21839657.160    -2245329.076 7  -2896775.600 6
  21474885.256   -16831246.696 8 -14212242.838 9
  24328629.720    -5438655.811 5  -4207621.183 2
 94  3 18 21 42  0.0010000  0  8 31 27  7 16 18 19  2 26
  24320454.020    18499562.780 5  -2599528.689 3
  20555781.299   -17031130.944 8 -17372365.896 9
  22687468.732   -16542025.105 7 -12887637.084 5
  25057101.170     -566506.401 4   -502616.214 2
  25003101.713    12409630.526 5  15520551.896 2
  21850039.512    -2190768.796 7  -2854261.123 6
  21471075.044   -16851282.858 8 -14227855.424 9
  24313779.141    -5516742.841 5  -4268468.156 2
 94  3 18 21 42 30.0010000  0  8 31 27  7 16 18 19  2 26
  24339730.435    18600864.000 5  -2520592.709 3
  20557660.068   -17021261.591 8 -17364675.505 9
  22670731.049   -16629967.830 7 -12956163.815 5
  25068702.329     -505526.464 4   -455099.493 2
  25025350.181    12526583.290 5  15611683.694 2
  21860485.990    -2135880.792 7  -2811491.270 6
  21467306.863   -16871080.942 8 -14243282.490 9
  24298977.758    -5594508.894 5  -4329065.054 2
 94  3 18 21 43  0.0010000  0  9 31 27  7 16 18 19  2 15 26
  24359057.246    18702396.492 5  -2441476.560 3
  20559617.413   -17010996.202 8 -17356676.505 9
  22654051.017   -16717631.438 7 -13024473.052 5
  25080354.002     -444303.170 4   -407393.097 2
  25047620.173    12643548.753 5  15702825.503 2
  21870990.418    -2080683.692 7  -2768480.564 6
  21463581.792   -16890642.354 8 -14258525.137 9
  24945915.462   -20458208.51914   -109713.214
  24284238.701    -5671954.312 6  -4389412.097 2
 94  3 18 21 43 30.0010000  0  9 31 27  7 16 18 19  2 15 26
  24378419.521    18804159.209 5  -2362180.986 3
  20561644.070   -17000329.791 8 -17348365.024 9
  22637417.422   -16805033.767 7 -13092578.697 5
  25092054.302     -382848.639 4   -359506.589 2
  25069863.215    12760533.559 5  15793982.242 2
  21881548.239    -2025194.212 7  -2725242.044 6
  21459905.557   -16909967.903 8 -14273583.996 9
  24934739.589   -20516990.660 4   -155519.381
  24269557.775    -5749078.256 6  -4449508.608 2
 94  3 18 21 44  0.0010000  0  9 31 27  7 16 18 19  2 15 26
  24397820.680    18906159.911 5  -2282699.952 3
  20563750.022   -16989264.737 8 -17339742.913 9
  22620840.308   -16892174.137 7 -13160480.205 5
  25103774.628     -321158.149 4   -311436.175 2
  25092140.762    12877538.640 5  15885154.934 2
  21892159.693    -1969422.177 7  -2681783.357 6
  21456270.813   -16929060.541 8 -14288461.377 9
  24923586.350   -20575523.014 4   -201128.974 1
  24254942.713    -5825881.902 6  -4509355.590 2
 94  3 18 21 44 30.0010000  0  9 31 27  7 16 18 19  2 15 26
  24417268.427    19008386.212 5  -2203043.190 3
  20565932.331   -16977808.120 8 -17330815.693 9
  22604303.876   -16979049.506 7 -13228175.227 5
  25115579.196     -259250.647 4   -263196.645 2
  25114411.055    12994574.817 5  15976351.731 1
  21902825.589    -1913368.332 7  -2638105.075 6
  21452683.376   -16947919.689 8 -14303156.805 9
  24912494.959   -20633807.701 4   -246545.497 1
  24240388.089    -5902363.611 6  -4568951.686 2
 94  3 18 21 45  0.0010000  0  8 31 27  7 18 19  2 15 26
  24436785.246    19110850.820 6  -2123200.735 3
  20568183.023   -16965961.317 8 -17321584.427 9
  22587823.685   -17065661.473 7 -13295665.024 5
  25136684.765    13111648.139 5  16067577.602 1
  21913547.517    -1857038.237 7  -2594211.516 6
  21449142.168   -16966540.052 8 -14317666.164 9
  24901453.243   -20691842.654 4   -291767.523 1
  24225900.888    -5978517.977 6  -4628292.721 2
 94  3 18 21 45 30.0010000  0  8 31 27  7 18 19  2 15 26
  24456325.688    19213584.725 5  -2043148.338 3
  20570511.121   -16953735.344 8 -17312057.708 9
  22571393.230   -17151999.580 7 -13362941.384 5
  25158972.895    13228740.677 5  16158818.356 1
  21924326.465    -1800421.370 7  -2550094.497 6
  21445643.530   -16984914.520 8 -14331983.930 9
  24890473.374   -20749625.435 5   -336792.986 1
  24211472.267    -6054339.673 6  -4687374.510 2
 94  3 18 21 46  0.0010000  0  8 31 27  7 18 19  2 15 26
  24475943.327    19316584.111 6  -1962889.181 3
  20572910.600   -16941116.196 8 -17302224.620 9
  22555018.715   -17238044.251 7 -13429989.133 5
  25181256.949    13345838.391 5  16250063.166 1
  21935153.289    -1743501.387 7  -2505741.310 6
  21442198.015   -17003039.716 8 -14346107.457 9
  24879509.394   -20807149.849 4   -381617.140 1
  24197106.302    -6129826.832 6  -4746195.640 2
 94  3 18 21 46 30.0010000  0  8 31 27  7 18 19  2 15 26
  24495589.506    19419829.861 5  -1882438.036 3
  20575386.976   -16928099.297 8 -17292081.580 9
  22538702.421   -17323788.977 7 -13496803.141 5
  25203533.567    13462906.902 5  16341285.190 1
  21946044.540    -1686271.352 7  -2461146.490 6
  21438795.371   -17020919.788 8 -14360039.971 9
  24868605.792   -20864415.990 4   -426240.036 1
  24182806.651    -6204986.070 5  -4804761.243 2
 94  3 18 21 47  0.0010000  0  7 31 27  7 19  2 15 26
  24515256.551    19523321.403 5  -1801795.293 3
  20577943.876   -16914681.966 8 -17281626.534 9
  22522444.946   -17409213.505 7 -13563367.671 5
  21956990.022    -1628733.739 7  -2416312.022 6
  21435435.027   -17038561.883 8 -14373787.046 9
  24857787.482   -20921421.137 4   -470659.603 1
  24168559.674    -6279833.684 6  -4863083.977 2
 94  3 18 21 47 30.0010000  0  7 31 27  7 19  2 15 26
  24534993.597    19627041.901 5  -1720974.230 3
  20580574.285   -16900869.012 8 -17270863.207 9
  22506254.774   -17494303.413 7 -13629671.439 5
  21968000.740    -1570884.050 7  -2371234.350 6
  21432122.021   -17055974.725 8 -14387355.488 9
  24846963.805   -20978160.228 4   -514871.808 1
  24154376.763    -6354379.327 6  -4921171.439 2
 94  3 18 21 48  0.0010000  0  7 31 27  7 19  2 15 26
  24554785.266    19730966.240 5  -1639994.269 3
  20583276.944   -16886657.289 8 -17259789.144 9
  22490129.118   -17579052.967 7 -13695709.996 5
  21979070.936    -1512723.423 7  -2325914.425 6
  21428852.514   -17073155.911 8 -14400743.418 9
  24836224.550   -21034628.337 5   -558872.874 1
  24140248.264    -6428614.939 6  -4979017.367 2
 94  3 18 21 48 30.0010000  0  7 31 27  7 19  2 15 26
  24574609.192    19835103.071 5  -1558848.718 3
  20586052.033   -16872059.050 8 -17248413.902 9
  22474064.979   -17663463.297 7 -13761484.225 5
  21990196.564    -1454259.870 7  -2280358.421 6
  21425626.597   -17090104.986 8 -14413950.475 9
  24825521.449   -21090823.129 4   -602660.892 2
  24126188.028    -6502530.118 6  -5036613.578 2
 94  3 18 21 49  0.0010000  0  7 31 27  7 19  2 15 26
  24594442.592    19939458.392 5  -1477532.982 3
  20588901.830   -16857081.317 8 -17236742.955 9
  22458064.515   -17747549.521 7 -13827005.919 5
  22001374.625    -1395502.969 7  -2234573.841 6
  21422444.420   -17106823.092 8 -14426977.563 9
  24814895.725   -21146738.755 5   -646231.511 2
  24112183.343    -6576103.627 6  -5093943.506 2
 94  3 18 21 49 30.0010000  0  7 31 27  7 19  2 15 26
  24614345.993    20044032.769 5  -1396046.521 3
  20591826.605   -16841720.854 8 -17224773.771 9
  22442120.773   -17831333.206 7 -13892291.855 5
  22012614.474    -1336444.160 7  -2188554.021 6
  21419309.820   -17123306.497 8 -14439821.772 9
  24804313.531   -21202371.056 5   -689581.337 2
  24098252.257    -6649311.928 6  -5150988.899 2
 94  3 18 21 50  0.0010000  0  7 31 27  7 19  2 15 26
  24634312.620    20148837.415 5  -1314380.605 3
  20594823.330   -16825971.481 8 -17212501.540 9
  22426232.402   -17914829.712 7 -13957354.007 5
  22023909.125    -1277089.649 7  -2142303.771 6
  21416215.842   -17139561.016 8 -14452487.620 9
  24793771.000   -21257719.313 5   -732709.753 2
  24084391.952    -6722144.233 6  -5207741.311 2
 94  3 18 21 50 30.0010000  0  7 31 27  7 19  2 15 26
  24654282.455    20253885.027 5  -1232525.391 3
  20597896.953   -16809822.271 8 -17199917.752 9
  22410395.716   -17998041.663 7 -14022194.441 5
  22035255.250    -1217450.914 7  -2095832.076 6
  21413163.655   -17155594.600 8 -14464981.312 9
  24783305.904   -21312779.995 5   -775614.093 2
  24070605.606    -6794595.837 6  -5264197.080 2
 94  3 18 21 51  0.0010000  0  7 31 27  7 19  2 15 26
  24674306.613    20359155.659 5  -1150496.387 3
  20601047.622   -16793268.845 8 -17187018.991 9
  22394617.939   -18080956.168 7 -14086803.115 5
  22046658.666    -1157535.880 7  -2049145.061 6
  21410153.589   -17171413.645 8 -14477307.834 9
  24772865.452   -21367552.111 4   -818293.644 2
  24056889.022    -6866673.823 6  -5320361.670 2
 94  3 18 21 51 30.0010000  0  7 31 27  7 19  2 15 26
  24694398.374    20464639.966 5  -1068300.863 3
  20604278.155   -16776298.439 8 -17173795.314 9
  22378904.347   -18163534.050 7 -14151149.466 5
  22058111.907    -1097346.394 7  -2002244.198 6
  21407182.106   -17187023.576 8 -14489471.412 9
  24762503.575   -21422034.584 5   -860747.482 2
  24043239.172    -6938392.203 6  -5376246.113 2
 94  3 18 21 52  0.0010000  0  7 31 27  7 19  2 15 26
  24714487.586    20570331.415 5   -985943.989 3
  20607587.294   -16758910.343 8 -17160246.152 9
  22363258.119   -18245758.677 7 -14215220.558 5
  22069612.935    -1036893.247 7  -1955137.887 6
  21404248.517   -17202435.134 8 -14501480.403 9
  24752183.580   -21476225.279 4   -902973.900 2
  24029658.633    -7009760.480 6  -5431857.702 2
 94  3 18 21 52 30.0010000  0  7 31 27  7 19  2 15 26
  24734645.961    20676208.948 5   -903442.079 3
  20610973.720   -16741100.138 8 -17146368.080 9
  22347683.451   -18327603.815 7 -14278995.961 6
  22081168.945     -976178.535 7  -1907827.753 6
  21401359.687   -17217636.449 8 -14513325.571 9
  24741940.151   -21530119.860 4   -944969.591 2
  24016144.349    -7080788.165 6  -5487203.911 2
 94  3 18 21 53  0.0010000  0  7 31 27  7 19  2 15 26
  24754827.450    20782259.622 5   -820805.254 3
  20614443.038   -16722875.568 8 -17132167.115 9
  22332180.853   -18409070.681 7 -14342476.602 6
  22092777.688     -915177.419 7  -1860294.434 6
  21398505.903   -17232622.920 8 -14525003.332 9
  24731735.546   -21583716.520 4   -986733.232 2
  24002694.311    -7151484.162 6  -5542291.690 2
 94  3 18 21 53 30.0010000  0  7 31 27  7 19  2 15 26
  24775056.215    20888492.016 5   -738026.875 3
  20617986.765   -16704246.079 8 -17117650.646 9
  22316746.548   -18490179.307 7 -14405678.073 6
  22104442.643     -853881.816 7  -1812531.673 6
  21395696.008   -17247391.148 8 -14536511.031 9
  24721591.378   -21637014.190 5  -1028263.856 1
  23989305.100    -7221841.523 6  -5597115.569 2
 94  3 18 21 54  0.0010000  0  7 31 27  7 19  2 15 26
  24795292.086    20994913.559 5   -655101.020 3
  20621611.166   -16685213.644 8 -17102820.197 9
  22301373.760   -18570956.455 7 -14468621.267 6
  22116163.748     -792281.690 7  -1764531.608 6
  21392931.082   -17261923.280 8 -14547834.765 9
  24711516.073   -21690007.994 5  -1069557.665 1
  23975977.916    -7291858.171 6  -5651673.933 2
 94  3 18 21 54 30.0010000  0  7 31 27  7 19  2 15 26
  24815588.246    21101527.617 5   -572025.201 3
  20625307.097   -16665780.423 8 -17087677.436 9
  22286065.338   -18651407.326 7 -14531310.212 6
  22127945.052     -730363.206 7  -1716283.478 6
  21390211.605   -17276206.920 8 -14558964.852 9
  24701490.684   -21742696.185 5  -1110613.262 2
  23962722.832    -7361528.936 6  -5705962.837 2
 94  3 18 21 55  0.0010000  0  7 31 27  7 19  2 15 26
  24835895.647    21208335.333 4   -488798.483 3
  20629078.606   -16645957.679 8 -17072231.161 9
  22270815.915   -18731545.622 7 -14593755.599 6
  22139790.422     -668120.365 7  -1667782.595 6
  21387538.145   -17290257.617 8 -14569913.451 9
  24691510.143   -21795074.394 4  -1151427.400 1
  23949530.615    -7430842.472 6  -5759973.354 2
 94  3 18 21 55 30.0010000  0  7 31 27  7 19  2 15 26
  24856255.392    21315340.853 4   -405417.646 3
  20632927.881   -16625732.161 8 -17056471.023 9
  22255624.951   -18811370.062 7 -14655956.419 6
  22151692.992     -605574.032 7  -1619045.241 6
  21384908.216   -17304079.097 8 -14580683.424 9
  24681597.446   -21847137.045 4  -1191995.627 1
  23936409.089    -7499790.061 6  -5813698.727 2
 94  3 18 21 56  0.0010000  0  7 31 27  7 19  2 15 26
  24876689.306    21422543.940 5   -321882.848 3
  20636859.629   -16605087.461 8 -17040384.259 9
  22240497.994   -18890863.710 7 -14717899.498 6
  22163653.452     -542722.078 7  -1570069.714 6
  21382320.438   -17317680.040 8 -14591281.548 9
  24671755.649   -21898876.365 5  -1232311.935 1
  23923361.132    -7568370.162 6  -5867137.688 2
 94  3 18 21 56 30.0010000  0  7 31 27  7 19  2 15 26
  24897127.657    21529943.465 5   -238194.951 3
  20640862.428   -16584035.057 8 -17023979.800 9
  22225435.251   -18970008.782 7 -14779570.935 6
  22175672.401     -479574.319 7  -1520863.707 6
  21379772.861   -17331070.528 8 -14601715.693 9
  24661984.393   -21950287.122 5  -1272372.229 1
  23910379.009    -7636565.594 6  -5920276.991 2
 94  3 18 21 57  0.0010000  0  7 31 27  7 19  2 15 26
  24917589.092    21637537.093 4   -154355.837 3
  20644947.640   -16562574.059 8 -17007256.956 9
  22210444.939   -19048801.861 7 -14840968.091 6
  22187742.046     -416141.559 7  -1471435.612 6
  21377265.577   -17344248.115 8 -14611983.942 9
  24652269.559   -22001365.010 5  -1312173.097 1
  23897474.952    -7704371.849 6  -5973112.979 2
 94  3 18 21 57 30.0010000  0  7 31 27  7 19  2 15 26
  24938085.243    21745326.414 4    -70364.220 3
  20649109.689   -16540697.003 8 -16990209.909 9
  22195517.133   -19127236.944 7 -14902086.305 6
  22199866.432     -352421.532 7  -1421783.677 6
  21374801.433   -17357200.436 8 -14622076.668 9
  24642602.122   -22052110.542 4  -1351715.049 2
  23884655.077    -7771786.460 6  -6025643.789 2
 94  3 18 21 58  0.0010000  0  7 31 27  7 19  2 15 26
  24958644.920    21853315.997 4     13783.438 2
  20653353.611   -16518417.348 8 -16972849.155 9
  22180661.548   -19205302.136 7 -14962916.295 6
  22212047.899     -288403.427 7  -1371899.467 6
  21372377.461   -17369927.916 8 -14631994.169 9
  24633008.313   -22102519.721 4  -1390994.853 2
  23871899.028    -7838803.263 6  -6077864.634 2
 94  3 18 21 58 30.0010000  0  7 31 27  7 19  2 15 26
  24979277.476    21961503.817 5     98085.561 2
  20657667.924   -16495732.467 8 -16955172.635 9
  22165875.843   -19283004.971 7 -15023463.909 6
  22224290.284     -224079.213 7  -1321776.731 6
  21370002.475   -17382416.828 8 -14641725.799 9
  24623473.444   -22152588.282 4  -1430009.204 2
  23859224.343    -7905414.772 6  -6129769.695 2
 94  3 18 21 59  0.0010000  0  7 31 27  7 19  2 15 26
  24999857.419    22069880.897 4    182535.195 2
  20662065.760   -16472620.193 8 -16937163.072 9
  22151156.034   -19360361.034 7 -15083741.313 6
  22236591.518     -159431.825 7  -1271402.179 6
  21367668.471   -17394670.142 8 -14651273.831 9
  24614026.474   -22202313.088 4  -1468755.738 2
  23846618.400    -7971628.851 6  -6181365.048 2
 94  3 18 21 59 30.0010000  0  7 31 27  7 19  2 15 26
  25020517.616    22178451.421 4    267135.547 2
  20666548.017   -16449071.066 8 -16918813.109 9
  22136502.838   -19437371.187 7 -15143749.184 6
  22248957.058      -94455.002 7  -1220770.921 6
  21365378.176   -17406701.858 8 -14660649.198 9
  24604620.126   -22251691.999 4  -1507232.783 2
  23834099.486    -8037449.417 6  -6232653.787 2
 94  3 18 22  0  0.0010000  0  6 27  7 19  2 15 26
  20671110.348   -16425083.275 8 -16900121.337 9
  22121913.108   -19514037.552 7 -15203489.157 6
  22261384.025      -29154.730 7  -1169887.610 6
  21363131.712   -17418513.235 8 -14669852.872 9
  24595303.206   -22300723.266 5  -1545438.910 2
  23821648.146    -8102882.599 6  -6283640.649 2
 94  3 18 22  0 30.0010000  0  6 27  7 19  2 15 26
  20675755.812   -16400656.528 8 -16881087.519 9
  22107386.994   -19590362.859 7 -15262963.371 6
  22273872.209       36465.554 7  -1118754.972 6
  21360930.246   -17430093.175 8 -14678876.193 9
  24586012.458   -22349407.509 4  -1583374.585 2
  23809269.266    -8167931.415 6  -6334328.039 2
 94  3 18 22  1  0.0010000  0  6 27  7 19  2 15 26
  20680490.704   -16375797.270 8 -16861716.689 9
  22092935.499   -19666323.641 7 -15322153.562 6
  22286414.656      102398.038 7  -1067379.045 6
  21358768.652   -17441447.451 8 -14687723.691 9
  24576839.378   -22397742.103 5  -1621037.856 2
  23796959.608    -8232595.019 6  -6384715.225 2
 94  3 18 22  1 30.0010000  0  6 27  7 19  2 15 26
  20685300.844   -16350516.346 8 -16842017.269 9
  22078554.125   -19741890.493 7 -15381036.774 6
  22299020.959      168641.146 7  -1015761.066 6
  21356654.486   -17452571.188 8 -14696391.537 9
  24567708.150   -22445723.014 5  -1658425.511 2
  23784733.741    -8296862.526 6  -6434793.771 2
 94  3 18 22  2  0.0010000  0  6 27  7 19  2 15 26
  20690188.211   -16324824.821 8 -16821997.916 9
  22064249.288   -19817051.469 7 -15439603.727 6
  22311686.771      235191.730 7   -963903.498 6
  21354579.682   -17463461.349 8 -14704877.361 9
  24558645.693   -22493348.220 5  -1695536.006 2
  23772587.320    -8360727.591 6  -6484558.743 2
 94  3 18 22  2 30.0010000  0  6 27  7 19  2 15 26
  20695156.341   -16298722.838 8 -16801658.730 9
  22050026.534   -19891801.952 7 -15497850.809 6
  22324408.494      302049.822 7   -911806.326 5
  21352551.106   -17474129.229 8 -14713189.999 9
  24549623.919   -22540615.924 4  -1732367.917 2
  23760501.817    -8424188.667 6  -6534008.907 2
 94  3 18 22  3  0.0010000  0  6 27  7 19  2 15 26
  20700201.159   -16272204.482 8 -16780995.077 9
  22035876.450   -19966153.249 7 -15555786.856 6
  22337186.278      369194.871 7   -859485.539 5
  21350563.962   -17484590.113 8 -14721341.330 9
  24540719.843   -22587529.291 5  -1768923.678 2
  23748502.444    -8487248.911 6  -6583146.700 2
 94  3 18 22  3 30.0010000  0  6 27  7 19  2 15 26
  20705328.240   -16245270.349 8 -16760007.463 9
  22021800.235   -20040128.019 7 -15613429.507 7
  22350017.635      436613.430 7   -806951.635 5
  21348608.146   -17494841.600 8 -14729329.502 9
  24531847.006   -22634088.444 5  -1805203.481 2
  23736579.338    -8549906.566 6  -6631970.835 2
 94  3 18 22  4  0.0010000  0  6 27  7 19  2 15 26
  20710534.765   -16217914.622 8 -16738691.318 9
  22007792.492   -20113741.383 7 -15670790.532 7
  22362894.290      504290.135 7   -754216.576 5
  21346697.629   -17504876.104 8 -14737148.596 9
  24523057.451   -22680291.539 5  -1841205.806 2
  23724731.630    -8612156.007 6  -6680476.892 2
 94  3 18 22  4 30.0010000  0  6 27  7 19  2 15 26
  20715819.626   -16190133.073 8 -16717043.377 9
  21993852.803   -20186993.637 7 -15727870.173 7
  22375821.161      572222.333 7   -701282.432 5
  21344833.579   -17514689.811 8 -14744795.629 9
  24514350.908   -22726130.201 5  -1876924.171 2
  23712967.474    -8673984.284 6  -6728654.697 3
 94  3 18 22  5  0.0010000  0  6 27  7 19  2 15 26
  20721187.201   -16161931.982 8 -16695068.514 9
  21979982.845   -20259876.563 7 -15784662.031 7
  22388796.958      640406.664 7   -648151.821 5
  21343004.815   -17524290.766 8 -14752276.891 9
  24505688.885   -22771600.924 5  -1912355.829 2
  23701287.170    -8735376.820 6  -6776493.019 3
 94  3 18 22  5 30.0010000  0  6 27  7 19  2 15 26
  20726633.500   -16133317.917 8 -16672771.849 9
  21966188.494   -20332365.413 7 -15841146.810 7
  22401825.519      708867.066 7   -594806.095 5
  21341218.562   -17533684.853 8 -14759596.940 9
  24497114.401   -22816697.782 5  -1947496.185 2
  23689681.215    -8796336.279 6  -6823993.863 3
 94  3 18 22  6  0.0010000  0  6 27  7 19  2 15 26
  20732155.198   -16104294.755 8 -16650156.416 9
  21952470.651   -20404449.579 7 -15897316.275 7
  22414907.892      777617.584 7   -541234.302 5
  21339467.654   -17542889.091 9 -14766769.065 9
  24488589.352   -22861420.183 5  -1982344.718 2
  23678165.557    -8856874.627 6  -6871166.584 3
 94  3 18 22  6 30.0010000  0  6 27  7 19  2 15 26
  20737756.490   -16074858.122 8 -16627218.794 9
  21938831.923   -20476126.146 7 -15953168.117 7
  22428043.179      846667.804 7   -487428.971 5
  21337747.625   -17551916.620 9 -14773803.499 9
  24480159.278   -22905765.177 5  -2016899.160 2
  23666724.368    -8917006.376 6  -6918022.468 3
 94  3 18 22  7  0.0010000  0  6 27  7 19  2 15 26
  20743438.187   -16044998.709 8 -16603951.727 9
  21925269.732   -20547401.817 7 -16008707.575 7
  22441242.231      916026.588 7   -433383.208 5
  21336065.489   -17560754.350 9 -14780690.023 9
  24471790.812   -22949731.929 5  -2051158.904 2
  23655352.730    -8976739.518 6  -6964567.717 3
 94  3 18 22  7 30.0010000  0  6 27  7 19  2 15 26
  20749201.667   -16014710.049 8 -16580350.195 9
  21911780.870   -20618290.676 7 -16063945.606 7
  22454506.489      985707.594 7   -379086.338 5
  21334423.856   -17569381.385 8 -14787412.388 9
  24463490.248   -22993315.364 5  -2085119.958 2
  23644061.976    -9036086.536 6  -7010812.144 3
 94  3 18 22  8  0.0010000  0  6 27  7 19  2 15 26
  20755050.737   -15983980.779 8 -16556405.317 9
  21898359.611   -20688809.556 7 -16118895.372 7
  22467822.820     1055696.805 7   -324549.323 5
  21332826.801   -17577784.809 8 -14793960.509 9
  24455266.731   -23036515.724 5  -2118782.482 2
  23632844.282    -9095039.620 6  -7056749.528 3
 94  3 18 22  8 30.0010000  0  6 27  7 19  2 15 26
  20760983.690   -15952804.559 8 -16532112.171 9
  21885012.011   -20758952.531 7 -16173552.211 7
  22481197.941     1125984.018 7   -269780.100 5
  21331270.279   -17585949.359 8 -14800322.478 9
  24447124.638   -23079329.060 5  -2152143.464 2
  23621706.513    -9153573.767 6  -7102360.566 3
 94  3 18 22  9  0.0010000  0  6 27  7 19  2 15 26
  20766995.548   -15921190.325 8 -16507477.715 9
  21871740.679   -20828699.950 7 -16227900.814 7
  22494631.671     1196569.711 7   -214778.300 5
  21329763.972   -17593872.848 9 -14806496.627 9
  24439042.443   -23121752.187 5  -2185200.385 2
  23610647.679    -9211676.049 6  -7147635.027 3
 94  3 18 22  9 30.0010000  0  6 27  7 19  2 15 26
  20773098.033   -15889142.322 8 -16482505.260 9
  21858544.385   -20898042.531 7 -16281933.976 7
  22508117.025     1267436.271 7   -159557.647 5
  21328296.877   -17601578.510 8 -14812501.022 9
  24431070.872   -23163781.142 5  -2217950.163 2
  23599677.643    -9269345.468 6  -7192572.256 3
 94  3 18 22 10  0.0010000  0  6 27  7 19  2 15 26
  20779277.416   -15856662.942 8 -16457196.664 9
  21845428.495   -20966972.709 7 -16335645.787 8
  22521650.586     1338561.227 7   -104135.641 5
  21326868.336   -17609081.128 9 -14818347.218 9
  24423134.946   -23205415.769 5  -2250392.673 2
  23588788.162    -9326564.991 6  -7237158.810 3
 94  3 18 22 10 30.0010000  0  6 27  7 19  2 15 26
  20785537.052   -15823768.609 8 -16431564.733 9
  21832386.983   -21035488.749 7 -16389034.864 8
  22535238.859     1409948.599 7    -48509.152 5
  21325482.726   -17616383.663 9 -14824037.500 9
  24415272.529   -23246650.658 5  -2282523.727 2
  23577984.991    -9383337.000 6  -7281396.754 3
 94  3 18 22 11  0.0010000  0  6 27  7 19  2 15 26
  20791876.493   -15790458.463 8 -16405608.779 9
  21819429.803   -21103604.541 7 -16442112.077 8
  22548871.741     1481608.086 7      7329.361 5
  21324125.355   -17623489.655 9 -14829574.643 9
  24407521.155   -23287483.956 5  -2314341.869 2
  23567258.297    -9439689.103 6  -7325307.441 3
 94  3 18 22 11 30.0010000  0  6 27  7 19  2 15 26
  20798296.609   -15756724.311 8 -16379322.442 9
  21806536.329   -21171336.093 7 -16494889.882 8
  22562564.971     1553548.241 7     63386.588 5
  21322814.453   -17630390.207 9 -14834951.689 9
  24399804.977   -23327910.286 4  -2345842.841 2
  23556616.414    -9495612.913 6  -7368884.422 3
 94  3 18 22 12  0.0010000  0  6 27  7 19  2 15 26
  20804793.981   -15722565.939 8 -16352705.538 9
  21793723.409   -21238676.892 7 -16547363.199 8
  22576309.346     1625792.979 6    119681.165 5
  21321543.692   -17637067.773 9 -14840154.980 9
  24392202.360   -23367928.993 5  -2377026.254 2
  23546056.914    -9551114.154 6  -7412132.134 3
 94  3 18 22 12 30.0010000  0  6 27  7 19  2 15 26
  20811377.663   -15687988.373 8 -16325761.983 9
  21780986.667   -21305614.252 7 -16599522.148 8
  22590119.975     1698354.736 6    176222.756 5
  21320313.344   -17643519.435 9 -14845182.259 9
  24384654.215   -23407538.561 5  -2407890.807 2
  23535572.152    -9606198.497 6  -7455054.958 3
 94  3 18 22 13  0.0010000  0  6 27  7 19  2 15 26
  20818038.782   -15652977.973 8 -16298481.182 9
  21768327.600   -21372122.962 7 -16651347.078 8
  22603989.334     1771240.938 6    233017.169 4
  21319130.063   -17649754.321 9 -14850040.620 9
  24377202.184   -23446730.696 5  -2438430.125 2
  23525170.403    -9660845.434 6  -7497636.966 3
 94  3 18 22 13 30.0010000  0  6 27  7 19  2 15 26
  20824781.864   -15617543.814 8 -16270870.170 9
  21755758.352   -21438192.416 7 -16702829.735 8
  22617914.903     1844441.501 6    290056.508 4
  21317984.526   -17655781.080 9 -14854736.786 9
  24369832.986   -23485501.359 5  -2468640.990 2
  23514863.928    -9715025.375 6  -7539855.099 3
 94  3 18 22 14  0.0010000  0  6 27  7 19  2 15 26
  20831603.281   -15581690.471 8 -16242932.497 9
  21743269.867   -21503811.510 7 -16753961.453 8
  22631904.119     1917948.718 6    347334.825 4
  21316872.416   -17661603.916 8 -14859274.061 9
  24362534.298   -23523848.026 5  -2498521.445 2
  23504648.890    -9768735.154 6  -7581706.842 3
 94  3 18 22 14 30.0010000  0  6 27  7 19  2 15 26
  20838506.812   -15545421.553 8 -16214671.022 9
  21730866.464   -21568986.870 7 -16804747.411 8
  22645948.796     1991755.480 6    404846.552 4
  21315801.348   -17667237.396 8 -14863663.773 9
  24355308.281   -23561766.838 5  -2528068.575 2
  23494522.351    -9821951.358 6  -7623173.999 3
 94  3 18 22 15  0.0010000  0  6 27  7 19  2 15 26
  20845488.379   -15508722.542 8 -16186074.402 9
  21718546.103   -21633739.062 7 -16855203.626 8
  22660051.603     2065858.309 6    462588.979 4
  21314765.805   -17672687.420 8 -14867910.552 9
  24348184.912   -23599258.669 5  -2557282.970 2
  23484483.710    -9874680.618 6  -7664261.691 3
 94  3 18 22 15 30.0010000  0  6 27  7 19  2 15 26
  20852557.275   -15471579.205 8 -16157131.550 9
  21706299.552   -21698081.135 7 -16905340.267 8
  22674208.222     2140258.130 6    520562.829 4
  21313767.586   -17677928.452 8 -14871994.470 9
  24341149.443   -23636317.856 5  -2586160.251 2
  23474538.875    -9926933.885 6  -7704978.530 3
 94  3 18 22 16  0.0010000  0  6 27  7 19  2 15 26
  20859713.291   -15433974.381 8 -16127829.104 8
  21694137.391   -21762005.391 7 -16955151.326 8
  22688425.670     2214962.961 6    578774.326 4
  21312812.357   -17682944.813 8 -14875903.312 9
  24334156.904   -23672939.227 5  -2614696.320 2
  23464681.969    -9978718.806 6  -7745330.402 3
 94  3 18 22 16 30.0010000  0  6 27  7 19  2 15 26
  20866957.716   -15395896.819 8 -16098158.299 8
  21682051.498   -21825510.696 7 -17004635.948 8
  22702698.189     2289965.805 6    637218.060 4
  21311901.318   -17687731.935 8 -14879633.539 9
  24327272.260   -23709116.814 5  -2642886.663 2
  23454915.960   -10030038.466 6  -7785319.712 3
 94  3 18 22 17  0.0010000  0  6 27  7 19  2 15 26
  20874295.136   -15357342.781 8 -16068116.203 8
  21670048.108   -21888598.291 7 -17053795.059 8
  22717021.853     2365250.692 6    695881.570 4
  21311037.945   -17692272.576 8 -14883171.692 9
  24320496.591   -23744848.199 5  -2670729.238 2
  23445239.468   -10080900.974 6  -7824952.824 3
 94  3 18 22 17 30.0010000  0  6 27  7 19  2 15 26
  20881717.008   -15318332.099 8 -16037718.270 8
  21658124.822   -21951258.810 7 -17102621.404 8
  22731403.377     2440812.067 6    754760.536 4
  21310223.140   -17696565.309 8 -14886516.683 9
  24313774.944   -23780129.725 5  -2698221.299 2
  23435648.478   -10131294.443 6  -7864220.448 3
 94  3 18 22 18  0.0010000  0  6 27  7 19  2 15 26
  20889225.310   -15278881.473 8 -16006977.547 8
  21646282.570   -22013486.017 7 -17151110.089 8
  22745830.379     2516649.328 6    813854.457 4
  21309447.486   -17700630.894 8 -14889684.662 9
  24307151.449   -23814962.334 5  -2725363.533 2
  23426149.674   -10181209.685 6  -7903115.405 3
 94  3 18 22 18 30.0010000  0  6 27  7 19  2 15 26
  20896816.595   -15238993.124 8 -15975895.724 8
  21634523.031   -22075278.244 7 -17199259.835 8
  22760320.968     2592766.517 6    873166.510 4
  21308715.633   -17704482.330 8 -14892685.780 9
  24300595.348   -23849343.745 5  -2752154.182 2
  23416745.754   -10230648.897 6  -7941639.461 3
 94  3 18 22 19  0.0010000  0  6 27  7 19  2 15 26
  20904491.702   -15198671.879 8 -15944476.598 8
  21622847.794   -22136629.611 7 -17247066.073 8
  22774866.118     2669184.797 6    932713.176 4
  21308020.504   -17708133.900 8 -14895531.159 9
  24294141.686   -23883274.981 5  -2778594.103 2
  23407423.738   -10279617.010 6  -7979796.431 3
 94  3 18 22 19 30.0010000  0  6 27  7 19  2 15 26
  20912242.866   -15157920.592 8 -15912722.377 8
  21611260.516   -22197525.824 7 -17294517.622 8
  22789461.934     2745925.431 6    992511.049 4
  21307360.961   -17711600.293 9 -14898232.240 9
  24287770.167   -23916752.391 5  -2804680.343 2
  23398194.087   -10328126.160 6  -8017595.739 3
 94  3 18 22 20  0.0010000  0  6 27  7 19  2 15 26
  20920080.729   -15116731.068 8 -15880626.643 8
  21599760.837   -22257952.455 7 -17341603.287 8
  22804127.061     2822988.929 6   1052560.475 4
  21306739.581   -17714874.417 9 -14900783.505 9
  24281465.711   -23949776.422 5  -2830413.325 2
  23389045.351   -10376185.315 6  -8055044.428 3
 94  3 18 22 20 30.0010000  0  6 27  7 19  2 15 26
  20928003.135   -15075103.913 8 -15848189.917 8
  21588351.006   -22317914.236 7 -17388326.720 8
  22818853.646     2900365.555 6   1112853.906 4
  21306154.896   -17717945.982 9 -14903176.937 9
  24275269.091   -23982347.547 5  -2855793.408 2
  23379986.432   -10423798.546 6  -8092145.615 3
 94  3 18 22 21  0.0010000  0  6 27  7 19  2 15 26
  20936007.803   -15033045.245 8 -15815416.956 8
  21577028.894   -22377414.848 7 -17434690.815 8
  22833632.005     2978031.850 6   1173373.038 4
  21305610.233   -17720804.968 9 -14905404.716 9
  24269163.608   -24014466.427 5  -2880821.035 2
  23371011.725   -10470958.386 6  -8128893.515 3
 94  3 18 22 21 30.0010000  0  6 27  7 19  2 15 26
  20944091.377   -14990565.265 8 -15782315.688 8
  21565790.274   -22436467.896 7 -17480706.140 8
  22848460.010     3055952.354 6   1234090.282 4
  21305107.691   -17723441.169 9 -14907458.905 9
  24263150.131   -24046135.988 5  -2905498.562 2
  23362128.965   -10517649.819 6  -8165276.445 3
 94  3 18 22 22  0.0010000  0  6 27  7 19  2 15 26
  20952256.884   -14947652.954 8 -15748877.546 8
  21554636.735   -22495091.100 7 -17526386.532 8
  22863336.581     3134113.342 6   1294994.904 4
  21304646.160   -17725857.177 9 -14909341.491 9
  24257214.270   -24077354.643 5  -2929824.771 2
  23353336.532   -10563850.763 6  -8201277.186 3
 94  3 18 22 22 30.0010000  0  6 27  7 19  2 15 26
  20960506.034   -14904303.310 8 -15715098.616 8
  21543556.286   -22553302.900 7 -17571746.354 8
  22878252.845     3212515.166 6   1356087.186 4
  21304223.693   -17728073.120 9 -14911068.199 9
  24251354.647   -24108121.207 5  -2953798.639 2
  23344636.764   -10609555.989 6  -8236891.631 3
 94  3 18 22 23  0.0010000  0  6 27  7 19  2 15 26
  20968838.075   -14860512.475 8 -15680975.905 8
  21532558.970   -22611097.427 7 -17616781.028 8
  22893218.874     3291165.527 6   1417373.101 4
  21303839.389   -17730096.501 9 -14912644.853 9
  24245577.916   -24138433.266 5  -2977418.417 2
  23336038.477   -10654764.906 6  -8272119.334 3
 94  3 18 22 23 30.0010000  0  6 27  7 19  2 15 26
  20977253.999   -14816275.353 8 -15646505.438 8
  21521642.057   -22668465.788 7 -17661483.627 8
  22908240.305     3370099.879 6   1478880.356 4
  21303491.120   -17731934.234 9 -14914076.865 9
  24239915.676   -24168287.690 5  -3000681.542 2
  23327529.497   -10699481.659 6  -8306963.544 3
 94  3 18 22 24  0.0010000  0  6 27  7 19  2 15 26
  20985761.210   -14771581.553 8 -15611679.107 8
  21510811.725   -22725396.361 7 -17705845.096 8
  22923320.316     3449335.836 6   1540622.593 4
  21303175.648   -17733593.490 9 -14915369.780 9
  24234298.464   -24197683.312 5  -3023587.198 2
  23319111.835   -10743724.307 6  -8341438.321 3
 94  3 18 22 24 30.0010000  0  6 27  7 19  2 15 26
  20994353.112   -14726440.934 8 -15576504.624 8
  21500064.645   -22781865.871 7 -17749847.296 8
  22938447.064     3528868.362 6   1602595.951 4
  21302895.372   -17735058.505 9 -14916511.348 9
  24228805.817   -24226618.905 5  -3046134.400 2
  23310776.435   -10787496.103 6  -8375546.194 3
 94  3 18 22 25  0.0010000  0  6 27  7 19  2 15 26
  21003024.129   -14680869.639 8 -15540994.537 8
  21489406.184   -22837873.315 7 -17793489.437 8
  22953645.042     3608688.813 6   1664793.666 4
  21302653.890   -17736330.282 9 -14917502.348 9
  24223386.199   -24255093.962 5  -3068322.701 2
  23302536.400   -10830795.543 6  -8409286.032 3
 94  3 18 22 25 30.0010000  0  6 27  7 19  2 15 26
  21011777.949   -14634872.522 8 -15505152.658 8
  21478832.923   -22893430.635 7 -17836780.834 8
  22968888.140     3688785.298 6   1727206.473 3
  21302449.581   -17737413.078 9 -14918346.084 9
  24218055.949   -24283108.598 5  -3090152.280 2
  23294392.598   -10873620.159 6  -8442655.836 3
 94  3 18 22 26  0.0010000  0  6 27  7 19  2 15 26
  21020608.785   -14588459.229 8 -15468986.464 7
  21468344.085   -22948552.235 7 -17879732.706 8
  22984171.409     3769127.833 6   1789810.989 3
  21302278.549   -17738305.569 9 -14919041.532 9
  24212810.180   -24310658.317 5  -3111619.571 2
  23286330.309   -10915966.671 6  -8475653.102 4
 94  3 18 22 26 30.0010000  0  6 27  7 19  2 15 26
  21029518.048   -14541643.779 8 -15432506.914 7
  21457934.901   -23003257.424 7 -17922360.095 8
  22999508.911     3849715.322 6   1852606.400 3
  21302146.911   -17739014.223 9 -14919593.727 9
  24207672.967   -24337739.306 5  -3132721.604 2
  23278367.941   -10957820.564 6  -8508266.506 3
 94  3 18 22 27  0.0010000  0  6 27  7 19  2 15 26
  21038501.239   -14494424.769 8 -15395712.901 7
  21447601.744   -23057551.658 7 -17964667.266 8
  23014892.881     3930561.033 6   1915603.004 3
  21302045.581   -17739551.497 9 -14920012.379 9
  24202589.056   -24364346.712 5  -3153454.629 2
  23270499.588   -10999181.233 6  -8540495.598 3
 94  3 18 22 27 30.0010000  0  6 27  7 19  2 15 26
  21047566.243   -14446794.774 8 -15358598.634 7
  21437349.712   -23111428.670 8 -18006649.343 8
  23030329.285     4011659.771 6   1978796.782 3
  21301973.780   -17739908.120 9 -14920290.276 9
  24197625.273   -24390483.117 5  -3173820.615 2
  23262721.263   -11040052.638 6  -8572343.434 3
 94  3 18 22 28  0.0010000  0  6 27  7 19  2 15 26
  21056709.703   -14398745.457 8 -15321157.626 7
  21427180.302   -23164873.334 7 -18048294.503 9
  23045807.270     4093017.376 6   2042192.263 3
  21301937.895   -17740087.166 9 -14920429.781 9
  24192749.538   -24416147.380 5  -3193818.726 2
  23255035.274   -11080431.776 6  -8603807.695 3
 94  3 18 22 28 30.0010000  0  6 27  7 19  2 15 26
  21065934.917   -14350257.768 8 -15283375.025 7
  21417096.782   -23217850.429 8 -18089575.349 9
  23061337.208     4174644.015 6   2105797.373 3
  21301939.394   -17740090.895 9 -14920432.698 9
  24187921.470   -24441337.828 5  -3213447.615 2
  23247443.360   -11120311.685 6  -8634882.939 3
 94  3 18 22 29  0.0010000  0  6 27  7 19  2 15 26
  21075251.327   -14301322.518 8 -15245243.681 7
  21407111.205   -23270329.404 7 -18130468.031 9
  23076921.230     4256531.639 6   2169605.848 3
  21301973.031   -17739906.350 9 -14920288.884 9
  24183249.864   -24466054.204 5  -3232707.096 2
  23239951.846   -11159696.177 6  -8665572.132 4
 94  3 18 22 29 30.0010000  0  6 27  7 19  2 15 26
  21084649.221   -14251935.258 8 -15206760.123 7
  21397217.874   -23322311.075 7 -18170973.204 9
  23092552.259     4338675.098 6   2233613.695 3
  21302048.579   -17739527.183 9 -14919993.444 9
  24178629.223   -24490296.363 5  -3251597.093 2
  23232547.182   -11198590.309 6  -8695879.241 4
 94  3 18 22 30  0.0010000  0  6 27  7 19  2 15 26
  21094131.057   -14202105.619 8 -15167931.849 8
  21387421.556   -23373801.124 7 -18211095.301 9
  23108238.060     4421080.457 6   2297825.594 3
  21302151.318   -17738959.306 9 -14919550.938 9
  24174110.422   -24514064.483 5  -3270117.668 2
  23225244.268   -11237000.786 6  -8725809.476 4
 94  3 18 22 30 30.0010000  0  6 27  7 19  2 15 26
  21103695.156   -14151842.402 8 -15128765.729 8
  21377717.544   -23424810.547 8 -18250842.860 9
  23123961.485     4503740.215 6   2362235.729 3
  21302298.096   -17738194.646 9 -14918955.092 9
  24169673.523   -24537357.079 5  -3288267.717 2
  23218021.548   -11274929.969 6  -8755364.655 4
 94  3 18 22 31  0.0010000  0  6 27  7 19  2 15 26
  21113340.798   -14101162.057 8 -15089274.559 8
  21368088.810   -23475379.894 8 -18290247.530 9
  23139743.159     4586664.209 6   2426851.772 3
  21302484.927   -17737225.812 9 -14918200.166 9
  24165312.952   -24560171.021 5  -3306044.830 2
  23210895.511   -11312380.798 6  -8784547.104 4
 94  3 18 22 31 30.0010000  0  6 27  7 19  2 15 26
  21123064.447   -14050062.054 8 -15049456.399 7
  21358547.195   -23525532.764 8 -18329327.652 9
  23155577.148     4669873.441 6   2491690.095 3
  21302706.623   -17736061.847 9 -14917293.177 9
  24161094.632   -24582503.091 5  -3323446.417 2
  23203861.721   -11349352.817 6  -8813356.472 4
 94  3 18 22 32  0.0010000  0  6 27  7 19  2 15 26
  21132865.472   -13998544.006 8 -15009312.484 7
  21349086.255   -23575260.901 8 -18368076.820 9
  23171466.178     4753370.025 6   2556752.329 3
  21302965.644   -17734703.291 8 -14916234.559 9
  24156927.307   -24604348.218 5  -3340468.522 2
  23196916.579   -11385837.838 6  -8841786.338 4
 94  3 18 22 32 30.0010000  0  6 27  7 19  2 15 26
  21142751.068   -13946603.891 8 -14968839.683 7
  21339706.199   -23624560.251 8 -18406491.877 9
  23187415.316     4837146.509 6   2622032.621 3
  21303257.881   -17733158.534 8 -14915030.863 9
  24152859.783   -24625704.510 5  -3357109.786 2
  23190073.456   -11421822.296 6  -8869826.170 4
 94  3 18 22 33  0.0010000  0  7 27 13  7 19  2 15 26
  21152717.069   -13894236.754 8 -14928034.130 7
  25246927.656    -1874092.91515  -1199114.354 1
  21330406.787   -23673412.632 8 -18444558.635 9
  23203407.026     4921207.846 6   2687534.924 3
  21303585.195   -17731435.276 8 -14913688.062 9
  24148903.572   -24646566.038 5  -3373365.464 2
  23183320.211   -11457304.227 6  -8897474.424 4
 94  3 18 22 33 30.0010000  0  7 27 13  7 19  2 15 26
  21162762.155   -13841441.873 8 -14886895.285 7
  25224710.786    -1990860.079 5  -1290101.773
  21321202.918   -23721777.558 8 -18482245.567 9
  23219458.483     5005531.571 6   2753241.675 3
  21303947.194   -17729543.091 8 -14912213.632 9
  24145001.983   -24666928.714 5  -3389232.484 2
  23176663.380   -11492279.146 6  -8924727.586 4
 94  3 18 22 34  0.0010000  0  7 27 13  7 19  2 15 26
  21172887.645   -13788229.207 8 -14845430.896 7
  25202503.240    -2107585.604 5  -1381056.448 1
  21312096.033   -23769638.561 8 -18519539.826 9
  23235539.950     5090087.217 6   2819129.129 3
  21304339.653   -17727483.637 8 -14910608.857 9
  24141249.661   -24686792.089 6  -3404710.398 2
  23170105.330   -11526739.358 6  -8951579.683 4
 94  3 18 22 34 30.0010000  0  7 27 13  7 19  2 15 26
  21183094.109   -13734592.155 8 -14803635.789 7
  25180296.623    -2224261.953 5  -1471972.800 1
  21303082.083   -23817000.734 8 -18556445.380 9
  23251675.500     5174868.878 6   2885192.687 3
  21304761.401   -17725254.320 8 -14908871.725 9
  24137561.914   -24706149.986 5  -3419794.442 2
  23163644.712   -11560679.503 6  -8978026.525 4
 94  3 18 22 35  0.0010000  0  7 27 13  7 19  2 15 26
  21193382.567   -13680537.329 8 -14761515.157 7
  25158103.347    -2340888.839 5  -1562850.768 1
  21294164.906   -23863869.825 8 -18592966.720 9
  23267851.911     5259877.117 6   2951432.819 3
  21305217.445   -17722850.576 8 -14906998.679 9
  24133964.854   -24725003.286 5  -3434485.283 2
  23157281.767   -11594122.580 6  -9004086.073 4
 94  3 18 22 35 30.0010000  0  7 27 13  7 19  2 15 26
  21203747.861   -13626063.516 8 -14719068.058 7
  25135917.806    -2457468.059 5  -1653691.532 1
  21285336.318   -23910262.858 8 -18629117.108 9
  23284074.461     5345108.622 6   3017846.923 3
  21305714.021   -17720262.029 8 -14904981.623 9
  24130478.387   -24743355.126 5  -3448785.406 2
  23151016.795   -11627065.974 6  -9029756.242 4
 94  3 18 22 36  0.0010000  0  7 27 13  7 19  2 15 26
  21214197.007   -13571156.221 8 -14676283.165 7
  25113738.950    -2573998.059 5  -1744493.884 1
  21276592.122   -23956209.690 8 -18664919.806 9
  23300335.413     5430577.458 6   3084445.915 3
  21306241.386   -17717472.282 8 -14902807.816 9
  24127074.904   -24761205.089 5  -3462694.467 2
  23144833.935   -11659516.950 6  -9055042.689 4
 94  3 18 22 36 30.0010000  0  7 27 13  7 19  2 15 26
  21224726.977   -13515811.266 8 -14633157.250 7
  25091579.431    -2690475.595 5  -1835255.470 1
  21267932.497   -24001717.757 8 -18700380.616 9
  23316649.609     5516294.947 6   3151238.739 3
  21306812.251   -17714485.793 8 -14900480.659 9
  24123773.469   -24778551.190 5  -3476210.843 2
  23138750.037   -11691488.579 6  -9079955.634 4
 94  3 18 22 37  0.0010000  0  7 27 13  7 19  2 15 26
  21235344.427   -13460029.736 8 -14589691.147 7
  25069421.860    -2806896.297 5  -1925972.722 1
  21259360.171   -24046774.177 8 -18735489.495 9
  23333009.254     5602275.116 6   3218236.170 3
  21307416.992   -17711306.393 8 -14898003.224 9
  24120563.711   -24795390.584 5  -3489332.464 2
  23132764.950   -11722972.376 6  -9104488.450 4
 94  3 18 22 37 30.0010000  0  7 27 13  7 19  2 15 26
  21246041.771   -13403809.556 8 -14545883.238 7
  25047280.329    -2923261.078 5  -2016646.419 1
  21250871.338   -24091381.009 8 -18770248.039 9
  23349427.088     5688512.999 6   3285434.508 3
  21308056.869   -17707947.358 8 -14895385.793 9
  24117469.433   -24811725.243 5  -3502060.726 2
  23126868.842   -11753947.684 6  -9128625.054 4
 94  3 18 22 38  0.0010000  0  7 27 13  7 19  2 15 26
  21256820.839   -13347163.453 8 -14501743.436 7
  25025147.851    -3039563.547 5  -2107271.566 1
  21242470.434   -24135522.372 8 -18804643.881 9
  23365882.966     5775021.357 6   3352843.552 3
  21308726.456   -17704419.519 8 -14892636.816 9
  24114453.072   -24827550.495 5  -3514392.088 2
  23121070.706   -11784411.235 6  -9152362.877 4
 94  3 18 22 38 30.0010000  0  7 27 13  7 19  2 15 26
  21267676.894   -13290103.139 8 -14457280.876 7
  25003034.619    -3155801.263 5  -2197846.303 1
  21234164.354   -24179177.034 8 -18838660.483 9
  23382399.162     5861794.067 6   3420458.570 3
  21309428.779   -17700737.303 8 -14889767.563 9
  24111528.956   -24842865.166 5  -3526325.581 2
  23115376.718   -11814346.235 6  -9175688.872 4
 94  3 18 22 39  0.0010000  0  7 27 13  7 19  2 15 26
  21278616.830   -13232622.619 8 -14412490.882 7
  24980917.131    -3271968.502 5  -2288366.073 1
  21225947.462   -24222347.444 8 -18872299.755 9
  23398961.916     5948828.703 6   3488277.704 3
  21310161.772   -17696872.482 8 -14886756.011 9
  24108716.603   -24857664.808 5  -3537857.709 2
  23109787.357   -11843735.110 6  -9198589.258 4
 94  3 18 22 39 30.0010000  0  7 27 13  7 19  2 15 26
  21289635.042   -13174719.251 8 -14367371.401 7
  24958834.868    -3388054.475 5  -2378822.503 1
  21217824.466   -24265031.856 8 -18905560.307 9
  23415569.848     6036130.334 6   3556304.909 3
  21310936.496   -17692802.527 8 -14883584.616 9
  24105995.656   -24871940.229 5  -3548981.406 2
  23104293.211   -11872576.997 6  -9221063.455 4
 94  3 18 22 40  0.0010000  0  7 27 13  7 19  2 15 26
  21300735.248   -13116389.167 8 -14321919.411 7
  24936764.027    -3504056.200 5  -2469213.295 1
  21209794.585   -24307232.152 8 -18938443.635 9
  23432236.600     6123689.834 6   3624533.024 3
  21311750.792   -17688518.067 9 -14880246.071 9
  24103393.368   -24885690.271 5  -3559695.697 2
  23098911.396   -11900883.100 7  -9243120.149 4
 94  3 18 22 40 30.0010000  0  7 27 13  7 19  2 15 26
  21311919.845   -13057613.126 8 -14276119.928 7
  24914691.748    -3619965.496 5  -2559531.963 1
  21201855.811   -24348953.857 8 -18970954.028 9
  23448935.939     6211496.747 6   3692953.920 3
  21312612.905   -17684006.372 9 -14876730.467 9
  24100885.424   -24898907.931 5  -3569995.163 2
  23093628.034   -11928652.312 6  -9264758.495 4
 94  3 18 22 41  0.0010000  0  7 27 13  7 19  2 15 26
  21323188.114   -12998396.556 8 -14229977.159 7
  24892670.073    -3735780.909 5  -2649777.497 1
  21194006.285   -24390210.948 8 -19003102.393 9
  23465701.113     6299561.452 6   3761575.695 3
  21313512.163   -17679267.427 9 -14873037.792 9
  24098484.326   -24911593.262 5  -3579879.809 2
  23088435.808   -11955897.883 6  -9285988.807 4
 94  3 18 22 41 30.0010000  0  7 27 13  7 19  2 15 26
  21334540.085   -12938749.072 8 -14183498.631 7
  24870642.193    -3851501.714 5  -2739949.382 1
  21186244.238   -24430995.070 8 -19034882.193 9
  23482505.829     6387885.601 6   3830399.670 3
  21314452.132   -17674326.369 8 -14869187.609 9
  24096156.918   -24923747.297 5  -3589350.468 2
  23083355.825   -11982628.188 6  -9306817.622 4
 94  3 18 22 42  0.0010000  0  7 27 13  7 19  2 15 26
  21345971.801   -12878673.349 8 -14136686.407 7
  24848638.446    -3967123.538 5  -2830044.093 1
  21178574.528   -24471298.743 8 -19066287.641 9
  23499366.787     6476461.562 6   3899419.845 3
  21315428.856   -17669199.383 8 -14865192.568 9
  24093931.768   -24935366.873 5  -3598404.670 2
  23078362.032   -12008833.260 6  -9327237.140 4
 94  3 18 22 42 30.0010000  0  7 27 13  7 19  2 15 26
  21357478.765   -12818194.050 8 -14089559.716 7
  24826660.840    -4082647.200 5  -2920062.323 1
  21171001.381   -24511121.387 8 -19097318.233 9
  23516271.754     6565294.916 6   3968640.568 3
  21316437.118   -17663895.758 8 -14861059.861 9
  24091824.257   -24946454.337 5  -3607044.237 2
  23073478.893   -12034513.297 6  -9347247.549 4
 94  3 18 22 43  0.0010000  0  7 27 13  7 19  2 15 26
  21369067.183   -12757308.591 8 -14042116.519 7
  24804682.666    -4198071.022 4  -3010002.646 1
  21163512.385   -24550452.167 8 -19127965.586 9
  23533229.394     6654394.728 6   4038068.961 3
  21317480.815   -17658419.791 8 -14856792.881 9
  24089825.421   -24957009.953 5  -3615269.377 2
  23068693.156   -12059658.262 6  -9366841.033 4
 94  3 18 22 43 30.0010000  0  7 27 13  7 19  2 15 26
  21380732.797   -12696001.290 8 -13994344.629 7
  24782746.552    -4313390.019 4  -3099861.347 1
  21156124.240   -24589278.879 8 -19158220.133 9
  23550230.924     6743755.143 6   4107700.404 3
  21318550.744   -17652780.846 8 -14852398.892 9
  24087912.805   -24967030.484 5  -3623077.608 2
  23064016.334   -12084265.835 6  -9386015.744 4
 94  3 18 22 44  0.0010000  0  7 27 13  7 19  2 15 26
  21392481.064   -12634268.106 8 -13946240.872 7
  24760810.168    -4428603.131 4  -3189637.546 1
  21148832.088   -24627598.842 8 -19188079.830 9
  23567281.710     6833370.229 6   4177530.271 3
  21319657.218   -17646983.738 8 -14847881.672 9
  24086105.086   -24976516.128 5  -3630468.983 2
  23059429.629   -12108338.292 6  -9404773.500 4
 94  3 18 22 44 30.0010000  0  7 27 13  7 19  2 15 26
  21404311.444   -12572090.703 7 -13897790.956 7
  24738908.650    -4543708.946 4  -3279330.195 1
  21141636.380   -24665416.653 8 -19217548.230 9
  23584389.937     6923242.389 6   4247560.485 3
  21320793.492   -17641012.249 8 -14843228.564 9
  24084382.719   -24985467.300 5  -3637443.953 2
  23054947.012   -12131885.657 6  -9423122.082 4
 94  3 18 22 45  0.0010000  0  7 27 13  7 19  2 15 26
  21416230.652   -12509454.065 7 -13848983.201 7
  24717036.901    -4658703.419 5  -3368935.982 1
  21134534.416   -24702737.450 8 -19246629.341 9
  23601530.600     7013359.062 6   4317781.201 2
  21321965.351   -17634861.858 8 -14838436.053 9
  24082806.410   -24993881.658 5  -3644000.561 2
  23050566.115   -12154911.457 6  -9441064.249 4
 94  3 18 22 45 30.0010000  0  7 27 13  7 19  2 15 26
  21428233.143   -12446372.036 7 -13799828.402 6
  24695168.870    -4773584.475 5  -3458453.491 1
  21127523.710   -24739569.184 8 -19275329.363 9
  23618727.115     7103703.036 6   4388179.023 2
  21323171.715   -17628528.622 8 -14833501.080 9
  24081311.885   -25001758.806 5  -3650138.586 2
  23046286.548   -12177421.058 6  -9458604.192 4
 94  3 18 22 46  0.0010000  0  7 27 13  7 19  2 15 26
  21440322.693   -12382855.601 7 -13750335.117 6
  24673332.797    -4888349.851 5  -3547880.839 1
  21120607.378   -24775919.498 8 -19303654.273 9
  23635957.297     7194258.583 6   4458741.715 2
  21324414.595   -17621987.363 8 -14828403.998 9
  24079903.580   -25009098.376 5  -3655857.718 2
  23042102.374   -12199399.931 6  -9475730.603 4
 94  3 18 22 46 30.0010000  0  7 27 13  7 19  2 15 26
  21452490.520   -12318908.964 7 -13700506.567 6
  24651524.335    -5002997.072 5  -3637216.095 1
  21113778.225   -24811795.964 8 -19331609.955 9
  23653234.187     7285020.509 6   4529465.253 2
  21325698.996   -17615226.824 8 -14823136.030 9
  24078609.555   -25015899.392 5  -3661157.222 2
  23038021.210   -12220844.567 6  -9492440.716 4
 94  3 18 22 47  0.0010000  0  7 27 13  7 19  2 15 26
  21464737.342   -12254542.907 7 -13650351.227 6
  24629702.951    -5117524.150 4  -3726457.794 1
  21107047.465   -24847190.052 8 -19359189.730 9
  23670539.437     7375993.082 6   4600352.916 2
  21327025.697   -17608257.702 8 -14817705.563 9
  24077434.519   -25022161.565 5  -3666036.804 2
  23034047.910   -12241753.992 6  -9508733.786 4
 94  3 18 22 47 30.0010000  0  7 27 13  7 19  2 15 26
  21477067.775   -12189762.103 7 -13599872.690 6
  24607943.056    -5231928.113 5  -3815603.574 1
  21100403.015   -24882089.922 8 -19386384.419 9
  23687895.501     7467188.586 6   4671414.276 2
  21328392.031   -17601079.358 8 -14812112.036 9
  24076315.244   -25027883.982 5  -3670495.843 2
  23030167.007   -12262121.883 6  -9524604.874 4
 94  3 18 22 48  0.0010000  0  7 27 13  7 19  2 15 26
  21489470.909   -12124575.372 7 -13549077.863 6
  24586206.064    -5346209.115 5  -3904653.515 1
  21093854.798   -24916493.141 8 -19413192.102 9
  23705293.147     7558622.895 6   4742661.710 2
  21329798.088   -17593701.273 8 -14806362.886 9
  24075345.715   -25033068.662 5  -3674535.809 2
  23026392.770   -12281959.195 6  -9540062.533 4
 94  3 18 22 48 30.0010000  0  7 27 13  7 19  2 15 26
  21501951.629   -12058987.585 7 -13497970.528 6
  24564478.635    -5460365.194 5  -3993606.130 1
  21087405.573   -24950390.023 8 -19439605.231 9
  23722745.265     7650328.362 6   4814120.431 2
  21331233.974   -17586146.770 8 -14800476.253 9
  24074452.573   -25037715.701 5  -3678156.872 2
  23022718.214   -12301280.197 6  -9555117.863 4
 94  3 18 22 49  0.0010000  0  7 27 13  7 19  2 15 26
  21514510.474   -11992997.895 7 -13446549.995 6
  24542778.128    -5574397.245 5  -4082462.104 1
  21081052.611   -24983779.964 8 -19465623.342 9
  23740245.890     7742310.389 6   4885794.672 2
  21332702.597   -17578428.365 8 -14794461.911 9
  24073670.115   -25041827.797 6  -3681361.078 2
  23019135.424   -12320085.166 6  -9569771.085 4
 94  3 18 22 49 30.0010000  0  7 27 13  7 19  2 15 26
  21527144.238   -11926607.850 7 -13394817.527 6
  24521103.523    -5688301.542 5  -4171218.608 1
  21074793.994   -25016671.474 8 -19491253.080 9
  23757807.462     7834556.678 5   4957674.854 2
  21334203.928   -17570547.303 9 -14788320.825 9
  24073003.047   -25045403.052 6  -3684146.981 2
  23015660.979   -12338366.369 6  -9584016.196 4
 94  3 18 22 50  0.0010000  0  7 27 13  7 19  2 15 26
  21539854.179   -11859811.078 7 -13342768.121 6
  24499455.630    -5802076.395 5  -4259874.164 1
  21068629.421   -25049076.727 8 -19516503.902 9
  23775402.491     7927057.527 5   5029753.355 2
  21335732.390   -17562509.201 8 -14782057.360 9
  24072419.711   -25048441.804 6  -3686514.834 2
  23012281.119   -12356125.652 6  -9597854.598 4
 94  3 18 22 50 30.0010000  0  7 27 13  7 19  2 15 26
  21552645.904   -11792593.318 7 -13290390.680 6
  24477836.696    -5915719.382 5  -4348427.007 1
  21062552.718   -25081006.117 8 -19541383.921 9
  23793060.087     8019784.447 6   5102008.028 2
  21337290.351   -17554314.507 9 -14775671.889 9
  24071942.981   -25050943.776 6  -3688464.388 2
  23008999.531   -12373353.825 6  -9611279.156 4
 94  3 18 22 51  0.0010000  0  7 27 13  7 19  2 15 26
  21565518.452   -11724947.449 7 -13237679.617 6
  24456231.523    -6029226.569 5  -4436874.154 1
  21056560.317   -25112476.120 8 -19565906.004 9
  23810730.244     8112701.656 5   5174410.985 2
  21338881.440   -17545954.204 9 -14769157.382 9
  24071566.381   -25052906.630 5  -3689993.884 2
  23005828.237   -12390039.164 6  -9624280.725 4
 94  3 18 22 51 30.0010000  0  7 27 13  7 19  2 15 26
  21578468.527   -11656891.743 7 -13184649.231 6
  24434655.040    -6142597.065 5  -4525214.623 1
  21050658.063   -25143493.920 8 -19590075.697 9
  23828449.777     8205801.121 5   5246955.959 2
  21340503.407   -17537431.910 9 -14762516.621 9
  24071290.063   -25054331.593 5  -3691104.201 2
  23002755.724   -12406179.401 7  -9636857.532 4
 94  3 18 22 52  0.0010000  0  7 27 13  7 19  2 15 26
  21591494.899   -11588434.123 7 -13131305.638 6
  24413109.676    -6255830.638 5  -4613448.496 1
  21044845.057   -25174055.736 8 -19613890.078 9
  23846184.660     8299081.539 5   5319641.927 2
  21342154.574   -17528754.874 9 -14755755.311 9
  24071113.125   -25055220.517 5  -3691796.884 2
  22999785.140   -12421772.945 7  -9649008.355 4
 94  3 18 22 52 30.0010000  0  7 27 13  7 19  2 15 26
  21604597.538   -11519588.599 7 -13077659.811 6
  24391584.038    -6368926.417 5  -4701574.921 1
  21039119.531   -25204142.315 8 -19637334.144 9
  23863986.426     8392546.955 5   5392472.011 2
  21343833.591   -17519925.472 8 -14748875.248 9
  24071061.441   -25055574.621 5  -3692072.771 2
  22996923.501   -12436819.659 7  -9660733.075 4
 94  3 18 22 53  0.0010000  0  7 27 13  7 19  2 15 26
  21617769.340   -11450369.125 7 -13023722.592 6
  24370085.711    -6481882.461 5  -4789592.496 1
  21033490.478   -25233732.431 8 -19660391.359 9
  23881814.244     8486207.397 5   5465454.115 2
  21345544.897   -17510944.245 8 -14741876.895 9
  24071105.031   -25055394.069 5  -3691932.109 2
  22994161.633   -12451329.251 7  -9672039.271 4
 94  3 18 22 53 30.0010000  0  7 27 13  7 19  2 15 26
  21631013.421   -11380774.617 7 -12969493.134 6
  24348624.258    -6594692.157 5  -4877496.067 1
  21027958.048   -25262804.067 8 -19683044.563 9
  23899669.763     8580081.430 5   5538602.652 2
  21347279.706   -17501804.854 9 -14734755.285 9
  24071230.944   -25054674.620 5  -3691371.513 2
  22991500.615   -12465314.682 7  -9682937.016 4
 94  3 18 22 54  0.0010000  0  7 27 13  7 19  2 15 26
  21644332.630   -11310783.849 7 -12914954.925 6
  24327191.915    -6707349.374 5  -4965280.849 1
  21022523.800   -25291346.815 8 -19705285.650 9
  23917582.332     8674174.043 5   5611921.482 2
  21349057.445   -17492491.986 9 -14727498.520 9
  24071472.726   -25053411.863 5  -3690387.505 2
  22988937.899   -12478782.532 7  -9693431.450 4
 94  3 18 22 54 30.0010000  0  7 27 13  7 19  2 15 26
  21657727.927   -11240386.078 7 -12860099.540 6
  24305776.631    -6819849.945 5  -5052943.476 1
  21017192.171   -25319375.708 8 -19727126.336 9
  23935517.926     8768478.043 5   5685405.069 2
  21350864.264   -17482996.418 9 -14720099.378 9
  24071825.372   -25051604.156 6  -3688978.903 2
  22986469.978   -12491742.190 7  -9703529.879 4
 94  3 18 22 55  0.0010000  0  7 27 13  7 19  2 15 26
  21671204.587   -11169568.291 7 -12804916.872 6
  24284400.140    -6932185.309 5  -5140477.374 1
  21011955.726   -25346906.869 8 -19748579.153 9
  23953504.544     8862992.680 5   5759052.796 2
  21352707.388   -17473303.433 9 -14712546.405 9
  24072258.782   -25049244.377 5  -3687140.136 2
  22984102.877   -12504193.986 6  -9713232.594 4
 94  3 18 22 55 30.0010000  0  7 27 13  7 19  2 15 26
  21684760.633   -11098323.635 7 -12749401.588 6
  24263061.812    -7044353.166 5  -5227880.824 1
  21006803.882   -25373965.394 8 -19769663.710 9
  23971536.011     8957724.312 5   5832869.546 2
  21354588.496   -17463412.295 9 -14704839.030 9
  24072813.548   -25046332.970 5  -3684871.487 2
  22981828.801   -12516129.947 6  -9722533.353 4
 94  3 18 22 56  0.0010000  0  7 27 13  7 19  2 15 26
  21698400.830   -11026649.878 7 -12693551.933 6
  24241741.681    -7156350.351 5  -5315151.196 1
  21001740.178   -25400562.628 8 -19790388.804 9
  23989599.556     9052668.682 5   5906852.112 2
  21356507.318   -17453323.069 9 -14696977.298 9
  24073485.593   -25042869.387 6  -3682172.581 2
  22979658.034   -12527544.154 6  -9731427.534 4
 94  3 18 22 56 30.0010000  0  7 27 13  7 19  2 15 26
  21712120.202   -10954556.214 7 -12637375.098 6
  24220466.820    -7268175.133 5  -5402287.295 1
  20996764.133   -25426701.937 8 -19810757.080 9
  24007716.853     9147816.876 5   5980993.468 2
  21358466.162   -17443045.264 9 -14688968.629 9
  24074241.969   -25038853.474 5  -3679043.323 2
  22977587.037   -12538440.732 6  -9739918.362 4
 94  3 18 22 57  0.0010000  0  7 27 13  7 19  2 15 26
  21725916.591   -10882050.411 7 -12580877.091 6
  24199213.663    -7379824.986 5  -5489287.061 1
  20991882.792   -25452369.973 8 -19830758.124 9
  24025853.218     9243184.616 5   6055305.891 2
  21360453.426   -17432587.918 9 -14680820.056 9
  24075103.243   -25034285.348 5  -3675483.718 2
  22975611.195   -12548814.026 7  -9748001.494 4
 94  3 18 22 57 30.0010000  0  7 27 13  7 19  2 15 26
  21739794.703   -10809127.686 7 -12524054.219 6
  24178002.777    -7491297.596 5  -5576148.776 1
  20987090.190   -25477561.177 8 -19850387.618 9
  24044047.532     9338767.822 5   6129786.252 2
  21362473.877   -17421963.052 9 -14672540.933 9
  24076090.220   -25029164.676 6  -3671493.593 2
  22973743.069   -12558654.188 6  -9755669.149 4
 94  3 18 22 58  0.0010000  0  7 27 13  7 19  2 15 26
  21753752.021   -10735790.671 7 -12466908.524 6
  24156824.029    -7602589.380 5  -5662869.487 2
  20982385.877   -25502271.219 8 -19869642.185 9
  24062272.905     9434553.288 5   6204424.202 2
  21364529.764   -17411173.438 9 -14664133.448 9
  24077159.639   -25023490.546 5  -3667072.160 2
  22971974.053   -12567958.012 6  -9762918.866 4
 94  3 18 22 58 30.0010000  0  7 27 13  7 19  2 15 26
  21767779.100   -10662057.099 7 -12409453.831 6
  24135690.849    -7713694.428 5  -5749444.723 2
  20977776.867   -25526495.462 8 -19888518.205 9
  24080538.450     9530543.536 5   6279221.731 2
  21366612.362   -17400226.618 9 -14655603.467 9
  24078348.047   -25017259.293 5  -3662216.649 2
  22970303.999   -12576712.163 6  -9769740.298 4
 94  3 18 22 59  0.0010000  0  7 27 13  7 19  2 15 26
  21781884.005   -10587936.847 7 -12351697.820 6
  24114573.528    -7824608.498 5  -5835871.143 2
  20973259.025   -25550230.236 8 -19907012.823 9
  24098842.459     9626746.003 5   6354184.622 2
  21368730.636   -17389113.649 9 -14646944.012 9
  24079629.959   -25010468.986 5  -3656925.484 2
  22968741.871   -12584909.467 6  -9776127.811 4
 94  3 18 22 59 30.0010000  0  7 27 13  7 19  2 15 26
  21796060.261   -10513444.388 7 -12293651.788 6
  24093504.384    -7935332.917 5  -5922149.836 2
  20968835.707   -25573480.288 8 -19925129.747 9
  24117193.354     9723146.543 5   6429301.829 2
  21370875.801   -17377818.466 9 -14638142.568 9
  24081030.619   -25003123.429 5  -3651201.658 2
  22967286.349   -12592555.203 6  -9782085.535 4
 94  3 18 23  0  0.0010000  0  7 27 13  7 19  2 15 26
  21810302.142   -10438605.534 7 -12235335.818 6
  24072474.003    -8045865.293 6  -6008278.874 2
  20964502.177   -25596240.688 8 -19942865.117 9
  24135567.035     9819757.698 5   6504583.171 2
  21373064.705   -17366333.208 9 -14629193.022 9
  24082544.631   -24995222.644 5  -3645045.209 2
  22965936.563   -12599655.367 6  -9787618.140 4
 94  3 18 23  0 30.0010000  0  7 27 13  7 19  2 15 26
  21824612.645   -10363417.095 7 -12176747.455 6
  24051482.445    -8156202.796 6  -6094256.005 1
  20960267.819   -25618501.648 8 -19960211.309 9
  24153998.845     9916587.914 5   6580035.206 2
  21375286.467   -17354650.788 9 -14620089.845 9
  24084158.024   -24986766.265 5  -3638455.809 3
  22964684.929   -12606222.577 6  -9792735.430 4
 94  3 18 23  1  0.0010000  0  7 27 13  7 19  2 15 26
  21838989.882   -10287849.662 7 -12117863.778 6
  24030510.014    -8266341.289 6  -6180078.139 2
  20956130.113   -25640259.556 8 -19977165.524 9
  24172469.777    10013638.996 5   6655659.338 2
  21377548.641   -17342763.297 9 -14610826.857 9
  24085871.368   -24977752.324 5  -3631431.958 3
  22963536.185   -12612260.100 6  -9797440.019 4
 94  3 18 23  1 30.0010000  0  7 27 13  7 19  2 15 26
  21853444.825   -10211888.572 7 -12058673.363 6
  24009598.201    -8376276.624 6  -6265741.861 2
  20952082.135   -25661518.496 8 -19993730.909 9
  24190970.779    10110908.850 5   6731453.986 2
  21379844.212   -17330688.737 9 -14601418.120 9
  24087684.843   -24968179.335 5  -3623972.512 3
  22962490.748   -12617764.616 6  -9801729.271 4
 94  3 18 23  2  0.0010000  0  7 27 13  7 19  2 15 26
  21867977.864   -10135516.408 7 -11999162.598 6
  23988717.417    -8486004.906 6  -6351244.329 2
  20948133.419   -25682272.832 8 -20009903.118 9
  24209527.813    10208388.172 5   6807411.788 2
  21382179.835   -17318438.638 9 -14591872.594 9
  24089598.478   -24958045.936 5  -3616076.331 3
  22961543.434   -12622738.402 6  -9805604.949 4
 94  3 18 23  2 30.0010000  0  7 27 13  7 19  2 15 26
  21882593.256   -10058713.826 7 -11939316.455 6
  23967878.663    -8595523.225 6  -6436583.096 2
  20944278.448   -25702520.071 8 -20025680.166 9
  24228113.236    10306063.637 5   6883522.471 2
  21384542.259   -17306018.453 9 -14582194.526 9
  24091652.356   -24947351.516 5  -3607743.030 3
  22960698.349   -12627172.312 6  -9809059.951 4
 94  3 18 23  3  0.0010000  0  7 27 13  7 19  2 15 26
  21897286.744    -9981485.734 7 -11879138.759 6
  23947081.760    -8704824.383 6  -6521752.699 2
  20940524.387   -25722259.872 8 -20041061.826 9
  24246736.344    10403934.838 5   6959785.696 2
  21386936.192   -17293435.646 9 -14572389.757 9
  24093786.369   -24936091.753 5  -3598969.183 3
  22959961.729   -12631042.675 6  -9812075.843 4
 94  3 18 23  3 30.0010000  0  7 27 13  7 19  2 15 26
  21912061.026    -9903856.534 7 -11818648.490 6
  23926315.377    -8813906.277 6  -6606751.528 1
  20936864.041   -25741491.324 8 -20056047.369 9
  24265413.684    10502000.131 5   7036200.091 2
  21389359.834   -17280694.205 9 -14562461.360 9
  24096019.253   -24924267.062 5  -3589755.138 3
  22959330.696   -12634351.844 6  -9814654.425 4
 94  3 18 23  4  0.0010000  0  7 27 13  7 19  2 15 26
  21926907.947    -9825836.223 7 -11757853.475 6
  23905604.065    -8922768.274 6  -6691578.982 2
  20933301.727   -25760218.326 8 -20070639.812 9
  24284087.996    10600258.502 5   7112764.971 2
  21391812.676   -17267790.018 9 -14552406.147 9
  24098406.800   -24911879.222 5  -3580102.291 3
  22958806.689   -12637102.498 6  -9816797.805 4
 94  3 18 23  4 30.0010000  0  7 27 13  7 19  2 15 26
  21941826.969    -9747441.244 7 -11696766.509 6
  23884926.120    -9031410.439 6  -6776235.097 2
  20929831.029   -25778457.738 8 -20084852.331 9
  24302839.894    10698722.295 5   7189489.923 2
  21394297.386   -17254732.133 9 -14542231.182 9
  24100858.263   -24898930.894 5  -3570012.700 3
  22958391.806   -12639296.222 6  -9818507.203 4
 94  3 18 23  5  0.0010000  0  7 27 13  7 19  2 15 26
  21956810.506    -9668679.913 7 -11635394.077 6
  23864297.760    -9139830.617 6  -6860718.226 2
  20926451.049   -25796208.799 8 -20098684.319 9
  24321607.831    10797397.468 5   7266379.573 2
  21396815.973   -17241515.203 9 -14531932.278 9
  24103446.581   -24885422.684 6  -3559486.810 3
  22958077.953   -12640943.268 6  -9819790.658 4
 94  3 18 23  5 30.0010000  0  7 27 13  7 19  2 15 26
  21971871.810    -9589546.188 7 -11573731.456 6
  23843708.944    -9248024.333 6  -6945024.932 2
  20923166.823   -25813478.781 8 -20112141.420 9
  24340424.845    10896283.020 5   7343433.185 2
  21399365.767   -17228117.565 9 -14521492.563 9
  24106110.297   -24871352.867 5  -3548523.305 3
  22957867.169   -12642065.100 6  -9820664.810 4
 94  3 18 23  6  0.0010000  0  7 27 13  7 19  2 15 26
  21987003.624    -9510035.287 7 -11511774.950 6
  23823166.655    -9355992.204 6  -7029155.663 2
  20919969.626   -25830279.725 8 -20125233.054 9
  24359306.163    10995372.428 5   7420645.589 2
  21401948.030   -17214532.641 9 -14510906.919 9
  24108892.431   -24856724.234 5  -3537124.385 3
  22957747.522   -12642671.227 6  -9821137.141 4
 94  3 18 23  6 30.0010000  0  7 27 13  7 19  2 15 26
  22002205.680    -9430149.427 7 -11449526.269 6
  23802661.450    -9463731.977 6  -7113108.621 2
  20916861.768   -25846604.999 8 -20137954.038 9
  24378176.240    11094650.052 5   7498004.705 2
  21404570.704   -17200752.394 9 -14500169.079 9
  24111799.429   -24841537.521 6  -3525290.563 3
  22957732.742   -12642763.823 6  -9821209.315 4
 94  3 18 23  7  0.0010000  0  7 27 13  7 19  2 15 26
  22017482.504    -9349880.548 7 -11386979.133 6
  23782204.782    -9571241.336 6  -7196882.056 2
  20913847.505   -25862444.878 8 -20150296.787 9
  24397100.009    11194090.006 5   7575490.260 2
  21407230.793   -17186782.469 9 -14489283.428 9
  24114790.668   -24825793.370 6  -3513022.418 3
  22957814.376   -12642354.177 6  -9820890.126 4
 94  3 18 23  7 30.0010000  0  7 27 13  7 19  2 15 26
  22032826.811    -9269225.316 7 -11324130.937 6
  23761791.374    -9678515.880 6  -7280472.492 2
  20910926.027   -25877808.885 8 -20162268.726 9
  24416043.115    11293683.268 5   7653095.298 2
  21409922.869   -17172637.343 9 -14478261.262 9
  24117877.961   -24809490.005 6  -3500318.515 3
  22957984.898   -12641446.056 6  -9820182.488 4
 94  3 18 23  8  0.0010000  0  7 27 13  7 19  2 15 26
  22048249.365    -9188180.569 7 -11260979.221 5
  23741422.635    -9785552.568 6  -7363877.628 2
  20908095.776   -25892675.295 8 -20173852.941 9
  24435029.871    11393430.405 5   7730820.297 2
  21412644.115   -17158330.905 9 -14467113.394 9
  24121086.759   -24792626.959 5  -3487178.467 3
  22958256.360   -12640018.731 6  -9819070.323 4
 94  3 18 23  8 30.0010000  0  7 27 13  7 19  2 15 26
  22063751.003    -9106739.602 7 -11197518.773 6
  23721100.694    -9892347.227 6  -7447094.191 2
  20905362.449   -25907027.723 8 -20185036.634 9
  24454031.916    11493330.577 5   7808664.449 2
  21415399.298   -17143864.545 9 -14455840.914 9
  24124402.374   -24775203.065 5  -3473601.429 3
  22958629.272   -12638056.186 6  -9817541.072 4
 94  3 18 23  9  0.0010000  0  7 27 13  7 19  2 15 26
  22079320.484    -9024893.930 7 -11133742.968 6
  23700818.625    -9998892.516 6  -7530116.424 2
  20902731.710   -25920865.977 8 -20195819.688 9
  24473090.862    11593405.364 5   7886644.706 2
  21418180.112   -17129234.938 9 -14444441.226 9
  24127838.145   -24757213.568 6  -3459583.629 3
  22959110.259   -12635551.000 6  -9815588.987 4
 94  3 18 23  9 30.0010000  0  7 27 13  7 19  2 15 26
  22094970.430    -8942659.025 7 -11069663.862 5
  23680594.266   -10105185.724 6  -7612942.214 2
  20900192.288   -25934193.166 8 -20206204.493 9
  24492172.892    11693673.413 5   7964775.560 2
  21420999.810   -17114423.725 9 -14432900.039 9
  24131376.596   -24738658.885 6  -3445125.459 3
  22959690.387   -12632486.359 6  -9813200.972 4
 94  3 18 23 10  0.0010000  0  7 27 13  7 19  2 15 26
  22110694.155    -8860039.815 7 -11005285.300 5
  23660417.334   -10211224.634 6  -7695569.881 2
  20897758.213   -25946997.935 8 -20216182.216 9
  24511288.288    11794127.298 5   8043051.230 2
  21423855.993   -17099418.840 9 -14421207.921 9
  24135010.500   -24719539.417 5  -3430227.161 3
  22960383.177   -12628851.695 6  -9810368.764 4
 94  3 18 23 10 30.0010000  0  7 27 13  7 19  2 15 26
  22126483.594    -8777049.494 7 -10940617.560 5
  23640283.332   -10317009.276 6  -7777999.391 2
  20895413.776   -25959303.883 8 -20225771.264 9
  24530436.542    11894758.818 5   8121465.293 2
  21426747.341   -17084225.612 9 -14409369.050 9
  24138741.957   -24699857.907 5  -3414890.920 3
  22961179.336   -12624662.786 6  -9807104.692 4
 94  3 18 23 11  0.0010000  0  7 27 13  7 19  2 15 26
  22142345.733    -8693697.254 7 -10875667.792 5
  23620210.938   -10422535.476 6  -7860227.530 2
  20893168.870   -25971126.908 8 -20234983.993 9
  24549604.912    11995564.765 5   8200015.269 2
  21429674.455   -17068848.661 9 -14397387.030 9
  24142623.999   -24679613.027 6  -3399115.684 3
  22962081.981   -12619931.446 6  -9803417.955 4
 94  3 18 23 11 30.0010000  0  7 27 13  7 19  2 15 26
  22158279.522    -8609980.657 7 -10810434.132 5
  23600176.408   -10527801.607 6  -7942252.973 2
  20891007.936   -25982469.019 8 -20243821.990 9
  24568824.787    12096538.713 5   8278696.158 2
  21432632.717   -17053296.729 9 -14385268.651 9
  24146554.308   -24658806.343 5  -3382902.726 3
  22963083.948   -12614663.468 6  -9799313.059 4
 94  3 18 23 12  0.0010000  0  7 27 13  7 19  2 15 26
  22174277.917    -8525901.413 7 -10744917.873 5
  23580193.682   -10632809.312 6  -8024077.099 2
  20888938.109   -25993343.922 8 -20252295.927 9
  24588083.904    12197677.865 5   8357505.811 2
  21435619.879   -17037585.205 9 -14373025.906 9
  24150632.415   -24637442.251 5  -3366255.396 3
  22964184.606   -12608868.072 6  -9794797.162 4
 94  3 18 23 12 30.0010000  0  7 27 13  7 19  2 15 26
  22190348.441    -8441462.927 7 -10679121.694 5
  23560263.689   -10737555.670 6  -8105697.605 2
  20886954.742   -26003760.968 8 -20260413.100 9
  24607350.875    12298993.267 5   8436452.755 2
  21438641.307   -17021714.580 9 -14360659.193 9
  24154803.368   -24615520.661 5  -3349173.635 3
  22965389.112   -12602556.671 6  -9789879.208 4
 94  3 18 23 13  0.0010000  0  7 27 13  7 19  2 15 26
  22206481.563    -8356662.497 7 -10613043.478 5
  23540377.646   -10842039.665 6  -8187113.637 2
  20885060.234   -26013718.006 8 -20268171.813 9
  24626662.576    12400493.113 4   8515543.454 2
  21441692.955   -17005682.785 9 -14348166.889 9
  24159071.363   -24593043.775 5  -3331659.152 3
  22966680.348   -12595731.852 6  -9784561.182 4
 94  3 18 23 13 30.0010000  0  7 27 13  7 19  2 15 26
  22222690.142    -8271492.417 7 -10546677.212 5
  23520542.687   -10946255.045 6  -8268320.340 2
  20883256.233   -26023205.512 8 -20275564.683 9
  24646031.717    12502182.568 5   8594781.830 2
  21444774.072   -16989486.977 9 -14335546.786 9
  24163462.363   -24570008.363 5  -3313709.499 3
  22968083.886   -12588388.239 6  -9778838.907 4
 94  3 18 23 14  0.0010000  0  7 27 13  7 19  2 15 26
  22238966.834    -8185959.594 7 -10480028.310 5
  23500763.010   -11050198.617 6  -8349315.221 2
  20881541.330   -26032223.862 8 -20282591.957 9
  24665418.216    12604046.959 5   8674156.582 2
  21447888.915   -16973118.361 9 -14322792.013 9
  24167931.099   -24546414.059 5  -3295324.317 3
  22969576.973   -12580524.537 6  -9772711.344 4
 94  3 18 23 14 30.0010000  0  7 27 13  7 19  2 15 26
  22255311.039    -8100062.766 7 -10413095.756 5
  23481037.176   -11153866.646 6  -8430095.451 2
  20879918.763   -26040760.458 8 -20289243.835 9
  24684813.829    12706069.547 4   8753654.595 2
  21451034.728   -16956574.380 9 -14309900.604 9
  24172547.214   -24522260.360 5  -3276503.274 3
  22971174.986   -12572148.947 6  -9766184.942 4
 94  3 18 23 15  0.0010000  0  7 27 13  7 19  2 15 26
  22271725.995    -8013805.861 7 -10345882.634 5
  23461366.294   -11257251.730 6  -8510655.191 2
  20878384.245   -26048805.966 8 -20295513.073 9
  24704272.938    12808251.037 5   8833276.423 2
  21454218.763   -16939851.786 9 -14296870.013 9
  24177253.266   -24497542.622 5  -3257242.707 3
  22972866.565   -12563246.138 6  -9759247.698 4
 94  3 18 23 15 30.0010000  0  7 27 13  7 19  2 15 26
  22288206.815    -7927199.066 7 -10278396.870 5
  23441742.030   -11360347.302 6  -8590989.274 2
  20876949.019   -26056350.218 8 -20301391.670 9
  24723738.522    12910581.918 4   8913014.674 2
  21457436.646   -16922946.111 9 -14283696.760 9
  24182059.149   -24472257.295 5  -3237539.855 3
  22974667.689   -12553803.977 6  -9751890.177 4
 94  3 18 23 16  0.0010000  0  7 27 13  7 19  2 15 26
  22304754.969    -7840256.762 7 -10210649.659 5
  23422185.668   -11463150.158 6  -8671095.260 2
  20875608.677   -26063387.152 8 -20306874.993 9
  24743246.797    13013067.991 5   8992873.856 2
  21460690.863   -16905842.944 9 -14270369.615 9
  24186992.474   -24446404.734 5  -3217395.032 3
  22976558.360   -12543825.799 6  -9744114.985 4
 94  3 18 23 16 30.0010000  0  7 27 13  7 19  2 15 26
  22321359.394    -7752982.918 7 -10142644.117 5
  23402678.203   -11565656.956 6  -8750970.601 2
  20874367.746   -26069917.857 8 -20311963.858 9
  24762774.798    13115720.545 4   9072862.681 1
  21463983.723   -16888543.710 9 -14256889.708 9
  24192001.976   -24419984.648 5  -3196807.954 3
  22978561.423   -12533314.583 6  -9735924.459 4
 94  3 18 23 17  0.0010000  0  7 27 13  7 19  2 15 26
  22338033.491    -7665363.470 7 -10074369.256 5
  23383225.150   -11667865.353 6  -8830613.410 2
  20873216.963   -26075950.847 8 -20316664.869 9
  24782348.907    13218553.503 4   9152992.154 1
  21467312.409   -16871050.286 9 -14243258.458 9
  24197147.913   -24392997.381 5  -3175778.963 3
  22980669.174   -12522260.706 6  -9727311.054 4
 94  3 18 23 17 30.0010000  0  7 27 13  7 19  2 15 26
  22354774.232    -7577380.215 7 -10005810.949 5
  23363838.022   -11769774.896 6  -8910023.346 2
  20872162.862   -26081494.759 8 -20320984.810 9
  24801947.719    13321559.599 4   9233256.546 1
  21470677.279   -16853368.626 9 -14229480.550 9
  24202392.183   -24365445.464 5  -3154309.956 3
  22982872.079   -12510677.569 6  -9718285.270 4
 94  3 18 23 18  0.0010000  0  7 27 13  7 19  2 15 26
  22371591.749    -7489016.253 7  -9936955.964 5
  23344496.581   -11871385.663 6  -8989200.448 2
  20871198.940   -26086558.040 8 -20324930.199 9
  24821594.138    13424728.456 5   9313647.787 1
  21474078.545   -16835506.813 8 -14215562.251 9
  24207729.208   -24337332.337 5  -3132403.622 3
  22985171.937   -12498569.782 6  -9708850.641 4
 94  3 18 23 18 30.0010000  0  7 27 13  7 19  2 15 26
  22388482.476    -7400261.007 7  -9867796.078 4
  23325220.406   -11972694.799 6  -9068142.508 2
  20870327.683   -26091140.078 8 -20328500.625 9
  24841247.212    13528057.747 5   9394163.990 1
  21477506.102   -16817480.895 8 -14201516.095 9
  24213199.371   -24308658.270 5  -3110060.240 3
  22987578.521   -12485927.874 6  -9698999.812 4
 94  3 18 23 19  0.0010000  0  7 27 13  7 19  2 15 26
  22405443.234    -7311117.558 7  -9798333.687 4
  23306001.401   -12073696.275 6  -9146844.857 2
  20869548.582   -26095231.316 8 -20331688.579 9
  24860944.986    13631537.898 5   9474797.722 1
  21480969.514   -16799288.501 9 -14187340.218 9
  24218753.386   -24279420.437 5  -3087277.519 3
  22990087.813   -12472748.849 6  -9688730.467 4
 94  3 18 23 19 30.0010000  0  7 27 13  7 19  2 15 26
  22422474.684    -7221608.783 7  -9728586.651 4
  23286838.847   -12174389.693 6  -9225307.164 2
  20868865.895   -26098828.875 8 -20334491.874 9
  24880659.998    13735155.484 5   9555538.655 1
  21484463.595   -16780921.871 9 -14173028.562 9
  24224430.855   -24249621.404 5  -3064057.483 3
  22992698.916   -12459044.112 6  -9678051.455 4
 94  3 18 23 20  0.0010000  0  7 27 13  7 19  2 15 26
  22439577.244    -7131751.578 7  -9658568.100 4
  23267735.562   -12274770.152 6  -9303525.632 2
  20868275.124   -26101934.288 8 -20336911.665 9
  24900406.607    13838924.338 5   9636397.295 1
  21487991.823   -16762374.286 9 -14158575.920 9
  24230208.756   -24219259.957 5  -3040399.257 3
  22995404.183   -12444812.635 6  -9666962.035 4
 94  3 18 23 20 30.0010000  0  7 27 13  7 19  2 15 26
  22456740.212    -7041561.572 7  -9588290.222 4
  23248695.083   -12374835.769 7  -9381498.757 2
  20867776.449   -26104561.284 8 -20338958.669 9
  24920174.023    13942851.934 5   9717379.763 1
  21491557.195   -16743641.205 9 -14143978.721 9
  24236073.685   -24188337.326 5  -3016303.720 3
  22998210.810   -12430063.292 6  -9655469.060 4
 94  3 18 23 21  0.0010000  0  7 27 13  7 19  2 15 26
  22473965.537    -6951035.997 7  -9517750.870 4
  23229713.274   -12474584.575 6  -9459225.009 2
  20867361.326   -26106728.900 8 -20340647.712 9
  24939988.056    14046931.055 5   9798480.261 1
  21495158.751   -16724717.532 9 -14129233.020 9
  24242078.228   -24156854.361 5  -2991771.527 3
  23001113.490   -12414801.410 6  -9643576.696 4
 94  3 18 23 21 30.0010000  0  7 27 13  7 19  2 15 26
  22491254.988    -6860170.040 7  -9446946.282 4
  23210791.453   -12574015.607 6  -9536703.659 2
  20867039.619   -26108440.665 8 -20341981.541 9
  24959828.021    14151179.427 5   9879712.661 1
  21498795.084   -16705616.109 9 -14114348.800 9
  24248167.763   -24124813.929 5  -2966804.922 3
  23004117.621   -12399029.387 6  -9631286.832 4
 94  3 18 23 22  0.0010000  0  7 27 13  7 19  2 15 26
  22508615.100    -6768958.073 7  -9375872.083 4
  23191931.870   -12673123.599 6  -9613930.572 2
  20866796.997   -26109688.679 8 -20342954.019 9
  24979680.367    14255597.364 5   9961077.176 1
  21502460.586   -16686352.818 9 -14099338.441 9
  24254371.938   -24092213.686 5  -2941402.155 3
  23007215.736   -12382743.659 6  -9618596.673 4
 94  3 18 23 22 30.0010000  0  8 27 13  7 19  4  2 15 26
  22526036.699    -6677395.918 6  -9304525.010 4
  23173133.084   -12771909.856 6  -9690906.829 2
  20866650.279   -26110461.569 8 -20343556.268 9
  24999591.413    14360164.924 5  10042558.252 1
  25161754.220    -4024511.15815  -3115070.674 1
  21506156.098   -16666929.255 9 -14084203.211 9
  24260692.102   -24059058.144 5  -2915566.661 3
  23010412.153   -12365942.594 6  -9605504.963 4
 94  3 18 23 23  0.0010000  0  8 27 13  7 19  4  2 15 26
  22543526.082    -6585485.798 6  -9232906.787 4
  23154395.635   -12870370.328 6  -9767629.211 2
  20866597.785   -26110736.817 8 -20343770.739 9
  25019510.014    14464882.740 5  10124156.499 1
  25143048.610    -4122855.200 5  -3191702.438 1
  21509885.096   -16647341.433 9 -14068939.980 9
  24267095.999   -24025346.707 5  -2889298.000 3
  23013704.144   -12348632.278 6  -9592016.401 4
 94  3 18 23 23 30.0010000  0  8 27 13  7 19  4  2 15 26
  22561078.510    -6493255.515 6  -9161039.103 4
  23135722.493   -12968504.975 6  -9844097.681 2
  20866643.533   -26110501.992 8 -20343587.754 9
  25039482.907    14569746.375 5  10205868.261 1
  25124309.542    -4221281.191 5  -3268397.882 1
  21513639.487   -16627589.712 9 -14053549.041 9
  24273633.513   -23991082.440 6  -2862598.587 3
  23017098.214   -12330822.532 6  -9578138.715 4
 94  3 18 23 24  0.0010000  0  8 27 13  7 19  4  2 15 26
  22578687.570    -6400702.469 6  -9088919.909 4
  23117112.546   -13066308.699 6  -9920308.310 2
  20866784.016   -26109762.798 8 -20343011.754 9
  25059454.750    14674739.671 5  10287681.085 1
  25105555.905    -4319774.614 5  -3345145.862 1
  21517437.438   -16607645.736 9 -14038008.293 9
  24280245.316   -23956264.058 5  -2835467.400 3
  23020579.375   -12312504.939 6  -9563865.259 4
 94  3 18 23 24 30.0010000  0  9 27 13  7  9 19  4  2 15 26
  22596360.575    -6307823.814 6  -9016546.965 4
  23098565.706   -13163775.431 6  -9996256.348 2
  20867021.632   -26108534.584 8 -20342054.704 9
  25005145.338    -1311128.72415   -215420.775
  25079467.666    14779868.509 5  10369599.532 1
  25086810.333    -4418310.825 5  -3421927.171 1
  21521272.053   -16587487.983 9 -14022300.954 9
  24286984.860   -23920888.856 5  -2807902.342 3
  23024166.271   -12293674.512 6  -9549192.203 4
 94  3 18 23 25  0.0010000  0  9 27 13  7  9 19  4  2 15 26
  22614098.935    -6214630.829 6  -8943929.125 4
  23080079.513   -13260902.545 6 -10071939.743 2
  20867343.818   -26106834.054 8 -20340729.602 9
  24986920.865    -1406889.720 5   -290039.282
  25099449.942    14885141.978 4  10451630.707 1
  25068059.663    -4516876.808 5  -3498731.713 1
  21525147.171   -16567122.514 9 -14006431.770 9
  24293812.783   -23884956.984 5  -2779903.484 3
  23027843.196   -12274327.617 6  -9534116.714 4
 94  3 18 23 25 30.0010000  0  9 27 13  7  9 19  4  2 15 26
  22631897.104    -6121101.467 6  -8871049.170 4
  23061662.453   -13357688.535 6 -10147357.339 2
  20867756.243   -26104667.962 8 -20339041.737 9
  24968713.479    -1502596.440 5   -364615.824 1
  25119557.952    14990556.052 5  10533771.402 1
  25049290.467    -4615476.697 5  -3575562.716 1
  21529062.640   -16546553.034 9 -13990403.607 9
  24300754.957   -23848470.562 5  -2751472.547 3
  23031630.984   -12254454.703 6  -9518631.362 4
 94  3 18 23 26  0.0010000  0  9 27 13  7  9 19  4  2 15 26
  22649762.066    -6027207.445 6  -8797885.056 4
  23043311.377   -13454131.990 7 -10222508.045 2
  20868251.560   -26102041.672 8 -20336995.266 9
  24950488.406    -1598258.645 5   -439157.688 1
  25139632.355    15096108.169 4  10616019.678 1
  25030529.095    -4714123.824 5  -3652430.527 1
  21533017.172   -16525781.162 9 -13974217.744 9
  24307804.577   -23811431.627 5  -2722611.060 3
  23035508.170   -12234055.484 6  -9502735.874 4
 94  3 18 23 26 30.0010000  0  9 27 13  7  9 19  4  2 15 26
  22667698.139    -5932954.748 6  -8724441.444 4
  23025025.357   -13550232.211 7 -10297391.284 2
  20868842.451   -26098952.769 8 -20334588.323 9
  24932300.657    -1693884.515 5   -513671.240 1
  25159743.692    15201804.477 3  10698380.313 1
  25011743.830    -4812817.940 5  -3729334.921 1
  21537002.613   -16504829.964 9 -13957892.143 9
  24314972.645   -23773842.821 5  -2693321.119 3
  23039485.366   -12213132.599 6  -9486432.356 4
 94  3 18 23 27  0.0010000  0  9 27 13  7  9 19  4  2 15 26
  22685702.985    -5838341.229 6  -8650716.691 4
  23006802.382   -13645984.266 7 -10372003.204 2
  20869522.440   -26095377.738 8 -20331802.574 9
  24914111.260    -1789474.239 5   -588156.671 1
  25179887.047    15307642.739 4  10780851.536 1
  24992945.614    -4911570.122 5  -3806284.582 1
  21541022.410   -16483701.306 9 -13941428.258 9
  24322211.433   -23735702.740 5  -2663601.607 3
  23043572.617   -12191687.780 6  -9469722.111 4
 94  3 18 23 27 30.0010000  0  9 27 13  7  9 19  4  2 15 26
  22703780.680    -5743359.277 6  -8576704.817 4
  22988646.381   -13741386.419 7 -10446342.483 2
  20870298.693   -26091309.888 8 -20328632.810 9
  24895937.721    -1885018.046 5   -662606.294 1
  25200018.950    15413615.854 3  10863427.853 1
  24974137.354    -5010384.467 5  -3883282.657 1
  21545078.602   -16462389.581 9 -13924821.723 9
  24329576.195   -23697013.063 5  -2633453.847 3
  23047745.368   -12169729.668 6  -9452611.887 4
 94  3 18 23 28  0.0010000  0  9 27 13  7  9 19  4  2 15 26
  22721916.385    -5648040.735 6  -8502430.684 4
  22970560.052   -13836438.843 7 -10520409.252 2
  20871162.035   -26086764.517 8 -20325090.972 9
  24877764.242    -1980510.400 5   -737015.843 1
  25220200.618    15519714.777 3  10946102.166 1
  24955331.134    -5109268.128 5  -3960334.748 1
  21549168.581   -16440894.266 9 -13908072.145 9
  24337046.933   -23657777.595 5  -2602880.745 3
  23052027.244   -12147259.863 6  -9435102.957 4
 94  3 18 23 28 30.0010000  0  9 27 13  7  9 19  4  2 15 26
  22740117.774    -5552408.805 6  -8427912.356 4
  22952540.787   -13931137.979 7 -10594200.718 2
  20872117.084   -26081746.443 8 -20321180.766 9
  24859589.654    -2075950.660 5   -811384.816 1
  25240461.162    15625933.511 4  11028869.946 1
  24936503.928    -5208218.690 5  -4037438.956 1
  21553293.395   -16419217.211 9 -13891180.930 9
  24344619.151   -23617996.117 5  -2571882.235 3
  23056400.286   -12124280.484 6  -9417196.968 4
 94  3 18 23 29  0.0010000  0  8 27 13  7  9  4  2 15 26
  22758372.976    -5456467.424 6  -8353152.910 4
  22934588.285   -14025479.389 7 -10667713.430 2
  20873159.942   -26076261.209 8 -20316906.559 9
  24841452.181    -2171345.874 5   -885718.686 1
  24917670.845    -5307239.940 5  -4114598.276 1
  21557457.543   -16397346.603 9 -13874138.926 9
  24352296.566   -23577667.812 5  -2540457.597 3
  23060871.121   -12100797.281 6  -9398898.398 4
 94  3 18 23 29 30.0010000  0  8 27 13  7  9  4  2 15 26
  22776689.726    -5360223.718 6  -8278157.863 4
  22916704.346   -14119461.811 7 -10740946.458 2
  20874289.380   -26070324.212 8 -20312280.317 9
  24823297.019    -2266695.774 5   -960017.243 1
  24898811.292    -5406320.123 5  -4191803.452 1
  21561653.798   -16375289.711 9 -13856951.730 9
  24360086.373   -23536794.304 5  -2508608.132 3
  23065430.844   -12076815.896 6  -9380211.612 4
 94  3 18 23 30  0.0010000  0  8 27 13  7  9  4  2 15 26
  22795061.427    -5263696.923 6  -8202942.253 4
  22898886.271   -14213086.769 7 -10813900.887 3
  20875505.548   -26063944.214 8 -20307308.892 9
  24805158.616    -2362015.510 5  -1034292.266 2
  24879945.112    -5505453.545 5  -4269050.083 2
  21565879.792   -16353068.362 9 -13839636.403 9
  24367954.036   -23495381.251 5  -2476338.256 3
  23070086.352   -12052345.805 6  -9361144.037 4
 94  3 18 23 30 30.0010000  0  8 27 13  7  9  4  2 15 26
  22813478.068    -5166888.560 6  -8127507.218 4
  22881142.455   -14306351.787 7 -10886574.874 3
  20876803.530   -26057118.130 8 -20301989.852 9
  24787028.337    -2457294.310 5  -1108535.426 2
  24861056.029    -5604623.766 5  -4346325.463 2
  21570137.894   -16330695.831 9 -13822203.271 9
  24375940.777   -23453429.150 5  -2443648.328 3
  23074835.904   -12027394.766 6  -9341701.705 4
 94  3 18 23 31  0.0010000  0  8 27 13  7  9  4  2 15 26
  22831955.776    -5069791.077 6  -8051846.883 4
  22863460.126   -14399255.482 7 -10958967.299 3
  20878188.721   -26049841.386 8 -20296319.663 9
  24768911.729    -2552526.146 5  -1182742.000 2
  24842189.430    -5703819.302 5  -4423620.525 2
  21574422.018   -16308166.802 8 -13804648.192 9
  24384027.049   -23410940.260 5  -2410540.135 3
  23079674.914   -12001963.630 6  -9321885.266 4
 94  3 18 23 31 30.0010000  0  8 27 13  7  9  4  2 15 26
  22850488.886    -4972406.098 6  -7975962.550 4
  22845850.047   -14491799.174 7 -11031079.214 3
  20879658.213   -26042110.949 8 -20290295.946 9
  24750798.449    -2647697.192 5  -1256901.141 2
  24823309.640    -5803043.241 5  -4500937.724 2
  21578739.689   -16285492.746 9 -13786980.094 9
  24392221.067   -23367919.395 5  -2377017.371 3
  23084605.060   -11976060.116 6  -9301700.722 4
 94  3 18 23 32  0.0010000  0  8 27 13  7  9  4  2 15 26
  22869073.380    -4874740.600 6  -7899859.595 4
  22828305.713   -14583983.477 7 -11102911.090 3
  20881214.676   -26033936.151 8 -20283925.953 9
  24732706.304    -2742800.297 5  -1331007.375 2
  24804411.024    -5902303.767 5  -4578283.384 2
  21583086.620   -16262663.250 9 -13769190.883 9
  24400498.846   -23324370.966 5  -2343083.547 3
  23089619.599   -11949679.789 6  -9281144.669 4
 94  3 18 23 32 30.0010000  0  8 27 13  7  9  4  2 15 26
  22887715.254    -4776782.259 6  -7823528.508 4
  22810832.879   -14675805.966 7 -11174461.037 3
  20882855.290   -26025316.913 8 -20277209.658 9
  24714622.913    -2837823.646 5  -1405051.437 2
  24785511.567    -6001600.626 5  -4655657.510 2
  21587466.918   -16239642.912 9 -13751252.961 9
  24408886.589   -23280296.039 5  -2308739.510 3
  23094735.677   -11922817.564 6  -9260213.068 4
 94  3 18 23 33  0.0010000  0  8 27 13  7  9  4  2 15 26
  22906416.308    -4678511.617 6  -7746954.048 3
  22793430.616   -14767263.935 7 -11245726.927 3
  20884580.056   -26016248.257 8 -20270143.158 9
  24696539.461    -2932766.010 5  -1479032.437 2
  24766630.339    -6100932.768 5  -4733059.022 2
  21591885.649   -16216416.938 9 -13733154.802 9
  24417366.609   -23235695.560 5  -2273985.892 3
  23099942.742   -11895464.584 6  -9238899.080 4
 94  3 18 23 33 30.0010000  0  8 27 13  7  9  4  2 15 26
  22925171.624    -4579933.096 6  -7670139.684 3
  22776096.616   -14858353.810 7 -11316706.021 3
  20886390.143   -26006746.064 8 -20262738.856 9
  24678501.099    -3027622.269 5  -1552946.299 2
  24747707.079    -6200299.837 5  -4810487.779 2
  21596342.513   -16192989.581 9 -13714899.730 9
  24425971.492   -23190569.300 5  -2238822.647 3
  23105243.223   -11867618.022 6  -9217200.515 4
 94  3 18 23 34  0.0010000  0  8 27 13  7  9  4  2 15 26
  22943993.314    -4481040.861 6  -7593080.849 3
  22758834.327   -14949070.158 7 -11387394.041 3
  20888278.776   -25996808.275 8 -20254995.107 9
  24660463.456    -3122405.756 5  -1626803.461 2
  24728814.398    -6299682.821 6  -4887928.919 2
  21600842.218   -16169350.699 8 -13696479.822 9
  24434652.582   -23144915.471 5  -2203248.228 3
  23110633.102   -11839270.592 6  -9195111.607 4
 94  3 18 23 34 30.0010000  0  8 27 13  7  9  4  2 15 26
  22962871.395    -4381828.368 6  -7515772.469 3
  22741640.960   -15039411.469 7 -11457789.803 3
  20890255.937   -25986423.334 8 -20246902.950 9
  24642429.831    -3217124.900 5  -1700610.464 2
  24709882.804    -6399079.903 5  -4965381.079 2
  21605379.517   -16145511.080 8 -13677903.500 9
  24443440.428   -23098736.492 5  -2167264.633 3
  23116126.649   -11810432.701 6  -9172640.566 4
 94  3 18 23 35  0.0010000  0  8 27 13  7  9  4  2 15 26
  22981805.927    -4282306.561 6  -7438223.080 3
  22724524.219   -15129372.782 7 -11527889.481 3
  20892317.939   -25975589.994 8 -20238461.381 9
  24624433.110    -3311783.490 5  -1774370.289 2
  24690974.984    -6498491.873 6  -5042844.827 2
  21609946.645   -16121494.086 8 -13659188.962 9
  24452318.152   -23052030.817 5  -2130870.644 3
  23121707.975   -11781113.477 6  -9149794.464 4
 94  3 18 23 35 30.0010000  0  8 27 13  7  9  4  2 15 26
  23000806.203    -4182486.241 6  -7360441.101 3
  22707477.241   -15218949.841 7 -11597689.746 3
  20894463.554   -25964305.444 8 -20229668.223 9
  24606423.318    -3406389.622 5  -1848089.238 2
  24672049.865    -6597917.154 6  -5120318.921 2
  21614550.318   -16097305.704 8 -13640340.875 9
  24461322.929   -23004797.516 5  -2094065.519 3
  23127374.892   -11751326.022 6  -9126583.470 4
 94  3 18 23 36  0.0010000  0  8 27 13  7  9  4  2 15 26
  23019854.027    -4082370.049 6  -7282428.548 3
  22690504.131   -15308139.239 7 -11667187.950 3
  20896699.496   -25952551.234 8 -20220509.098 9
  24588439.877    -3500943.766 5  -1921767.713 2
  24653115.663    -6697354.114 5  -5197802.124 2
  21619187.958   -16072942.771 8 -13621356.783 9
  24470392.280   -22957036.990 5  -2056849.549 3
  23133127.999   -11721070.486 6  -9103007.770 4
 94  3 18 23 36 30.0010000  0  8 27 13  7  9  4  2 15 26
  23038960.040    -3981963.964 6  -7204190.098 3
  22673605.520   -15396934.436 7 -11736378.945 3
  20899025.046   -25940335.571 8 -20210990.404 9
  24570447.263    -3595419.258 5  -1995384.888 2
  24634207.873    -6796803.446 5  -5275294.989 2
  21623855.426   -16048414.853 8 -13602244.127 9
  24479585.416   -22908746.319 5  -2019220.510 3
  23138976.140   -11690341.688 6  -9079063.279 4
